     2.11           OBSERVATION DATA    G (GPS)             RINEX VERSION / TYPE
teqc 2010Oct21 OPUS Account 20111027 16:35:22UTC            PGM / RUN BY / DATE
P 1524                                                      MARKER NAME
1218                                                        MARKER NUMBER
CSMIDDLETON NGS                                             OBSERVER / AGENCY
0220390624 TRIMBLE R7 2.32                                  REC # / TYPE / VERS
60125046 TRM41249.00 NONE                                   ANT # / TYPE
  -760154.7227 -5532075.6938  3071861.6035                  APPROX POSITION XYZ
        2.0040        0.0000        0.0000                  ANTENNA: DELTA H/E/N
     1     1                                                WAVELENGTH FACT L1/2
     5    L1    L2    C1    P1    P2                        # / TYPES OF OBSERV
    15                                                      LEAP SECONDS
  2011     8    16     0     0   30.0000000     GPS         TIME OF FIRST OBS
                                                            END OF HEADER
 11  8 16  0  0 30.0000000  0  8G10G28G17G12G05G04G09G02
 -39704414.02357 -30069282.66455  21369823.0944                   21369821.5784
-104900038.20756 -80651339.32053  24135879.1724                   24135880.8874
 -88386000.62557 -68825869.87555  22647967.6884                   22647966.4184
 -23525621.04357 -18292858.21955  22567706.7424                   22567705.6524
 -12932914.87957 -10037724.69554  23533367.7974                   23533368.9024
 -70025152.22758 -51158631.70356  20860058.7344                   20860057.6134
 -38246599.50456 -29758073.92254  22854509.6024                   22854509.4104
 -49733078.56258 -38639333.41056  20918787.9774                   20918784.7934
 11  8 16  0  1  0.0000000  0  8G10G28G17G12G05G04G09G02
 -39839756.04347 -30174743.94145  21344068.1724                   21344067.3164
-104892141.51246 -80645186.19943  24137383.0864                   24137384.4344
 -88433201.73047 -68862650.00445  22638985.4924                   22638984.6914
 -23700377.31247 -18429031.89845  22534451.3524                   22534450.0944
 -13128118.98847 -10189831.59444  23496221.5554                   23496223.1454
 -70055426.36748 -51182221.96146  20854297.5864                   20854296.7464
 -38279040.89847 -29783352.97744  22848336.4144                   22848336.3204
 -49848394.69148 -38729190.10946  20896843.9924                   20896840.4534
 11  8 16  0  1 30.0000000  0  8G10G28G17G12G05G04G09G02
 -39974488.35547 -30279730.12145  21318429.7034                   21318428.6724
-104883947.36346 -80638801.29743  24138941.5554                   24138943.8874
 -88480214.55547 -68899283.41845  22630039.0784                   22630038.2034
 -23874808.70347 -18564952.43745  22501257.9924                   22501256.9304
 -13323162.89547 -10341813.65244  23459105.7814                   23459107.0514
 -70085321.18048 -51205516.64146  20848609.2584                   20848608.2504
 -38311002.61746 -29808258.24244  22842253.7734                   22842254.4224
 -49963280.49648 -38818711.48846  20874981.7344                   20874978.1764
 11  8 16  0  2  0.0000000  0  8G10G28G17G12G05G04G09G02
 -40108613.71547 -30384243.34445  21292906.2194                   21292904.9844
-104875462.53145 -80632189.91842  24140555.5554                   24140558.6884
 -88527043.59847 -68935773.60545  22621128.4774                   22621126.9304
 -24048917.21947 -18700621.38345  22468126.6954                   22468124.8244
 -13518049.05147 -10493672.78144  23422020.0164                   23422021.3284
 -70114844.03548 -51228521.47346  20842990.9144                   20842989.5704
 -38342492.68747 -29832795.99644  22836261.8134                   22836261.8284
 -50077741.27048 -38907901.68046  20853200.7424                   20853197.0434
 11  8 16  0  2 30.0000000  0  8G10G28G17G12G05G04G09G02
 -40242132.98847 -30488284.29745  21267498.1414                   21267497.3404
-104866692.33645 -80625356.11742  24142224.2734                   24142228.4184
 -88573691.47347 -68972122.62145  22612251.5864                   22612250.3444
 -24222703.80547 -18836039.47345  22435056.0944                   22435054.3054
 -13712777.28947 -10645408.87544  23384964.5234                   23384965.6414
 -70144000.54748 -51251240.84846  20837442.0394                   20837441.1644
 -38373517.27746 -29856971.05144  22830356.9774                   22830358.1214
 -50191780.93448 -38996763.72746  20831499.5234                   20831496.0784
 11  8 16  0  3  0.0000000  0  8G10G28G17G12G05G04G09G02
 -40375042.87947 -30591850.40645  21242206.6094                   21242205.2774
-104857637.56245 -80618300.54742  24143947.4064                   24143951.4024
 -88620156.58247 -69008329.23045  22603409.6254                   22603408.2424
 -24396164.88747 -18971203.92645  22402047.0944                   22402045.7974
 -13907343.91046 -10797019.02044  23347939.4454                   23347940.8244
 -70172791.95348 -51273675.73446  20831963.7734                   20831962.5354
 -38404078.44147 -29880784.98844  22824542.2974                   22824542.8094
 -50305398.91848 -39085297.19946  20809878.5314                   20809875.1884
 11  8 16  0  3 30.0000000  0  8G10G28G17G12G05G04G09G02
 -40507338.62948 -30694937.96545  21217031.6484                   21217030.3914
-104848297.590 5                  24145724.656
 -88666435.58247 -69044390.80945  22594602.8674                   22594601.6294
 -24569295.13747 -19106110.58645  22369101.4304                   22369100.4774
 -14101743.44947 -10948498.98044  23310945.5084                   23310947.2464
 -70201217.86348 -51295825.80146  20826554.4454                   20826553.6374
 -38434176.93747 -29904238.39544  22818814.0234                   22818814.8244
 -50418593.28548 -39173500.58246  20788338.8444                   20788335.1564
 11  8 16  0  4  0.0000000  0  8G10G28G17G12G05G04G09G02
 -40639017.21947 -30797544.61745  21191973.6804                   21191972.6524
-104838672.988 6                  24147557.539
 -88712526.65647 -69080305.97745  22585831.5784                   22585830.9844
 -24742090.50047 -19240756.29345  22336219.9694                   22336218.5204
 -14295971.18447 -11099845.07444  23273985.7194                   23273986.6564
 -70229279.57048 -51317692.09046  20821214.6174                   20821213.3054
 -38463814.73047 -29927332.82044  22813174.5784                   22813175.1334
 -50531363.39548 -39261373.37546  20766878.8134                   20766875.3524
 11  8 16  0  4 30.0000000  0  8G10G28G17G12G05G04G09G02
 -40770072.44547 -30899665.52745  21167035.2034                   21167033.6374
-104828762.28946 -80615032.69953  24149443.6954                   24149446.1374
 -88758425.44547 -69116071.27745  22577097.8054                   22577096.7734
 -24914544.73047 -19375136.17645  22303402.5474                   22303401.3324
 -14490021.02747 -11251052.54344  23237059.1884                   23237060.3954
 -70256975.79348 -51339273.57446  20815944.0314                   20815942.8794
 -38492991.46947 -29950067.97744  22807622.2814                   22807623.2464
 -50643706.12948 -39348913.13746  20745500.9144                   20745497.6454
 11  8 16  0  5  0.0000000  0  8G10G28G17G12G05G04G09G02
 -40900502.86747 -31001299.58645  21142214.9064                   21142213.4964
-104818568.17246 -80607089.28142  24151384.0234                   24151386.0984
 -88804132.11747 -69151686.88745  22568400.0554                   22568398.9224
 -25086656.15647 -19509248.93445  22270651.1804                   22270649.4414
 -14683890.38747 -11402119.37544  23200166.7194                   23200168.0124
 -70284309.46148 -51360572.55946  20810742.6954                   20810741.5704
 -38521710.40646 -29972446.39844  22802157.7424                   22802158.0824
 -50755622.61748 -39436120.76246  20724204.2274                   20724200.3094
 11  8 16  0  5 30.0000000  0  8G10G28G17G12G05G04G09G02
 -41030310.32448 -31102448.20345  21117513.0554                   21117512.0824
-104808096.14546 -80598929.37142  24153376.0004                   24153378.5084
 -88849649.64547 -69187155.09845  22559738.3914                   22559737.0434
 -25258425.87147 -19643095.44145  22237964.3594                   22237962.8484
 -14877579.89847 -11553046.06244  23163308.7344                   23163309.7304
 -70311286.67248 -51381593.77346  20805609.2114                   20805607.9534
 -38549978.60547 -29994473.59844  22796778.9614                   22796779.0004
 -50867117.43748 -39522999.81646  20702987.0634                   20702983.8874
 11  8 16  0  6  0.0000000  0  8G10G28G17G12G05G04G09G02
 -41159489.53548 -31203107.28145  21092931.0784                   21092929.6724
-104797345.11746 -80590552.04743  24155423.0784                   24155424.9494
 -88894974.76247 -69222473.38344  22551113.3674                   22551112.0704
 -25429848.24647 -19776671.27745  22205343.8834                   22205342.0394
 -15071084.11747 -11703828.37144  23126486.5164                   23126487.0664
 -70337906.70748 -51402336.67646  20800543.4774                   20800542.2154
 -38577796.38746 -30016149.82444  22791484.9844                   22791485.3444
 -50978188.17648 -39609548.42246  20681851.2034                   20681847.8554
 11  8 16  0  6 30.0000000  0  8G10G28G17G12G05G04G09G02
 -41288039.96948 -31303276.40245  21068468.4534                   21068467.3484
-104786318.68046 -80581960.10942  24157520.8834                   24157523.4224
 -88940108.02047 -69257642.18045  22542524.5314                   22542523.3834
 -25600921.98447 -19909975.45745  22172789.6484                   22172788.1214
 -15264400.89847 -11854464.64144  23089699.3914                   23089699.7544
 -70364173.39548 -51422804.23846  20795544.9454                   20795543.7974
 -38605168.39547 -30037478.68444  22786276.3984                   22786277.0554
 -51088836.77748 -39695768.08246  20660795.2734                   20660791.8914
 11  8 16  0  7  0.0000000  0  8G10G28G17G12G05G04G09G02
 -41415952.16047 -31402948.20345  21044127.7584                   21044126.4804
-104775010.98046 -80573149.02043  24159673.0004                   24159675.4654
 -88985041.37547 -69292655.20345  22533974.1884                   22533972.8594
 -25771637.10547 -20043000.19145  22140303.4144                   22140302.0944
 -15457519.93447 -12004946.82844  23052949.0634                   23052950.2894
 -70390081.68448 -51442992.53546  20790614.9844                   20790614.0944
 -38632090.27047 -30058456.80144  22781152.7894                   22781153.9414
 -51199056.13748 -39781653.27046  20639821.0634                   20639817.5864
 11  8 16  0  7 30.0000000  0  8G10G28G17G12G05G04G09G02
 -41543229.35947 -31502125.19545  21019907.1884                   21019906.4264
-104763429.44546 -80564124.57043  24161876.5634                   24161879.3484
 -89029779.40647 -69327516.01245  22525460.7344                   22525459.1214
 -25941995.74647 -20175747.14845  22107885.3204                   22107883.7194
 -15650443.71547 -12155276.86344  23016237.2274                   23016237.8484
 -70415638.76648 -51462907.15646  20785751.6564                   20785750.2234
 -38658570.27047 -30079090.59444  22776114.6484                   22776115.2624
 -51308852.42248 -39867208.78946  20618927.6804                   20618924.0474
 11  8 16  0  8  0.0000000  0  8G10G28G17G12G05G04G09G02
 -41669870.18747 -31600806.32845  20995808.5164                   20995807.4494
-104751576.86345 -80554888.95743  24164131.1724                   24164135.2114
 -89074322.01247 -69362224.55545  22516984.4844                   22516982.8634
 -26111996.46947 -20308215.20345  22075535.6724                   22075533.2074
 -15843169.75047 -12305452.80944  22979562.2424                   22979563.5904
 -70440847.82048 -51482550.58646  20780954.5704                   20780953.2774
 -38684612.12947 -30099382.99644  22771158.5864                   22771159.4964
 -51418226.88348 -39952435.62146  20598114.6484                   20598110.9454
 11  8 16  0  8 30.0000000  0  8G10G28G17G12G05G04G09G02
 -41795877.37147 -31698993.70345  20971830.2274                   20971829.1454
-104739459.45345 -80545446.93042  24166438.2114                   24166440.6684
 -89118673.37147 -69396784.06644  22508544.7584                   22508543.5784
 -26281641.37147 -20440406.01245  22043252.8054                   22043250.6644
 -16035700.05147 -12455476.23844  22942925.1724                   22942926.1294
 -70465715.90248 -51501928.33646  20776222.3984                   20776220.4694
 -38710224.12947 -30119340.44144  22766285.4144                   22766285.6174
 -51527184.93748 -40037337.98046  20577380.5164                   20577376.5824
 11  8 16  0  9  0.0000000  0  8G10G28G17G12G05G04G09G02
 -41921237.69547 -31796677.03545  20947975.2734                   20947974.1374
-104727068.32445 -80535791.75042  24168796.6254                   24168799.8014
 -89162821.60947 -69431185.32044  22500144.0554                   22500142.5164
 -26450916.27047 -20572308.48045  22011040.9534                   22011039.1414
 -16228019.76647 -12605335.58244  22906327.6334                   22906328.7624
 -70490234.13748 -51521033.46546  20771556.6644                   20771555.5124
 -38735397.95747 -30138956.44944  22761494.8054                   22761495.3054
 -51635716.05948 -40121907.65246  20556727.7274                   20556723.8094
 11  8 16  0  9 30.0000000  0  7G10G17G12G05G04G09G02
 -40470527.39147 -30666253.39545  21224036.1954                   21224034.9144
 -87631346.97747 -68237828.49645  22791573.6724                   22791572.5864
 -25044395.69547 -19476318.38745  22278692.6954                   22278691.0514
 -14844702.31247 -11527425.71144  23169563.7584                   23169564.5234
 -68938986.33248 -50312268.95746  21066749.4144                   21066747.9344
 -37184718.82446 -28930635.07844  23056578.7584                   23056580.0204
 -50168399.75048 -38978544.27746  20835948.8524                   20835945.0274
 11  8 16  0 10  0.0000000  0  7G10G17G12G05G04G09G02
 -40594599.14847 -30762932.64545  21200425.5704                   21200424.4304
 -87675098.30947 -68271920.46945  22783248.4454                   22783246.7194
 -25212934.41447 -19607647.22345  22246620.7974                   22246619.4614
 -15036603.55147 -11676958.99644  23133046.2584                   23133047.1914
 -68962822.79748 -50330842.83245  21062213.3834                   21062212.3094
 -37209037.28547 -28949584.58244  23051951.2974                   23051952.6644
 -50276089.89148 -39062458.64546  20815455.5554                   20815452.2424
 11  8 16  0 10 30.0000000  0  7G10G17G12G05G04G09G02
 -40718014.03948 -30859100.06645  21176940.5634                   21176939.5044
 -87718640.25447 -68305849.29744  22774962.8834                   22774961.1254
 -25381090.80947 -19738678.14545  22214622.2734                   22214620.1134
 -15228280.94147 -11826317.85244  23096571.4774                   23096571.7584
 -68986311.96948 -50349146.09845  21057743.5314                   21057742.4884
 -37232923.06247 -28968196.92244  23047406.2194                   23047406.8164
 -50383350.51248 -39146038.32846  20795044.8054                   20795040.7274
 11  8 16  0 11  0.0000000  0  7G10G17G12G05G04G09G02
 -40840765.94547 -30954750.87145  21153581.8054                   21153580.8364
 -87761968.10247 -68339611.28944  22766717.3284                   22766716.2194
 -25548858.37547 -19869406.09045  22182696.9614                   22182695.3054
 -15419727.35547 -11975496.72344  23060140.2664                   23060140.9534
 -69009451.78148 -50367177.14146  21053340.3134                   21053339.0514
 -37256375.35247 -28986471.46544  23042942.9614                   23042943.7664
 -50490178.64148 -39229281.01646  20774716.4844                   20774712.4224
 11  8 16  0 11 30.0000000  0  7G10G17G12G05G04G09G02
 -40962850.97747 -31049882.03145  21130349.7664                   21130348.6484
 -87805078.75847 -68373204.05945  22758513.6954                   22758512.5514
 -25716232.10547 -19999827.14845  22150846.2424                   22150844.5354
 -15610937.60947 -12124491.58244  23023754.0864                   23023754.7504
 -69032242.24248 -50384935.95345  21049003.1414                   21049001.7704
 -37279394.88347 -29004408.82444  23038562.6884                   23038563.2584
 -50596572.33648 -39312185.16446  20754470.2344                   20754466.2074
 11  8 16  0 12  0.0000000  0  7G10G17G12G05G04G09G02
 -41084268.93447 -31144493.40645  21107244.6094                   21107243.8594
 -87847973.23447 -68406628.35545  22750351.2664                   22750350.2734
 -25883211.08647 -20129940.59845  22119071.7114                   22119069.6954
 -15801910.55947 -12273301.51644  22987412.7424                   22987413.7034
 -69054687.41848 -50402425.70745  21044732.2114                   21044730.6214
 -37301986.60547 -29022012.81644  23034263.5784                   23034264.3714
 -50702533.85548 -39394752.57046  20734306.0314                   20734302.0554
 11  8 16  0 12 30.0000000  0  7G10G17G12G05G04G09G02
 -41205021.29348 -31238586.10945  21084266.5004                   21084265.4024
 -87890654.53547 -68439886.55545  22742229.4454                   22742228.4024
 -26049795.95747 -20259746.96145  22087371.5864                   22087370.1134
 -15992646.61747 -12421926.86344  22951116.7734                   22951117.2504
 -69076793.30548 -50419651.08246  21040525.4694                   21040524.1844
 -37324157.60547 -29039288.99244  23030045.7344                   23030045.5434
 -50808067.67648 -39476986.69146  20714223.9694                   20714220.0704
 11  8 16  0 13  0.0000000  0  7G10G17G12G05G04G09G02
 -41325105.70747 -31332158.35545  21061415.8444                   21061413.4224
 -87933121.18447 -68472977.46945  22734148.6804                   22734147.3054
 -26215983.55547 -20389243.75845  22055747.3134                   22055745.2034
 -16183141.69547 -12570364.43444  22914867.0864                   22914867.1054
 -69098560.87548 -50436612.83645  21036383.4534                   21036381.9734
 -37345909.80947 -29056238.80144  23025905.3594                   23025906.6174
 -50913173.52348 -39558887.33646  20694222.8674                   20694218.6374
 11  8 16  0 13 30.0000000  0  7G10G17G12G05G04G09G02
 -41444523.85247 -31425211.42645  21038690.1334                   21038689.3204
 -87975375.77746 -68505903.17244  22726107.2814                   22726106.8324
 -26381774.77047 -20518431.69945  22024197.9144                   22024196.3324
 -16373396.30547 -12718614.64844  22878662.4304                   22878662.7304
 -69119996.42648 -50453315.87945  21032304.4224                   21032303.2344
 -37367250.24247 -29072867.77744  23021844.7504                   23021845.9344
 -51017855.77748 -39640457.90646  20674302.4534                   20674298.4964
 11  8 16  0 14  0.0000000  0  7G10G17G12G05G04G09G02
 -41563273.39148 -31517743.50845  21016093.2424                   21016091.8674
 -88017417.18447 -68538662.73844  22718107.1024                   22718106.2424
 -26547166.05947 -20647308.00845  21992725.1024                   21992723.1804
 -16563406.66847 -12866674.52345  22842504.5004                   22842505.4804
 -69141101.10248 -50469761.09445  21028288.5474                   21028287.4064
 -37388181.40247 -29089177.82044  23017861.9144                   23017862.5594
 -51122114.43448 -39721698.40246  20654462.9224                   20654458.7974
 11  8 16  0 14 30.0000000  0  7G10G17G12G05G04G09G02
 -41681351.06247 -31609752.05145  20993623.8054                   20993622.6134
 -88059243.22347 -68571254.48844  22710147.7424                   22710147.0864
 -26712153.49647 -20775869.61745  21961328.6954                   21961326.9024
 -16753168.14547 -13014540.48444  22806393.7584                   22806394.0744
 -69161875.93748 -50485949.28545  21024334.9774                   21024334.0594
 -37408705.24247 -29105170.50844  23013955.8444                   23013957.3324
 -51225948.71948 -39802608.22346  20634703.3674                   20634699.4414
 11  8 16  0 15  0.0000000  0  7G10G17G12G05G04G09G02
 -41798757.80147 -31701237.78946  20971281.9384                   20971280.3714
 -88100855.69947 -68603679.82444  22702229.3204                   22702228.5164
 -26876736.87947 -20904116.39145  21930009.5554                   21930008.1524
 -16942680.53147 -13162212.33245  22770330.3204                   22770331.0164
 -69182325.69948 -50501884.18746  21020443.2584                   21020442.1644
 -37428827.39147 -29120850.18044  23010127.1564                   23010128.0004
 -51329362.02048 -39883189.99646  20615024.2504                   20615020.8164
 11  8 16  0 15 30.0000000  0  7G10G17G12G05G04G09G02
 -41915497.54347 -31792203.80145  20949067.3364                   20949065.5004
 -88142259.88347 -68635942.85944  22694350.7424                   22694349.5274
 -27040919.54747 -21032050.91845  21898766.9614                   21898764.9064
 -17131946.43047 -13309692.10944  22734314.6334                   22734314.9734
 -69202458.41848 -50517572.02745  21016612.3914                   21016611.1914
 -37448557.23447 -29136224.16844  23006373.1954                   23006373.3404
 -51432360.89148 -39963448.84046  20595424.6334                   20595421.0084
 11  8 16  0 16  0.0000000  0  7G10G17G12G05G04G09G02
 -42031561.88347 -31882643.51645  20926980.8364                   20926979.0664
 -88183448.09847 -68668037.57045  22686513.0314                   22686511.3284
 -27204691.57447 -21159665.46945  21867602.2114                   21867600.3594
 -17320956.07047 -13456972.22344  22698346.9454                   22698347.7234
 -69222269.30948 -50533009.09445  21012842.6254                   21012841.4454
 -37467890.78946 -29151289.33644  23002693.9454                   23002694.5634
 -51534938.99248 -40043379.81246  20575904.6954                   20575900.6054
 11  8 16  0 16 30.0000000  0  7G10G17G12G05G04G09G02
 -42146950.67648 -31972556.82845  20905023.1024                   20905021.2274
 -88224421.10547 -68699964.59844  22678715.8284                   22678714.6334
 -27368051.91847 -21286959.23045  21836515.7274                   21836513.9924
 -17509707.69547 -13604051.28145  22662428.7504                   22662429.2504
 -69241762.03148 -50548198.24645  21009133.2894                   21009132.0394
 -37486832.68747 -29166049.32844  22999089.3754                   22999089.8874
 -51637098.43448 -40122984.55146  20556464.5084                   20556460.3284
 11  8 16  0 17  0.0000000  0  7G10G17G12G05G04G09G02
 -42261663.44547 -32061943.37945  20883193.8914                   20883192.3594
 -88265179.31247 -68731724.26644  22670959.2504                   22670958.7664
 -27530998.99247 -21413930.94545  21805507.3524                   21805506.2114
 -17698199.22747 -13750927.67644  22626560.2974                   22626560.4414
 -69260939.82448 -50563141.98845  21005483.6954                   21005482.5044
 -37505387.30547 -29180507.55144  22995558.3674                   22995559.4734
 -51738841.29348 -40202264.68446  20537103.3594                   20537099.5354
 11  8 16  0 17 30.0000000  0  7G10G17G12G05G04G09G02
 -42375699.93048 -32150802.94945  20861493.3284                   20861492.1994
 -88305723.07847 -68763316.80544  22663244.3594                   22663243.0004
 -27693531.39547 -21540579.55145  21774579.0784                   21774576.9024
 -17886428.72747 -13897599.88745  22590741.3914                   22590741.5904
 -69279806.28548 -50577843.14145  21001893.4304                   21001892.0204
 -37523559.25047 -29194667.57444  22992101.0394                   22992101.4964
 -51840169.48848 -40281221.70746  20517821.5864                   20517817.4264
 11  8 16  0 18  0.0000000  0  7G10G17G12G05G04G09G02
 -40913634.47347 -31011531.13345  21139715.1024                   21139713.8244
 -86770630.41847 -67567140.71944  22955363.4454                   22955361.1804
 -26280220.56647 -20439298.35545  22043522.9064                   22043521.3874
 -16498966.99247 -12816460.75844  22854765.8284                   22854766.3524
 -67722942.67648 -49364702.67645  21298154.8914                   21298153.4804
 -35965931.13747 -27980931.47344  23288507.3984                   23288508.4104
 -50365660.05948 -39132253.29746  20798410.9924                   20798407.4694
 11  8 16  0 18 30.0000000  0  7G10G17G12G05G04G09G02
 -41026312.73048 -31099332.34845  21118273.2114                   21118271.9454
 -86810742.62947 -67598397.00044  22947730.1254                   22947728.6214
 -26441914.84447 -20565293.88345  22012753.5634                   22012751.8014
 -16686662.56647 -12962716.92645  22819048.4694                   22819049.1054
 -67741191.64148 -49378922.66845  21294681.7814                   21294680.8284
 -35983346.59447 -27994502.03544  23285193.4384                   23285194.1994
 -50466160.34448 -39210565.19146  20779286.7344                   20779282.6134
 11  8 16  0 19  0.0000000  0  7G10G17G12G05G04G09G02
 -41138310.31648 -31186603.17645  21096960.5634                   21096959.3714
 -86850638.82847 -67629484.96544  22940137.8594                   22940136.8284
 -26603186.65647 -20690960.20745  21982064.7194                   21982062.8524
 -16874087.15647 -13108761.93445  22783383.0164                   22783383.2234
 -67759136.00848 -49392905.29345  21291267.5864                   21291266.5594
 -36000389.58647 -28007782.36744  23281950.7034                   23281951.2114
 -50566248.53548 -39288555.96546  20760240.4614                   20760236.2344
 11  8 16  0 19 30.0000000  0  7G10G17G12G05G04G09G02
 -41249625.18748 -31273342.01645  21075778.7504                   21075777.2074
 -86890317.57447 -67660403.47744  22932587.6094                   22932586.3204
 -26764032.45347 -20816294.55545  21951456.5554                   21951454.8134
 -17061237.00047 -13254592.85245  22747769.4924                   22747769.8754
 -67776777.19147 -49406651.68745  21287910.3284                   21287909.4774
 -36017062.62547 -28020774.40644  23278778.0084                   23278778.5514
 -50665924.91848 -39366225.84846  20741272.5864                   20741268.2854
 11  8 16  0 20  0.0000000  0  7G10G17G12G05G04G09G02
 -41360255.37147 -31359547.32845  21054726.1884                   21054724.8794
 -86929777.73047 -67691151.67644  22925078.3984                   22925077.5824
 -26924449.87547 -20941295.10545  21920930.1954                   21920928.9184
 -17248109.11347 -13400207.37145  22712208.8914                   22712208.9734
 -67794117.09447 -49420163.30945  21284610.7194                   21284609.7814
 -36033368.69147 -28033480.50044  23275674.9144                   23275675.4064
 -50765189.31248 -39443574.70746  20722383.1644                   20722379.1604
 11  8 16  0 20 30.0000000  0  7G10G17G12G05G04G09G02
 -41470199.19547 -31445217.81245  21033804.1644                   21033803.0474
 -86969018.03147 -67721728.55944  22917610.9614                   22917609.6644
 -27084435.62547 -21065959.28945  21890485.9064                   21890484.1844
 -17434699.69147 -13545602.50845  22676701.8914                   22676701.9224
 -67811157.54747 -49433441.59445  21281368.4534                   21281366.6884
 -36049310.85946 -28045903.04744  23272641.2274                   23272642.0164
 -50864042.89848 -39520603.45346  20703571.9144                   20703568.1214
 11  8 16  0 21  0.0000000  0  7G10G17G12G05G04G09G02
 -41579448.18747 -31530346.87945  21013014.6954                   21013013.5514
 -87008031.11347 -67752128.39544  22910187.3594                   22910186.5434
 -27243979.96947 -21190279.53545  21860125.9064                   21860123.9614
 -17620998.68047 -13690770.43045  22641250.3674                   22641250.0984
 -67827893.50047 -49446482.60545  21278183.2584                   21278182.2424
 -36064885.03547 -28058038.84844  23269677.7814                   23269679.0234
 -50962479.22348 -39597307.06646  20684840.2664                   20684836.0554
 11  8 16  0 21 30.0000000  0  7G10G17G12G05G04G09G02
 -41688012.49247 -31614942.41445  20992355.4454                   20992354.3524
 -87046827.91846 -67782359.70344  22902804.0944                   22902803.4804
 -27403091.93747 -21314262.84445  21829847.5634                   21829846.0084
 -17807013.96147 -13835717.28545  22605852.4694                   22605853.0044
 -67844338.68748 -49459297.04745  21275053.8134                   21275053.1804
 -36080106.05547 -28069899.44944  23266780.7114                   23266782.0664
 -51060510.51648 -39673695.06246  20666185.5314                   20666181.2664
 11  8 16  0 22  0.0000000  0  7G10G17G12G05G04G09G02
 -41795884.33247 -31698998.37145  20971828.4224                   20971827.0394
 -87085400.75447 -67812416.49644  22895463.9454                   22895463.2384
 -27561762.27747 -21437902.03146  21799654.0084                   21799651.7274
 -17992736.77347 -13980436.23045  22570510.2974                   22570510.6604
 -67860488.82447 -49471881.58245  21271980.9924                   21271979.6174
 -36094970.91047 -28081482.52344  23263952.5634                   23263953.2344
 -51158131.21948 -39749763.12546  20647608.7734                   20647604.9614
 11  8 16  0 22 30.0000000  0  7G10G17G12G05G04G09G02
 -41903070.41447 -31782519.97745  20951431.7894                   20951430.9024
 -87123756.65647 -67842304.25844  22888165.3134                   22888164.4414
 -27719996.04347 -21561201.03545  21769543.2034                   21769540.9144
 -18178171.38347 -14124930.60945  22535223.7504                   22535223.5514
 -67876353.62947 -49484243.77345  21268961.6174                   21268960.5904
 -36109490.50446 -28092796.55944  23261189.8284                   23261190.7854
 -51255349.83648 -39825517.87146  20629108.5704                   20629104.6724
 11  8 16  0 23  0.0000000  0  8G10G25G17G12G05G04G09G02
 -42009561.55947 -31865500.06645  20931167.0784                   20931165.6564
   2870055.70756   2273072.11753  24626519.7734                   24626521.3594
 -87161887.78147 -67872016.85244  22880909.7504                   22880908.6604
 -27877782.87147 -21684151.77345  21739516.6024                   21739514.6684
 -18363306.88747 -14269191.91445  22499993.3914                   22499993.0864
 -67891927.41848 -49496379.20345  21265998.6484                   21265997.6564
 -36123660.52347 -28103838.19144  23258493.3984                   23258494.5274
 -51352159.33248 -39900953.82846  20610686.3914                   20610682.7274
 11  8 16  0 23 30.0000000  0  8G10G25G17G12G05G04G09G02
 -42115364.88348 -31947944.18045  20911033.3284                   20911032.2234
   2679646.12546   2124701.09043  24590284.9064                   24590288.0394
 -87199801.60947 -67901560.13744  22873694.8054                   22873693.8524
 -28035128.55147 -21806758.76245  21709575.0314                   21709572.8134
 -18548149.16047 -14413224.73045  22464818.8594                   22464818.9734
 -67907220.78148 -49508296.12545  21263087.7894                   21263086.7814
 -36137492.45346 -28114616.40244  23255861.0394                   23255862.4184
 -51448568.98848 -39976078.21546  20592339.9694                   20592336.0904
 11  8 16  0 24  0.0000000  0  8G10G25G17G12G05G04G09G02
 -42220486.60948 -32029857.19545  20891029.5164                   20891028.1214
   2489412.68446   1976467.27342  24554084.7424                   24554088.0944
 -87237504.77747 -67930939.27344  22866520.3054                   22866519.0204
 -28192038.18047 -21929025.97345  21679716.3054                   21679714.2624
 -18732702.42647 -14557032.34445  22429699.0944                   22429699.4104
 -67922243.75048 -49520002.34045  21260229.3754                   21260228.3554
 -36150997.59046 -28125139.93444  23253290.4144                   23253292.1844
 -51544587.42648 -40050897.76246  20574068.5474                   20574064.3914
 11  8 16  0 24 30.0000000  0  8G10G25G17G12G05G04G09G02
 -42324925.78148 -32111238.33246  20871154.4384                   20871154.1724
   2299358.33646   1828373.07043  24517918.5314                   24517921.7504
 -87274996.99247 -67960154.01244  22859385.7114                   22859384.6024
 -28348509.05947 -22050951.30945  21649940.4774                   21649938.8164
 -18916963.18447 -14700612.04345  22394635.5394                   22394635.8594
 -67936998.25848 -49531499.36745  21257421.5864                   21257420.1804
 -36164178.88347 -28135411.13743  23250782.7734                   23250783.7814
 -51640215.34048 -40125413.00446  20555870.8834                   20555867.1174
 11  8 16  0 25  0.0000000  0  8G10G25G17G12G05G04G09G02
 -42428674.85548 -32192081.75045  20851412.3914                   20851410.9184
   2109491.84046   1680425.18843  24481789.2274                   24481791.3204
 -87312270.69946 -67989198.49244  22852292.6804                   22852292.0904
 -28504532.43047 -22172527.93446  21620250.1094                   21620248.4654
 -19100922.31247 -14843956.70345  22359629.2584                   22359629.4924
 -67951480.07447 -49542783.91845  21254665.8284                   21254664.4654
 -36177033.52746 -28145427.81244  23248336.7344                   23248338.0594
 -51735447.47348 -40199619.84446  20537749.2424                   20537745.1374
 11  8 16  0 25 30.0000000  0  8G10G25G17G12G05G04G09G02
 -42531732.01648 -32272386.00845  20831801.7584                   20831799.9384
   1919816.41446   1532626.19143  24445695.1174                   24445697.4654
 -87349324.93446 -68018071.94944  22845241.1484                   22845240.8554
 -28660104.95347 -22293753.25045  21590645.4844                   21590643.5664
 -19284576.33647 -14987063.61745  22324680.8914                   22324680.8284
 -67965690.51648 -49553857.00845  21251961.7274                   21251960.4844
 -36189563.89147 -28155191.78944  23245952.3914                   23245953.9304
 -51830283.98448 -40273518.40646  20519701.9844                   20519698.3364
 11  8 16  0 26  0.0000000  0  8G10G25G17G12G05G04G09G02
 -42634096.12147 -32352150.21946  20812322.2814                   20812320.4964
   1730334.53146   1384977.97343  24409637.8914                   24409640.3954
 -87386159.18746 -68046774.00844  22838232.5394                   22838231.2734
 -28815224.02347 -22414625.23045  21561127.6174                   21561125.6804
 -19467922.02047 -15129930.26645  22289791.7194                   22289791.1414
 -67979632.03147 -49564720.53145  21249308.9224                   21249307.6804
 -36201773.71547 -28164706.01244  23243629.5634                   23243630.4534
 -51924725.83248 -40347109.44546  20501730.2814                   20501726.3404
 11  8 16  0 26 30.0000000  0  8G10G25G17G12G05G04G09G02
 -42735769.30148 -32431376.05545  20792974.1094                   20792972.6174
   1541045.77746   1237480.30143  24373617.7894                   24373619.8984
 -87422775.71547 -68075306.40244  22831264.1414                   22831263.7274
 -28969890.00847 -22535144.16046  21531695.7194                   21531693.8914
 -19650959.67247 -15272556.89845  22254960.0784                   22254959.7074
 -67993309.46147 -49575378.28545  21246705.9774                   21246704.9264
 -36213669.18746 -28173975.26244  23241365.2194                   23241366.6724
 -52018776.66448 -40420395.79346  20483833.3834                   20483829.1294
 11  8 16  0 27  0.0000000  0  8G10G25G17G12G05G04G09G02
 -42836751.29747 -32510063.28945  20773757.9064                   20773756.8324
   1351951.99647   1090134.54343  24337634.8134                   24337636.4494
 -87459174.41047 -68103669.06244  22824338.2814                   22824336.6994
 -29124101.22347 -22655308.72746  21502349.9924                   21502348.0664
 -19833686.63747 -15414941.43445  22220188.5164                   22220188.1954
 -68006725.78547 -49585832.58245  21244153.0634                   21244152.2424
 -36225254.40646 -28183002.75443  23239161.2344                   23239161.4184
 -52112438.57048 -40493379.08246  20466009.7114                   20466006.2344
 11  8 16  0 27 30.0000000  0  8G10G25G17G12G05G04G09G02
 -41361614.59448 -31360606.09845  21054467.2894                   21054465.9264
   2738485.24647   2170550.12544  24601482.5864                   24601484.8204
 -85919930.52746 -66904258.27344  23117246.2274                   23117245.0984
 -27702427.09847 -21547510.67646  21772885.7814                   21772884.1174
 -18440670.51247 -14329474.20745  22485270.6564                   22485270.1454
 -66444459.34047 -48368482.13345  21541442.6174                   21541441.0784
 -34661109.23446 -26964188.39543  23536807.8284                   23536808.5234
 -50630285.82048 -39338454.84446  20748054.0474                   20748050.1914
 11  8 16  0 28  0.0000000  0  8G10G25G17G12G05G04G09G02
 -41461207.35248 -31438210.82445  21035515.2344                   21035513.5474
   2549793.25847   2023517.47344  24565576.1094                   24565578.1564
 -85955887.97746 -66932277.09444  23110403.6954                   23110402.5554
 -27855717.44547 -21666957.68046  21743715.2034                   21743713.3984
 -18622763.02747 -14471364.38345  22450619.5084                   22450619.5434
 -66457355.43048 -48378531.05545  21538988.3444                   21538987.3484
 -34672079.79746 -26972736.96143  23534720.1334                   23534721.2034
 -50723168.16848 -39410830.68446  20730379.5864                   20730375.3634
 11  8 16  0 28 30.0000000  0  8G10G25G17G12G05G04G09G02
 -41560102.94547 -31515272.30545  21016696.0944                   21016694.6884
   2361307.06646   1876645.19943  24529708.3524                   24529710.2934
 -85991622.29346 -66960122.02744  23103604.0234                   23103603.2074
 -28008542.00047 -21786041.72346  21714634.2114                   21714632.2074
 -18804532.71147 -14613002.98045  22416029.6174                   22416029.7344
 -66469993.52048 -48388378.93445  21536583.5474                   21536582.1454
 -34682746.91846 -26981049.05544  23532690.4844                   23532691.8094
 -50815661.12948 -39482903.10946  20712778.8594                   20712774.3204
 11  8 16  0 29  0.0000000  0  8G10G25G17G12G05G04G09G02
 -41658301.07848 -31591790.30945  20998009.5704                   20998008.0944
   2173028.66447   1729934.82044  24493879.8204                   24493881.6334
 -86027133.95746 -66987793.48044  23096846.0784                   23096845.6094
 -28160899.23847 -21904761.62546  21685641.3134                   21685639.3204
 -18985977.33647 -14754388.29745  22381501.6414                   22381501.4534
 -66482376.41847 -48398027.96545  21534227.4224                   21534226.2934
 -34693114.95346 -26989128.11743  23530717.8284                   23530718.3284
 -50907766.07448 -39554673.18446  20695251.5634                   20695247.5234
 11  8 16  0 29 30.0000000  0  8G10G25G17G12G05G04G09G02
 -41755798.03948 -31667761.94545  20979456.4384                   20979455.2854
   1984963.14546   1583390.34044  24458091.9534                   24458093.6374
 -86062419.61346 -67015288.80544  23090131.5394                   23090131.0704
 -28312783.87547 -22023113.26645  21656738.5864                   21656736.0864
 -19167090.94947 -14895515.68745  22347036.6804                   22347036.6804
 -66494503.50848 -48407477.66045  21531919.9064                   21531918.2854
 -34703184.49246 -26996974.56643  23528801.1644                   23528802.0474
 -50999481.60548 -39626139.81646  20677798.5864                   20677794.5394
 11  8 16  0 30  0.0000000  0  8G10G25G17G12G05G04G09G02
 -41852602.06248 -31743193.62145  20961034.8754                   20961033.7274
   1797104.18846   1437006.82043  24422343.5394                   24422345.3834
 -86097487.64546 -67042614.55944  23083458.3054                   23083457.2464
 -28464202.73848 -22141101.96546  21627924.5314                   21627922.6054
 -19347879.66047 -15036389.91845  22312633.8594                   22312633.4774
 -66506385.86748 -48416736.66445  21529658.2584                   21529657.1294
 -34712967.76646 -27004597.94943  23526939.4144                   23526940.8874
 -51090817.65648 -39697310.75046  20660417.6954                   20660414.0234
 11  8 16  0 30 30.0000000  0  8G10G25G17G12G05G04G09G02
 -41948709.16047 -31818082.25445  20942746.4844                   20942745.0704
   1609457.86746   1290788.97743  24386635.3594                   24386637.6414
 -86132333.74246 -67069767.37944  23076827.6174                   23076826.2464
 -28615149.89147 -22258723.09045  21599200.1644                   21599198.2384
 -19528337.01647 -15177005.93045  22278294.0554                   22278293.9024
 -66518022.09847 -48425803.86745  21527443.9534                   21527442.8954
 -34722464.60246 -27011998.14144  23525132.8054                   23525133.9344
 -51181771.46548 -39768183.83646  20643109.6644                   20643106.0704
 11  8 16  0 31  0.0000000  0  8G10G25G17G12G05G04G09G02
 -42044118.00848 -31892426.78545  20924590.8674                   20924589.5204
   1422027.27346   1144739.22343  24350968.1884                   24350970.5314
 -86166956.91046 -67096746.47744  23070238.3054                   23070238.0594
 -28765622.01648 -22375974.06246  21570566.2504                   21570564.1914
 -19708459.70347 -15317361.15645  22244017.9064                   22244017.6804
 -66529413.69548 -48434680.45345  21525276.2974                   21525275.2304
 -34731677.96946 -27019177.45344  23523379.3754                   23523380.7464
 -51272343.75048 -39838759.62946  20625874.5314                   20625871.1374
 11  8 16  0 31 30.0000000  0  8G10G25G17G12G05G04G09G02
 -42138826.20748 -31966225.36745  20906568.2114                   20906567.0664
   1234816.59446    998860.87143  24315343.5944                   24315345.7074
 -86201355.02747 -67123550.23844  23063692.7734                   23063692.2774
 -28915614.87948 -22492851.59446  21542023.3284                   21542021.4774
 -19888242.90647 -15457451.86345  22209806.1564                   22209805.4964
 -66540561.04348 -48443366.71545  21523154.9774                   21523153.9694
 -34740609.49647 -27026137.14144  23521680.1024                   23521681.1644
 -51362533.63748 -39909037.44546  20608711.7344                   20608708.0904
 11  8 16  0 32  0.0000000  0  8G10G25G17G12G05G04G09G02
 -42232837.55547 -32039480.93745  20888678.5944                   20888677.3794
   1047823.98846    853152.41843  24279760.0864                   24279761.8164
 -86235531.84047 -67150181.52344  23057189.5634                   23057188.4184
 -29065130.54747 -22609357.27346  21513571.7344                   21513569.6214
 -20067688.18747 -15597279.24245  22175658.4144                   22175658.1844
 -66551470.86348 -48451867.89845  21521078.9924                   21521078.0164
 -34749267.10947 -27032883.42643  23520032.1954                   23520033.6254
 -51452346.66448 -39979021.60946  20591621.2274                   20591617.1414
 11  8 16  0 32 30.0000000  0  8G10G25G17G12G05G04G09G02
 -42326143.96548 -32112187.20345  20870923.0394                   20870921.9534
    861059.41046    707621.63743  24244219.5234                   24244221.9614
 -86269479.18047 -67176634.02344  23050728.6174                   23050728.7664
 -29214159.42647 -22725483.64145  21485212.3594                   21485210.5784
 -20246784.93047 -15736835.04745  22141578.0164                   22141577.5514
 -66562137.57847 -48460179.64145  21519049.2814                   21519048.1524
 -34757646.82446 -27039413.12144  23518437.6484                   23518439.0084
 -51541776.71148 -40048707.34446  20574603.0944                   20574599.4024
 11  8 16  0 33  0.0000000  0  8G10G25G17G12G05G04G09G02
 -42418753.25847 -32184350.28146  20853300.1484                   20853298.7974
    674517.18446    562264.11743  24208721.8984                   24208723.7034
 -86303205.07847 -67202913.96144  23044311.7734                   23044311.3364
 -29362707.20747 -22841235.14145  21456944.8444                   21456942.5744
 -20425539.07047 -15876123.88745  22107561.6024                   22107561.4734
 -66572571.87147 -48468310.28145  21517063.8134                   21517062.4454
 -34765760.49647 -27045735.54344  23516893.2584                   23516895.0274
 -51630833.19947 -40118101.98846  20557656.3364                   20557652.3164
 11  8 16  0 33 30.0000000  0  8G10G25G17G12G05G04G09G02
 -42510665.70347 -32255970.35546  20835809.9614                   20835808.4774
    488198.59446    417080.82043  24173266.4694                   24173268.8204
 -86336710.01647 -67229021.72744  23037935.9614                   23037935.1254
 -29510772.72747 -22956610.84446  21428768.5864                   21428766.7664
 -20603948.32847 -16015143.98845  22073611.6174                   22073611.5514
 -66582776.69947 -48476262.11745  21515121.6414                   21515120.7664
 -34773612.45246 -27051854.02144  23515400.0234                   23515401.3484
 -51719518.08248 -40187207.07046  20540780.0004                   20540776.2384
 11  8 16  0 34  0.0000000  0  8G10G25G17G12G05G04G09G02
 -42601876.36747 -32327043.56645  20818452.6484                   20818451.3524
    302111.03147    272077.53543  24137855.1724                   24137856.8244
 -86369988.85947 -67254953.30544  23031603.5234                   23031602.7464
 -29658349.17247 -23071605.44946  21400686.1884                   21400683.6254
 -20782005.15647 -16153889.45345  22039728.1484                   22039727.8444
 -66592749.50447 -48484033.15645  21513224.0704                   21513222.8674
 -34781201.40246 -27057767.55944  23513955.8364                   23513957.0594
 -51807827.77747 -40256019.80146  20523975.4694                   20523971.3324
 11  8 16  0 34 30.0000000  0  8G10G25G17G12G05G04G09G02
 -42692389.43447 -32397573.23045  20801229.0944                   20801227.3634
    116252.25447    127252.62143  24102487.0634                   24102489.4574
 -86403045.51246 -67280711.74244  23025312.8134                   23025312.3054
 -29805438.77747 -23186220.70346  21372695.7734                   21372693.4414
 -20959711.65647 -16292361.96145  22005911.9384                   22005911.0514
 -66602497.30947 -48491628.86745  21511369.0084                   21511368.1724
 -34788535.91846 -27063482.84443  23512559.8834                   23512561.5434
 -51895767.92648 -40324544.57446  20507240.9064                   20507237.1644
 11  8 16  0 35  0.0000000  0  8G10G25G17G12G05G04G09G02
 -42782203.23447 -32467557.98445  20784137.8444                   20784136.6334
    -69373.91047    -17391.10543  24067163.9774                   24067165.8554
 -86435878.31247 -67306295.77744  23019065.1414                   23019064.4264
 -29952038.16447 -23300453.97746  21344798.7034                   21344796.6644
 -21137063.57047 -16430558.14845  21972162.8204                   21972162.3014
 -66612020.53547 -48499049.57845  21509556.7424                   21509555.8554
 -34795617.75846 -27069001.25043  23511212.7114                   23511213.6994
 -51983338.79747 -40392781.59846  20490576.4614                   20490572.9924
 11  8 16  0 35 30.0000000  0  8G10G25G17G12G05G04G09G02
 -42871316.32447 -32536996.73845  20767179.8754                   20767179.1024
   -254764.07847   -161850.92644  24031885.4304                   24031886.9694
 -86468486.18047 -67331704.52744  23012860.2424                   23012859.3444
 -30098143.90247 -23414302.58646  21316995.9924                   21316993.1564
 -21314057.30147 -16568475.24245  21938481.7424                   21938481.2624
 -66621320.81647 -48506296.58245  21507786.5784                   21507786.0554
 -34802449.62546 -27074324.85244  23509912.6564                   23509913.9184
 -52070540.61748 -40460731.05146  20473982.7114                   20473978.8674
 11  8 16  0 36  0.0000000  0  8G10G25G17G12G05G04G09G02
 -42959734.94947 -32605894.34045  20750354.9844                   20750353.4264
   -439922.32847   -306130.00843  23996650.6804                   23996652.6764
 -86500874.79747 -67356942.43444  23006696.7734                   23006695.5274
 -30243760.05547 -23527769.69546  21289285.7114                   21289283.4304
 -21490696.25447 -16706115.88745  21904868.5314                   21904868.1374
 -66630406.64547 -48513376.46945  21506057.9454                   21506057.2384
 -34809041.73846 -27079461.61343  23508657.8984                   23508659.2704
 -52157380.90248 -40528398.78946  20457457.5784                   20457453.6094
 11  8 16  0 36 30.0000000  0  8G10G25G17G12G05G04G09G02
 -41472031.50447 -31446644.87945  21033455.1024                   21033453.6294
    950584.74247    777382.06343  24261255.6884                   24261257.3634
 -84957618.10547 -66154404.76644  23300368.3524                   23300367.7274
 -28813455.01647 -22413246.27346  21561463.8594                   21561461.8674
 -20091547.32047 -15615869.86745  22171117.6884                   22171116.7584
 -65063855.21947 -47292687.06245  21804162.7584                   21804162.2074
 -33239972.63746 -25856810.46943  23807241.8204                   23807243.7344
 -50668433.15248 -39368179.74646  20740794.7664                   20740791.1134
 11  8 16  0 37  0.0000000  0  8G10G25G17G12G05G04G09G02
 -41559051.50447 -31514452.64845  21016895.4614                   21016894.2344
    765907.09447    633477.50043  24226112.6564                   24226114.3674
 -84989558.13346 -66179293.14144  23294290.6024                   23294289.6644
 -28958076.72747 -22525938.51246  21533943.0784                   21533941.1294
 -20267459.55147 -15752944.25445  22137642.7734                   22137641.9734
 -65072509.44947 -47299430.64845  21802515.8134                   21802515.2504
 -33246086.26246 -25861574.43444  23806078.8674                   23806080.6644
 -50754544.72347 -39435279.65246  20724408.1254                   20724404.6454
 11  8 16  0 37 30.0000000  0  8G10G25G17G12G05G04G09G02
 -41645380.97747 -31581722.33245  21000467.9144                   21000466.0664
    581464.33646    489755.92244  24191013.8524                   24191015.7664
 -85021282.42647 -66204013.39144  23288253.9304                   23288253.2194
 -29102207.00447 -22638247.80146  21506516.3594                   21506514.0434
 -20443013.35547 -15889739.33645  22104236.0704                   22104235.7424
 -65080960.28547 -47306015.73045  21800907.7344                   21800907.2154
 -33251975.14147 -25866163.27044  23804958.4304                   23804960.1254
 -50840302.92247 -39502104.21146  20708089.0704                   20708085.3834
 11  8 16  0 38  0.0000000  0  8G10G25G17G12G05G04G09G02
 -41731012.51247 -31648448.18045  20984172.5164                   20984171.1804
    397266.09846    346224.89844  24155962.5234                   24155964.5084
 -85052782.81647 -66228559.17244  23282259.2734                   23282258.5944
 -29245836.34047 -22750166.75446  21479183.9844                   21479182.2194
 -20618198.55547 -16026247.19145  22070899.3054                   22070898.3324
 -65089202.62547 -47312438.35245  21799339.4844                   21799338.5864
 -33257635.53546 -25870574.05144  23803880.9224                   23803882.6134
 -50925701.48448 -39568648.53546  20691838.2034                   20691834.4264
 11  8 16  0 38 30.0000000  0  8G10G25G17G12G05G04G09G02
 -41815953.99248 -31714636.31645  20968008.7734                   20968007.1684
    213306.89546    202880.13344  24120955.2734                   24120957.9024
 -85084067.48447 -66252936.84844  23276306.6254                   23276305.0434
 -29388970.71147 -22861700.01646  21451946.8754                   21451945.0704
 -20793020.86747 -16162472.28145  22037632.1024                   22037630.6054
 -65097246.44947 -47318706.28545  21797808.5554                   21797807.6054
 -33263079.28946 -25874816.00843  23802845.1254                   23802847.0124
 -51010750.31648 -39634920.34046  20675654.1484                   20675649.9384
 11  8 16  0 39  0.0000000  0  8G10G25G17G12G05G04G09G02
 -41900200.20347 -31780282.67645  20951977.1564                   20951975.8914
     29594.43846     59727.61343  24085996.6094                   24085998.4964
 -85115130.73447 -66277142.00044  23270395.2814                   23270394.2894
 -29531602.87947 -22972841.95746  21424804.6804                   21424802.9884
 -20967472.14547 -16298408.24645  22004434.6254                   22004433.3204
 -65105088.66447 -47324817.12145  21796316.3834                   21796315.3284
 -33268304.42647 -25878887.63743  23801851.5234                   23801852.8244
 -51095445.21148 -39700916.35246  20659537.3364                   20659533.0594
 11  8 16  0 39 30.0000000  0  8G10G25G17G12G05G04G09G02
 -41983757.53148 -31845392.26645  20936076.9844                   20936075.0824
   -153875.11746    -83235.62543  24051083.5234                   24051085.4104
 -85145978.37146 -66301179.14144  23264525.2814                   23264524.3164
 -29673736.88347 -23083595.70746  21397757.5084                   21397755.7114
 -21141556.06247 -16434057.96945  21971307.4614                   21971306.7194
 -65112737.96547 -47330777.63345  21794861.0474                   21794859.6994
 -33273320.93746 -25882796.67243  23800896.2194                   23800897.6054
 -51179793.80948 -39766642.52046  20643486.0084                   20643482.2734
 11  8 16  0 40  0.0000000  0  8G10G25G17G12G05G04G09G02
 -42066621.62947 -31909961.65645  20920308.1334                   20920307.0664
   -337095.51646   -226004.73044  24016218.1174                   24016219.9614
 -85176606.47747 -66325045.20744  23258696.9454                   23258695.3324
 -29815366.82047 -23193956.68746  21370806.4144                   21370804.2074
 -21315265.89547 -16569416.18045  21938251.4224                   21938250.4774
 -65120192.47347 -47336586.36345  21793442.3594                   21793441.2034
 -33278128.43047 -25886542.87543  23799981.6024                   23799983.1844
 -51263793.12947 -39832096.52346  20627501.2734                   20627497.7624
 11  8 16  0 40 30.0000000  0  8G10G25G17G12G05G04G09G02
 -42148797.46947 -31973994.74645  20904670.8284                   20904669.0084
   -520068.80946   -368581.26643  23981398.7734                   23981401.1254
 -85207018.97747 -66348743.27044  23252908.9694                   23252908.5004
 -29956495.21147 -23303926.85246  21343950.2504                   21343948.0704
 -21488603.67647 -16704484.50445  21905266.4144                   21905265.3834
 -65127458.94547 -47342248.56645  21792059.5004                   21792058.3284
 -33282734.88746 -25890132.43743  23799105.9694                   23799106.6294
 -51347449.17248 -39897283.03946  20611582.2734                   20611578.4534
 11  8 16  0 41  0.0000000  0  8G10G25G17G12G05G04G09G02
 -42230280.82847 -32037488.24245  20889165.1884                   20889163.5744
   -702788.48446   -510960.18443  23946628.9614                   23946630.5744
 -85237211.28147 -66372269.75444  23247163.2344                   23247163.3634
 -30097115.66847 -23413501.21546  21317191.3364                   21317189.2304
 -21661562.43747 -16839257.47745  21872353.6414                   21872352.4884
 -65134535.30947 -47347762.62545  21790713.3054                   21790711.9064
 -33287140.04346 -25893565.06643  23798265.4534                   23798268.0044
 -51430759.40648 -39962200.10246  20595729.4384                   20595724.9694
 11  8 16  0 41 30.0000000  0  8G10G25G17G12G05G04G09G02
 -42311073.47347 -32100443.52745  20873790.7504                   20873789.1454
   -885253.77746   -653140.89143  23911906.8834                   23911908.6134
 -85267185.23047 -66395626.09444  23241461.0004                   23241459.3554
 -30237228.07447 -23522679.68746  21290528.5634                   21290526.8094
 -21834141.23847 -16973734.37945  21839512.5004                   21839511.8054
 -65141425.25447 -47353131.44145  21789401.8444                   21789401.0044
 -33291349.15247 -25896845.00843  23797466.2814                   23797467.4924
 -51513726.93447 -40026850.11346  20579940.6484                   20579936.8014
 11  8 16  0 42  0.0000000  0  8G10G25G17G12G05G04G09G02
 -42391175.07447 -32162860.34045  20858547.7584                   20858546.1374
  -1067461.69546   -795121.06243  23877233.0864                   23877235.1454
 -85296939.72747 -66418811.43744  23235798.3524                   23235796.3554
 -30376829.91448 -23631460.31246  21263963.4144                   21263960.9024
 -22006337.19147 -17107912.96545  21806744.6804                   21806743.4924
 -65148130.66847 -47358356.45745  21788125.8364                   21788124.7774
 -33295365.29346 -25899974.54343  23796701.4924                   23796703.5864
 -51596352.23048 -40091233.45346  20564217.7344                   20564213.7774
 11  8 16  0 42 30.0000000  0  8G10G25G17G12G05G04G09G02
 -42470582.98047 -32224736.60945  20843436.7664                   20843435.2504
  -1249407.05147   -936896.62543  23842610.6564                   23842612.0664
 -85326471.99247 -66441823.59444  23230179.1804                   23230177.3364
 -30515916.00047 -23739839.06246  21237496.1094                   21237494.3594
 -22178144.77047 -17241788.91045  21774050.6884                   21774049.8984
 -65154651.08247 -47363437.31245  21786885.1954                   21786884.5474
 -33299189.00446 -25902954.17643  23795974.7664                   23795976.3284
 -51678634.03148 -40155349.12946  20548559.5084                   20548556.0354
 11  8 16  0 43  0.0000000  0  8G10G25G17G12G05G04G09G02
 -42549298.19947 -32286073.12145  20828457.8674                   20828456.6764
  -1431088.07847  -1078466.22743  23808038.1024                   23808039.2544
 -85355782.09047 -66464662.64544  23224600.6954                   23224600.1804
 -30654485.62548 -23847815.36746  21211127.1884                   21211125.0704
 -22349562.01247 -17375360.69545  21741431.4844                   21741429.9144
 -65160988.92247 -47368375.91045  21785678.9844                   21785678.2664
 -33302824.69146 -25905787.25043  23795282.4844                   23795283.9734
 -51760574.23848 -40219198.63346  20532967.1484                   20532963.0824
 11  8 16  0 43 30.0000000  0  8G10G25G17G12G05G04G09G02
 -42627323.14547 -32346871.75845  20813610.1954                   20813608.8054
  -1612504.29347  -1219829.47344  23773515.1334                   23773516.6914
 -85384871.59447 -66487329.80944  23219065.1644                   23219064.0984
 -30792538.57447 -23955389.05546  21184856.3754                   21184854.4224
 -22520588.32447 -17508627.87545  21708886.0474                   21708884.5434
 -65167148.31247 -47373175.45345  21784506.9144                   21784506.3874
 -33306277.86346 -25908478.11343  23794625.6804                   23794627.3984
 -51842176.18748 -40282784.55146  20517438.5474                   20517434.7464
 11  8 16  0 44  0.0000000  0  8G10G25G17G12G05G04G09G02
 -42704656.24648 -32407131.30145  20798893.9224                   20798892.7074
  -1793651.73447  -1360983.28144  23739044.0084                   23739044.9344
 -85413738.77347 -66509823.71944  23213572.2114                   23213571.0904
 -30930071.24248 -24062557.34046  21158684.8834                   21158682.6954
 -22691219.76247 -17641587.35545  21676415.7344                   21676414.6684
 -65173129.96547 -47377836.49245  21783369.0634                   21783367.9224
 -33309550.46146 -25911028.25443  23794002.4144                   23794004.6804
 -51923439.84448 -40346106.87546  20501974.6954                   20501971.0984
 11  8 16  0 44 30.0000000  0  8G10G25G17G12G05G04G09G02
 -42781302.71948 -32466855.80945  20784308.9454                   20784307.5004
  -1974532.64847  -1501929.38343  23704623.2974                   23704625.0124
 -85442388.31647 -66532148.06244  23208120.1724                   23208119.5354
 -31067086.46148 -24169322.43046  21132611.7114                   21132609.4774
 -22861458.21147 -17774240.61745  21644020.0474                   21644019.1094
 -65178940.62547 -47382364.31245  21782263.4064                   21782262.2584
 -33312650.95346 -25913444.34843  23793413.6724                   23793414.8164
 -52004371.05548 -40409170.14846  20486574.1884                   20486570.4884
 11  8 16  0 45  0.0000000  0  8G10G25G17G12G05G04G09G02
 -42857260.55548 -32526043.71945  20769854.8834                   20769853.1094
  -2155142.64547  -1642664.39844  23670254.5944                   23670255.7384
 -85470817.88747 -66554300.97344  23202710.2344                   23202709.0394
 -31203580.07447 -24275681.06246  21106637.7194                   21106635.8984
 -23031298.98047 -17906583.99645  21611700.7814                   21611699.5664
 -65184580.53547 -47386759.06245  21781189.9844                   21781188.8914
 -33315581.04346 -25915727.60543  23792855.2194                   23792857.0984
 -52084969.08648 -40471973.78946  20471236.8364                   20471233.0044
 11  8 16  0 45 30.0000000  0  8G10G25G17G12G05G04G09G02
 -41357108.82047 -31357094.31245  21055323.8674                   21055322.6294
   -760054.06247   -555582.30544  23935731.2894                   23935732.9574
 -83923606.43746 -65348681.68444  23497134.1484                   23497134.2664
 -29764126.95748 -23154029.25846  21380556.4224                   21380554.1254
 -21625314.68747 -16811011.73845  21879250.8284                   21879249.4774
 -63614632.23447 -46163422.75045  22079941.3524                   22079940.3364
 -31742924.59446 -24690281.13743  24092121.6804                   24092123.3674
 -50589813.88348 -39306917.77746  20755755.5554                   20755751.3134
 11  8 16  0 46  0.0000000  0  8G10G25G17G12G05G04G09G02
 -41431691.01648 -31415210.30145  21041131.2584                   21041130.0234
   -940114.74247   -695889.25844  23901465.5394                   23901468.3914
 -83951594.57447 -65370490.64144  23491808.9224                   23491808.0274
 -29899572.23848 -23259571.00846  21354782.4304                   21354779.7584
 -21794352.64147 -16942729.54745  21847083.5704                   21847082.6994
 -63619936.36747 -46167555.85545  22078931.7734                   22078931.3594
 -31745523.82046 -24692306.58243  24091628.0314                   24091629.5354
 -50669750.48848 -39369206.02346  20740543.6954                   20740539.9064
 11  8 16  0 46 30.0000000  0  8G10G25G17G12G05G04G09G02
 -41505587.07448 -31472791.63345  21027069.6024                   21027068.2234
  -1119898.21947   -835980.22744  23867254.6024                   23867256.3164
 -83979362.99647 -65392128.37544  23486524.3134                   23486523.4414
 -30034491.28148 -23364702.71146  21329107.6644                   21329105.7344
 -21962986.41847 -17074132.41045  21814993.3444                   21814992.5704
 -63625077.05147 -46171561.60245  22077953.6884                   22077952.7384
 -31747964.37946 -24694208.37543  24091163.4224                   24091165.1844
 -50749359.19948 -39431238.77046  20725394.9924                   20725390.7704
 11  8 16  0 47  0.0000000  0  8G10G25G17G12G05G04G09G02
 -41578799.00848 -31529839.87945  21013137.6484                   21013136.1524
  -1299403.90646   -975854.71544  23833095.3204                   23833097.7074
 -84006913.18447 -65413596.05144  23481281.9144                   23481281.0554
 -30168884.55548 -23469424.72746  21303534.1024                   21303531.6884
 -22131215.39847 -17205219.85545  21782980.3834                   21782979.3364
 -63630058.10247 -46175442.96545  22077005.1484                   22077005.3674
 -31750251.59446 -24695990.73043  24090728.1724                   24090730.1994
 -50828643.28948 -39493018.57046  20710307.6094                   20710303.3404
 11  8 16  0 47 30.0000000  0  8G10G25G17G12G05G04G09G02
 -41651323.87147 -31586352.75445  20999336.3914                   20999335.0634
  -1478625.61747  -1115507.92644  23798990.9614                   23798993.0554
 -84034241.05946 -65434890.50044  23476081.5474                   23476081.1764
 -30302746.14548 -23573732.43746  21278060.6254                   21278058.6254
 -22299033.28147 -17335986.95745  21751046.3674                   21751044.5314
 -63634877.60247 -46179198.44945  22076088.8674                   22076088.0904
 -31752385.18746 -24697653.35243  24090322.0474                   24090323.9144
 -50907600.47748 -39554543.63346  20695282.5314                   20695278.6644
 11  8 16  0 48  0.0000000  0  8G10G25G17G12G05G04G09G02
 -41723161.12948 -31642329.82445  20985666.6174                   20985665.1334
  -1657559.97746  -1254937.21944  23764940.9384                   23764942.9574
 -84061345.53546 -65456010.88344  23470924.2894                   23470923.5824
 -30436073.35947 -23677623.76246  21252689.0634                   21252687.3794
 -22466436.79747 -17466431.19146  21719190.2194                   21719189.0904
 -63639536.86347 -46182829.06245  22075202.1564                   22075200.9614
 -31754367.64146 -24699198.19943  24089945.3674                   24089946.7974
 -50986231.36348 -39615814.43446  20680319.5634                   20680316.0084
 11  8 16  0 48 30.0000000  0  8G10G25G17G12G05G04G09G02
 -41794314.94947 -31697774.34445  20972126.1334                   20972125.0664
  -1836207.98846  -1394143.39144  23730945.1954                   23730947.0434
 -84088229.80946 -65476959.68044  23465808.3524                   23465807.6764
 -30568868.06248 -23781100.13746  21227419.2814                   21227417.3554
 -22633426.94147 -17596553.30945  21687412.8134                   21687411.7234
 -63644041.41447 -46186339.12545  22074344.5234                   22074344.0824
 -31756206.33646 -24700631.03143  24089595.7114                   24089597.2504
 -51064540.75048 -39676834.71946  20665417.8444                   20665414.0744
 11  8 16  0 49  0.0000000  0  8G10G25G17G12G05G04G09G02
 -41864783.07048 -31752684.54345  20958716.6094                   20958715.1524
  -2014564.55547  -1533122.46144  23697004.8674                   23697006.9454
 -84114891.07846 -65497734.69544  23460734.8364                   23460733.8984
 -30701125.37948 -23884157.77346  21202251.8834                   21202249.3714
 -22799998.33247 -17726349.12145  21655714.9694                   21655714.0784
 -63648390.51647 -46189728.06245  22073517.4384                   22073515.9964
 -31757901.81646 -24701952.23843  24089272.9384                   24089274.1054
 -51142527.25448 -39737603.39846  20650577.4144                   20650573.5164
 11  8 16  0 49 30.0000000  0  8G10G25G17G12G05G04G09G02
 -41934573.44148 -31807066.64545  20945436.2974                   20945434.3674
  -2192634.47347  -1671878.16444  23663119.6884                   23663121.1174
 -84141336.14146 -65518341.23844  23455702.3594                   23455701.7154
 -30832850.73048 -23986800.89846  21177185.1564                   21177182.9454
 -22966155.72347 -17855822.34046  21624096.3914                   21624095.2664
 -63652593.63347 -46193003.24245  22072717.2734                   22072716.5784
 -31759464.98846 -24703170.38343  24088975.1884                   24088977.8524
 -51220199.54348 -39798127.25446  20635797.1884                   20635792.9734
 11  8 16  0 50  0.0000000  0  8G10G25G17G12G05G04G09G02
 -42003679.37147 -31860915.39546  20932285.5474                   20932284.3984
  -2370407.85247  -1810402.80944  23629290.1414                   23629291.8634
 -84167557.50846 -65538773.48044  23450712.9774                   23450711.5164
 -30964034.85947 -24089022.28146  21152221.6644                   21152219.4144
 -23131889.21948 -17984965.25446  21592558.3674                   21592557.1454
 -63656645.27047 -46196160.38745  22071946.0784                   22071945.5824
 -31760891.89846 -24704282.32043  24088703.5704                   24088705.9534
 -51297551.67648 -39858401.62546  20621077.2664                   20621073.2544
 11  8 16  0 50 30.0000000  0  8G10G25G17G12G05G04G09G02
 -42072103.96547 -31914233.24646  20919264.9064                   20919263.2894
  -2547884.83247  -1948696.49244  23595517.1334                   23595519.0124
 -84193557.70746 -65559033.38744  23445765.0864                   23445763.9774
 -31094679.16048 -24190823.01246  21127361.1334                   21127358.8404
 -23297198.92647 -18113777.93446  21561101.2894                   21561099.7154
 -63660549.94147 -46199203.00044  22071203.4534                   22071202.9884
 -31762188.77046 -24705292.95743  24088456.3594                   24088458.7034
 -51374587.57848 -39918429.58646  20606417.9844                   20606413.6804
 11  8 16  0 51  0.0000000  0  8G10G25G17G12G05G04G09G02
 -42139848.17247 -31967020.92245  20906373.4774                   20906371.9454
  -2725063.01247  -2086757.34044  23561801.9844                   23561803.2624
 -84219336.31246 -65579120.59044  23440858.5704                   23440858.1334
 -31224781.54348 -24292201.48046  21102603.2664                   21102600.7304
 -23462082.34847 -18242258.45745  21529724.7344                   21529723.4304
 -63664309.68047 -46202132.68744  22070488.1094                   22070487.5204
 -31763359.14146 -24706205.01643  24088233.9144                   24088236.4534
 -51451308.80948 -39978212.35946  20591818.2034                   20591814.1724
 11  8 16  0 51 30.0000000  0  8G10G25G17G12G05G04G09G02
 -42206913.16047 -32019279.34445  20893610.8674                   20893609.9264
  -2901940.49647  -2224583.87944  23528142.8134                   23528144.4064
 -84244893.78946 -65599035.51244  23435995.6644                   23435995.2154
 -31354341.01248 -24393156.89846  21077949.0554                   21077946.4304
 -23626537.93047 -18370405.59845  21498429.5474                   21498428.2154
 -63667926.99247 -46204951.39844  22069799.5784                   22069798.7814
 -31764406.99646 -24707021.59843  24088035.1414                   24088037.0744
 -51527716.98848 -40037751.18746  20577278.1094                   20577274.2074
 11  8 16  0 52  0.0000000  0  8G10G25G17G12G05G04G09G02
 -42273296.09847 -32071006.28545  20880979.4144                   20880977.6684
  -3078511.41047  -2362171.56644  23494542.9844                   23494544.2624
 -84270226.41847 -65618775.21944  23431175.4454                   23431174.3134
 -31483352.10948 -24493685.01646  21053398.5704                   21053396.5394
 -23790559.28948 -18498214.37546  21467217.2504                   21467216.3054
 -63671400.48447 -46207658.03145  22069138.0704                   22069137.9304
 -31765332.36346 -24707742.72343  24087858.7034                   24087860.9574
 -51603810.45348 -40097044.77746  20562798.2114                   20562794.1844
 11  8 16  0 52 30.0000000  0  8G10G25G17G12G05G04G09G02
 -42339000.76647 -32122204.71145  20868476.0004                   20868474.4414
  -3254776.09847  -2499520.64844  23461000.3984                   23461001.9534
 -84295336.94547 -65638341.87144  23426396.2424                   23426395.5274
 -31611816.16048 -24593786.85246  21028952.8984                   21028951.0514
 -23954147.24647 -18625685.44946  21436087.6024                   21436086.2544
 -63674735.02347 -46210256.39544  22068504.2974                   22068503.2464
 -31766141.84446 -24708373.55143  24087704.5704                   24087707.1254
 -51679593.33648 -40156096.35946  20548377.3594                   20548373.3404
 11  8 16  0 53  0.0000000  0  8G10G25G17G12G05G04G09G02
 -42404032.66847 -32172878.90645  20856100.9844                   20856099.6094
  -3430737.16447  -2636633.12144  23427516.7344                   23427517.6884
 -84320230.16846 -65657739.19544  23421660.0084                   23421658.7034
 -31739736.57448 -24693465.08646  21004610.4454                   21004608.0274
 -24117304.53147 -18752820.91845  21405039.6484                   21405038.4924
 -63677937.50047 -46212751.86345  22067894.6254                   22067893.9534
 -31766843.76646 -24708920.63343  24087571.7974                   24087573.3094
 -51755071.91848 -40214910.82446  20534014.0634                   20534010.0164
 11  8 16  0 53 30.0000000  0  8G10G25G17G12G05G04G09G02
 -42468390.79748 -32223028.08245  20843853.8444                   20843852.4454
  -3606390.00847  -2773505.43044  23394090.8284                   23394092.1484
 -84344903.69546 -65676965.31044  23416964.6724                   23416963.8404
 -31867109.35548 -24792716.58646  20980372.1644                   20980370.2424
 -24280026.23047 -18879616.98845  21374074.7504                   21374073.3204
 -63681007.60547 -46215144.18044  22067310.2114                   22067309.9064
 -31767439.38746 -24709384.83643  24087458.3834                   24087460.8014
 -51830245.58248 -40273487.69146  20519708.9384                   20519704.8204
 11  8 16  0 54  0.0000000  0  8G10G25G17G12G05G04G09G02
 -42532070.44947 -32272648.57845  20831736.1954                   20831734.7114
  -3781726.42647  -2910131.18044  23360725.0474                   23360726.8054
 -84369351.49247 -65696015.55544  23412312.3754                   23412311.5234
 -31993927.22748 -24891535.68046  20956239.7584                   20956236.8444
 -24442304.28547 -19006067.36346  21343194.3054                   21343192.8794
 -63683941.82047 -46217430.60245  22066752.1024                   22066751.4654
 -31767926.55946 -24709764.55143  24087365.5554                   24087367.5234
 -51905109.91448 -40331823.52346  20505462.5634                   20505458.9384
 11  8 16  0 54 30.0000000  0  8G10G25G17G12G05G04G09G02
 -42595076.13347 -32321743.90245  20819746.2584                   20819744.6174
  -3956747.82847  -3046511.44144  23327419.4224                   23327421.4534
 -84393577.46946 -65714892.96144  23407702.1334                   23407701.4844
 -32120192.10948 -24989923.87946  20932212.1334                   20932209.6914
 -24604140.30147 -19132173.28146  21312397.6644                   21312397.0274
 -63686745.42647 -46219615.25844  22066218.4144                   22066218.0704
 -31768312.69946 -24710065.54343  24087291.7974                   24087294.6294
 -51979670.23848 -40389922.47346  20491274.4224                   20491270.4774
 11  8 16  0 55  0.0000000  0  8G10G25G17G12G05G04G09G02
 -41081990.27047 -31142715.93745  21107676.7424                   21107675.5634
  -2556029.36747  -1955042.46944  23593967.8204                   23593968.7114
 -82842164.34846 -64505999.63743  23702926.6954                   23702925.2814
 -30670482.01248 -23860279.62946  21208082.9844                   21208080.7304
 -23190109.85547 -18030331.31245  21581479.0164                   21581478.0944
 -62114004.09447 -44994102.55545  22365501.7194                   22365500.8244
 -30193184.74646 -23482693.18043  24387028.8444                   24387030.9884
 -50478509.10548 -39220186.51246  20776935.7584                   20776931.8954
 11  8 16  0 55 30.0000000  0  8G10G25G17G12G05G04G09G02
 -41143656.95347 -31190767.88345  21095942.7664                   21095941.0984
  -2730419.52047  -2090930.85944  23560781.8284                   23560783.7464
 -82865952.19547 -64524535.62143  23698399.5944                   23698398.6214
 -30795642.88348 -23957807.56646  21184265.1564                   21184263.4304
 -23351060.71147 -18155747.50845  21550850.6724                   21550849.5124
 -62116559.05147 -44996093.44544  22365015.3054                   22365014.8914
 -30193385.44946 -23482849.69543  24386990.4304                   24386993.6684
 -50552472.08248 -39277819.98846  20762860.9774                   20762857.3364
 11  8 16  0 56  0.0000000  0  8G10G25G17G12G05G04G09G02
 -41204656.04348 -31238299.64145  21084334.8984                   21084332.9104
  -2904490.78947  -2226570.75844  23527657.5704                   23527658.6804
 -82889521.02747 -64542900.93444  23693914.7974                   23693913.2344
 -30920249.89548 -24054903.92246  21160553.6954                   21160551.3874
 -23511566.03547 -18280816.52746  21520307.4384                   21520306.5274
 -62118993.09047 -44997990.12144  22364552.2974                   22364551.2194
 -30193499.12546 -23482938.39143  24386969.0474                   24386971.7854
 -50626138.99648 -39335222.76646  20748842.8914                   20748839.0234
 11  8 16  0 56 30.0000000  0  8G10G25G17G12G05G04G09G02
 -41264987.27048 -31285310.96945  21072854.0704                   21072852.2154
  -3078239.05947  -2361958.97744  23494594.5474                   23494595.9104
 -82912869.31247 -64561094.40644  23689472.1644                   23689470.5904
 -31044299.41048 -24151565.85946  21136947.8284                   21136945.4344
 -23671621.51247 -18405535.01646  21489850.3054                   21489848.7814
 -62121306.28547 -44999792.64144  22364111.7664                   22364111.0984
 -30193527.28446 -23482960.43743  24386963.1254                   24386966.1724
 -50699509.38748 -39392394.49246  20734880.9454                   20734876.6094
 11  8 16  0 57  0.0000000  0  8G10G25G17G12G05G04G09G02
 -41324656.83248 -31331806.71946  21061498.8524                   21061496.9454
  -3251667.43447  -2497097.89844  23461591.5944                   23461593.1604
 -82936002.05946 -64579119.94943  23685070.2584                   23685069.0634
 -31167795.16048 -24247796.29346  21113447.2114                   21113444.8484
 -23831230.55147 -18529905.62946  21459477.3674                   21459476.3204
 -62123505.77347 -45001506.53944  22363693.4304                   22363692.4614
 -30193479.13646 -23482923.06843  24386973.6024                   24386975.7894
 -50772590.28148 -39449340.64546  20720973.8134                   20720970.0044
 11  8 16  0 57 30.0000000  0  8G10G25G17G12G05G04G09G02
 -41383662.58248 -31377785.21945  21050270.6484                   21050269.0394
  -3424770.03547  -2631982.98444  23428651.5394                   23428652.9574
 -82958916.18746 -64596975.13743  23680709.6414                   23680708.4534
 -31290733.45348 -24343592.34846  21090052.6094                   21090050.5784
 -23990387.44947 -18653923.93046  21429190.7734                   21429189.4454
 -62125590.40247 -45003130.93444  22363297.1954                   22363295.9344
 -30193354.54346 -23482826.03943  24386996.4924                   24386999.5394
 -50845379.77348 -39506059.72746  20707122.6174                   20707118.5204
 11  8 16  0 58  0.0000000  0  8G10G25G17G12G05G04G09G02
 -41442000.71948 -31423243.49245  21039169.3594                   21039167.7974
  -3597539.75447  -2766608.68044  23395774.3444                   23395775.8594
 -82981606.69946 -64614656.05144  23676391.2274                   23676389.9654
 -31413107.50848 -24438948.73446  21066765.8754                   21066763.4264
 -24149085.12547 -18777584.39146  21398991.3524                   21398990.2074
 -62127557.18747 -45004663.51244  22362923.1334                   22362921.6024
 -30193152.46546 -23482668.68443  24387033.9844                   24387037.6994
 -50917874.55948 -39562549.15646  20693327.3524                   20693323.2544
 11  8 16  0 58 30.0000000  0  8G10G25G17G12G05G04G09G02
 -41499675.54748 -31468184.89845  21028194.0394                   21028192.4304
  -3769977.39847  -2900975.62944  23362960.9924                   23362961.9734
 -83004076.42646 -64632164.94943  23672114.8524                   23672114.4774
 -31534918.63348 -24533866.46546  21043585.8134                   21043583.6214
 -24307324.73448 -18900887.92246  21368879.4614                   21368878.3204
 -62129411.18447 -45006108.18044  22362569.9614                   22362568.6414
 -30192879.46546 -23482456.04742  24387087.0164                   24387090.1724
 -50990079.03148 -39618812.37946  20679587.1484                   20679583.2274
 11  8 16  0 59  0.0000000  0  8G10G25G17G12G05G04G09G02
 -41556688.76648 -31512610.76245  21017344.5784                   21017343.1684
  -3942080.78947  -3035082.10244  23330210.2274                   23330212.0904
 -83026325.80146 -64649502.14143  23667881.3524                   23667880.6884
 -31656165.64148 -24628344.62946  21020513.1724                   21020510.8524
 -24465104.14848 -19023832.85946  21338854.9304                   21338853.8914
 -62131154.69147 -45007466.77044  22362237.8444                   22362237.2424
 -30192539.17246 -23482190.99642  24387152.3674                   24387155.3524
 -51061995.17248 -39674850.93046  20665902.1484                   20665898.0084
 11  8 16  0 59 30.0000000  0  8G10G25G17G12G05G04G09G02
 -41613044.89147 -31556524.61745  21006620.4614                   21006619.0204
  -4113850.95347  -3168928.91844  23297523.9224                   23297524.8244
 -83048357.92246 -64666670.05143  23663688.6804                   23663687.9454
 -31776850.84048 -24722385.02346  20997547.6724                   20997545.0434
 -24622424.83248 -19146420.33646  21308917.3834                   21308916.5004
 -62132792.94947 -45008743.32444  22361926.3754                   22361925.7274
 -30192138.75845 -23481879.06242  24387227.8204                   24387231.6914
 -51133627.88348 -39730668.62146  20652270.9064                   20652267.3014
 11  8 16  1  0  0.0000000  0  8G10G25G17G12G05G04G09G02
 -41668748.88347 -31599930.31645  20996020.4694                   20996019.1414
  -4285289.27747  -3302517.17644  23264900.1884                   23264901.1254
 -83070176.74246 -64683671.73043  23659536.8984                   23659536.6804
 -31896976.86748 -24815989.69946  20974688.8284                   20974685.7074
 -24779288.10248 -19268651.39846  21279067.6564                   21279065.9964
 -62134331.32447 -45009942.06244  22361633.2894                   22361633.2074
 -30191685.05546 -23481525.69142  24387314.1254                   24387317.8554
 -51204982.41048 -39786269.54746  20638692.5634                   20638688.6254
 11  8 16  1  0 30.0000000  0  8G10G25G17G12G05G04G09G02
 -41723797.20347 -31642825.09045  20985545.0704                   20985543.4144
  -4456388.61347  -3435841.28544  23232341.1254                   23232341.9804
 -83091777.44946 -64700503.48043  23655426.1484                   23655426.3524
 -32016537.28548 -24909153.63746  20951936.6954                   20951934.5554
 -24935686.85948 -19390520.49246  21249305.9064                   21249304.3594
 -62135767.15247 -45011060.87944  22361360.3444                   22361359.3134
 -30191177.19546 -23481130.04743  24387412.0864                   24387414.1564
 -51276055.13748 -39841650.89146  20625168.0554                   20625163.9494
 11  8 16  1  1  0.0000000  0  8G10G25G17G12G05G04G09G02
 -41778191.43447 -31685210.19545  20975194.3444                   20975192.6564
  -4627146.50447  -3568899.34444  23199846.5474                   23199847.8484
 -83113159.82846 -64717165.10244  23651357.8134                   23651357.0474
 -32135530.51248 -25001875.60946  20929293.2424                   20929290.6684
 -25091619.42248 -19512026.32046  21219632.8594                   21219631.8984
 -62137102.19147 -45012101.16044  22361106.1644                   22361105.5084
 -30190618.18446 -23480694.56643  24387517.0784                   24387521.0824
 -51346847.94548 -39896814.11346  20611696.2664                   20611692.7304
 11  8 16  1  1 30.0000000  0  8G10G25G17G12G05G04G09G02
 -41831928.60547 -31727083.30145  20964968.5004                   20964966.8554
  -4797556.41447  -3701686.25444  23167418.9384                   23167419.2854
 -83134319.75846 -64733653.37143  23647331.2194                   23647330.5984
 -32253951.35948 -25094151.57446  20906758.3594                   20906756.2734
 -25247078.85948 -19633163.48446  21190049.9064                   21190048.9184
 -62138334.10947 -45013061.09044  22360871.4384                   22360871.2584
 -30190007.47745 -23480218.82443  24387634.2114                   24387637.6134
 -51417358.19548 -39951757.16046  20598278.4774                   20598274.9344
 11  8 16  1  2  0.0000000  0  8G10G25G17G12G05G04G09G02
 -41885012.77748 -31768447.57045  20954866.3754                   20954865.2304
  -4967618.73047  -3834202.31244  23135056.7114                   23135058.0434
 -83155259.69146 -64749970.21544  23643346.3594                   23643345.5204
 -32371801.14848 -25185982.56246  20884332.2504                   20884330.0984
 -25402066.03948 -19753932.64846  21160556.5474                   21160555.5864
 -62139467.44547 -45013944.22344  22360655.8284                   22360655.4344
 -30189351.24245 -23479707.59843  24387758.9614                   24387762.4844
 -51487589.78948 -40006483.07446  20584913.9384                   20584910.4614
 11  8 16  1  2 30.0000000  0  8G10G25G17G12G05G04G09G02
 -41937441.94947 -31809301.45745  20944889.5084                   20944888.3954
  -5137327.71147  -3966443.03544  23102762.1174                   23102763.1414
 -83175976.57846 -64766113.27044  23639404.5944                   23639403.5514
 -32489075.11748 -25277364.85946  20862015.5864                   20862013.3524
 -25556575.54748 -19874329.60546  21131154.7274                   21131153.2344
 -62140500.75847 -45014749.39544  22360458.9454                   22360458.7814
 -30188649.41046 -23479160.84843  24387892.6724                   24387895.2074
 -51557540.78548 -40060990.33246  20571602.6644                   20571598.9414
 11  8 16  1  3  0.0000000  0  8G10G25G17G12G05G04G09G02
 -41989222.89547 -31849650.23045  20935036.3984                   20935034.2624
  -5306686.43747  -4098410.82044  23070533.9694                   23070535.1454
 -83196475.72346 -64782086.64544  23635503.1024                   23635503.0394
 -32605777.58248 -25368301.82446  20839808.5084                   20839805.8554
 -25710610.71548 -19994356.94946  21101842.7814                   21101841.1844
 -62141441.18447 -45015482.19544  22360279.9924                   22360279.6764
 -30187911.05546 -23478585.62943  24388033.7424                   24388036.3484
 -51627218.35948 -40115284.53146  20558343.8284                   20558339.8164
 11  8 16  1  3 30.0000000  0  8G10G25G17G12G05G04G09G02
 -42040356.70347 -31889494.73445  20925305.6334                   20925304.0944
  -5475691.78547  -4230103.27744  23038373.4844                   23038374.8244
 -83216756.14846 -64797889.58244  23631644.2034                   23631643.2704
 -32721906.53148 -25458791.89846  20817709.7894                   20817707.3164
 -25864168.77748 -20114012.52346  21072621.4774                   21072620.0704
 -62142289.87547 -45016143.52744  22360119.0474                   22360118.2234
 -30187138.93446 -23477984.08243  24388181.0554                   24388183.6524
 -51696623.16848 -40169366.19146  20545136.3674                   20545132.2814
 11  8 16  1  4  0.0000000  0  8G10G25G17G12G05G04G09G02
 -42090840.05547 -31928832.39145  20915699.1484                   20915697.4304
  -5644336.78947  -4361514.92244  23006280.8054                   23006282.3014
 -83236813.44946 -64813518.65644  23627827.2814                   23627827.0434
 -32837456.16448 -25548830.56246  20795721.2344                   20795718.9694
 -26017242.80148 -20233290.91846  21043492.2504                   21043490.9304
 -62143044.04347 -45016731.18044  22359975.7114                   22359974.8634
 -30186331.80546 -23477355.28143  24388334.5084                   24388337.2854
 -51765752.02048 -40223232.82046  20531981.3834                   20531977.4454
 11  8 16  1  4 30.0000000  0  8G10G25G17G12G05G04G09G02
 -40565253.82048 -30740063.87945  21206008.5704                   21206006.6954
  -4237194.49647  -3265040.36744  23274051.5634                   23274052.6994
 -81681228.07046 -63601374.21544  23923845.2194                   23923844.4924
 -31377002.06248 -24410814.36746  21073636.2894                   21073633.9184
 -24594406.90648 -19124587.55946  21314248.8054                   21314247.3324
 -60568286.43747 -43789647.34044  22659641.8524                   22659640.9104
 -28610073.96946 -22249102.54343  24688285.5474                   24688289.2814
 -50259185.02748 -39049284.50046  20818671.9224                   20818667.9694
 11  8 16  1  5  0.0000000  0  8G10G25G17G12G05G04G09G02
 -40614445.69547 -30778395.19945  21196647.8054                   21196646.1024
  -4405116.64147  -3395888.76644  23242097.5084                   23242098.5274
 -81700844.16446 -63616659.48444  23920113.0554                   23920111.9534
 -31491394.16848 -24499951.06246  21051868.1174                   21051866.2234
 -24746511.80548 -19243110.79346  21285304.3284                   21285302.8204
 -60568861.68747 -43790095.60544  22659532.4774                   22659531.8954
 -28609211.59846 -22248430.70743  24688450.5164                   24688453.5514
 -50327771.27048 -39102728.31646  20805620.0234                   20805615.9924
 11  8 16  1  5 30.0000000  0  8G10G25G17G12G05G04G09G02
 -40662994.16448 -30816225.16445  21187409.0314                   21187407.6804
  -4572674.05147  -3526452.95344  23210212.4924                   23210213.4534
 -81720239.82046 -63631772.99644  23916421.4304                   23916420.9494
 -31605206.13348 -24588635.70746  21030210.6254                   21030207.9144
 -24898129.46148 -19361254.37146  21256452.0234                   21256450.6094
 -60569350.26247 -43790476.32044  22659439.0784                   22659438.8054
 -28608327.04746 -22247741.57443  24688618.8594                   24688622.5204
 -50396088.70348 -39155962.66446  20792619.6484                   20792615.5984
 11  8 16  1  6  0.0000000  0  8G10G25G17G12G05G04G09G02
 -40710900.00448 -30853554.37545  21178292.9454                   21178291.3134
  -4739863.28947  -3656730.25044  23178397.3834                   23178398.1764
 -81739414.06846 -63646713.95343  23912772.4774                   23912772.6174
 -31718435.61748 -24676866.45746  21008663.5944                   21008660.9964
 -25049256.64848 -19479015.75446  21227693.5634                   21227692.3014
 -60569752.93447 -43790790.10944  22659363.0084                   22659362.2814
 -28607422.59046 -22247036.96943  24688791.6174                   24688794.3204
 -50464137.67648 -39208987.82446  20779670.2194                   20779666.5514
 11  8 16  1  6 30.0000000  0  8G10G25G17G12G05G04G09G02
 -40758168.63347 -30890387.06245  21169298.0084                   21169295.7034
  -4906685.96147  -3786721.91044  23146652.0634                   23146653.0664
 -81758370.58246 -63661485.25443  23909165.8284                   23909165.4304
 -31831085.38748 -24764645.48846  20987226.7734                   20987224.8324
 -25199895.28548 -19596396.44546  21199027.9144                   21199026.5634
 -60570075.25047 -43791041.28144  22659301.7894                   22659300.6954
 -28606505.31246 -22246322.32443  24688965.8674                   24688968.7584
 -50531923.63748 -39261808.03146  20766771.1724                   20766767.1644
 11  8 16  1  7  0.0000000  0  8G10G25G17G12G05G04G09G02
 -40804800.80947 -30926723.80945  21160424.0164                   21160422.3204
  -5073138.59447  -3916425.21544  23114976.9064                   23114978.1374
 -81777108.48846 -63676086.21143  23905599.8284                   23905599.5314
 -31943153.20348 -24851971.04746  20965901.0234                   20965899.1764
 -25350042.46548 -19713394.19546  21170456.2034                   21170454.5044
 -60570317.96947 -43791230.42244  22659255.4694                   22659254.5004
 -28605577.74246 -22245599.66043  24689143.0944                   24689145.7034
 -50599447.20348 -39314423.78146  20753921.9304                   20753917.8204
 11  8 16  1  7 30.0000000  0  8G10G25G17G12G05G04G09G02
 -40850799.17247 -30962566.66045  21151670.7274                   21151669.4064
  -5239220.14847  -4045839.37544  23083372.3134                   23083374.2664
 -81795629.09446 -63690517.82443  23902074.9304                   23902075.0084
 -32054639.25448 -24938843.28946  20944686.3444                   20944683.6954
 -25499697.47348 -19830008.43046  21141977.6564                   21141976.0824
 -60570484.25047 -43791360.00044  22659223.9694                   22659222.9264
 -28604644.43046 -22244872.57043  24689321.0944                   24689324.2074
 -50666710.82448 -39366836.97746  20741121.9304                   20741118.2704
 11  8 16  1  8  0.0000000  0  8G10G25G17G12G05G04G09G02
 -40896165.85248 -30997917.30945  21143038.1094                   21143036.0044
  -5404928.60247  -4174962.81244  23051839.0234                   23051840.7974
 -81813932.95346 -63704780.53543  23898592.9144                   23898591.5594
 -32165543.18448 -25025261.91446  20923581.6094                   20923579.5984
 -25648858.45348 -19946237.70746  21113593.1884                   21113591.4344
 -60570575.89147 -43791431.41444  22659206.6024                   22659205.8634
 -28603709.05946 -22244143.85543  24689498.6024                   24689501.9924
 -50733716.43748 -39419049.13346  20728371.4694                   20728367.5394
 11  8 16  1  8 30.0000000  0  8G10G25G17G12G05G04G09G02
 -40940900.36747 -31032775.35945  21134525.0474                   21134523.4884
  -5570259.16047  -4303791.76245  23020377.4694                   23020379.6994
 -81832017.18446 -63718872.10243  23895151.6724                   23895150.5984
 -32275861.09848 -25111223.91846  20902589.0704                   20902586.9224
 -25797520.87148 -20062078.49646  21085303.9304                   21085302.0044
 -60570592.19947 -43791444.13744  22659204.3914                   22659202.5704
 -28602772.28546 -22243414.07443  24689677.0394                   24689680.6564
 -50800462.81648 -39471059.28546  20715669.7424                   20715666.0984
 11  8 16  1  9  0.0000000  0  8G10G25G17G12G05G04G09G02
 -40985009.20347 -31067145.86345  21126131.3284                   21126129.8984
  -5735214.39847  -4432328.26645  22988988.0634                   22988989.0864
 -81849887.19546 -63732796.79743  23891750.7894                   23891749.8164
 -32385596.97748 -25196732.37946  20881706.9224                   20881704.4654
 -25945688.23048 -20177533.52046  21057108.4064                   21057106.7424
 -60570539.78947 -43791403.29344  22659214.0004                   22659211.9494
 -28601842.55146 -22242689.71142  24689853.8204                   24689857.3874
 -50866956.65648 -39522872.64846  20703016.4694                   20703012.8284
 11  8 16  1  9 30.0000000  0  8G10G25G17G12G05G04G09G02
 -41028486.40247 -31101024.19145  21117858.0314                   21117856.4654
  -5899784.67647  -4560564.80544  22957670.8284                   22957672.4104
 -81867535.55946 -63746548.77043  23888392.5474                   23888391.7304
 -32494742.41448 -25281780.75046  20860937.4144                   20860935.3754
 -26093351.04748 -20292595.39846  21029008.8524                   21029007.5434
 -60570412.79747 -43791304.33244  22659237.1954                   22659236.4184
 -28600915.58646 -22241967.53143  24690030.5704                   24690034.1134
 -50933191.94148 -39574484.54746  20690412.2734                   20690408.6454
 11  8 16  1 10  0.0000000  0  8G10G25G17G12G05G04G09G02
 -41071336.57848 -31134413.91845  21109704.2274                   21109702.1414
  -6063970.20347  -4688501.53544  22926427.4454                   22926428.7384
 -81884964.84446 -63760130.04343  23885075.6644                   23885074.8054
 -32603298.59447 -25366369.96546  20840279.7894                   20840277.3874
 -26240510.12948 -20407264.76246  21001005.7194                   21001003.7624
 -60570215.64147 -43791150.71944  22659275.3054                   22659274.0664
 -28599997.52346 -22241252.33242  24690204.4304                   24690208.6174
 -50999172.53548 -39625897.98846  20677857.1094                   20677852.9184
 11  8 16  1 10 30.0000000  0  8G10G25G17G12G05G04G09G02
 -41113560.70347 -31167315.83245  21101668.7274                   21101667.0354
  -6227767.96547  -4816136.10944  22895257.8134                   22895259.1174
 -81902174.50046 -63773540.15243  23881800.1564                   23881800.4144
 -32711264.57448 -25450499.27346  20819734.4614                   20819732.0274
 -26387162.54748 -20521539.31246  20973098.0784                   20973096.7664
 -60569949.10947 -43790943.02744  22659325.3594                   22659324.6214
 -28599090.91846 -22240546.01242  24690377.1804                   24690381.8954
 -51064899.30948 -39677113.65246  20665348.8594                   20665345.2384
 11  8 16  1 11  0.0000000  0  8G10G25G17G12G05G04G09G02
 -41155161.38748 -31199731.93045  21093752.6804                   21093750.8794
  -6391176.48847  -4943467.38744  22864162.5164                   22864163.3674
 -81919165.21546 -63786779.65643  23878567.2974                   23878566.9304
 -32818640.07848 -25534168.47746  20799301.4144                   20799299.2194
 -26533307.60248 -20635418.52046  20945287.6804                   20945286.0044
 -60569615.78947 -43790683.29344  22659389.3134                   22659388.1644
 -28598199.74646 -22239851.69942  24690547.2814                   24690551.4304
 -51130374.53948 -39728133.30546  20652889.7504                   20652885.6374
 11  8 16  1 11 30.0000000  0  8G10G25G17G12G05G04G09G02
 -41196137.18047 -31231661.10945  21085955.0704                   21085953.6374
  -6554190.02747  -5070490.86744  22833141.8204                   22833142.9574
 -81935933.89846 -63799846.16443  23875376.0784                   23875375.5594
 -32925420.60548 -25617374.06246  20778981.6564                   20778979.5044
 -26678939.62548 -20748897.96946  20917574.8524                   20917573.2664
 -60569213.97347 -43790370.18444  22659466.1484                   22659464.5554
 -28597324.07846 -22239169.52042  24690713.9224                   24690718.2234
 -51195596.38748 -39778955.50846  20640478.2114                   20640474.4224
 11  8 16  1 12  0.0000000  0  8G10G25G17G12G05G04G09G02
 -41236496.90647 -31263110.23045  21078275.1884                   21078273.2344
  -6716812.93047  -5197209.96544  22802196.1024                   22802196.8404
 -81952487.32846 -63812744.91043  23872226.5164                   23872225.5354
 -33031611.84048 -25700120.45346  20758774.6724                   20758772.0234
 -26824063.85248 -20861981.72746  20889958.7504                   20889957.0234
 -60568751.85947 -43790010.09844  22659553.2034                   22659552.4534
 -28596473.73846 -22238507.03543  24690876.1724                   24690879.4264
 -51260572.61748 -39829586.33246  20628113.8674                   20628110.2194
 11  8 16  1 12 30.0000000  0  8G10G25G17G12G05G04G09G02
 -41276236.96947 -31294076.50445  21070712.9224                   21070710.7934
  -6879037.69147  -5323618.82444  22771325.4454                   22771325.9064
 -81968820.18446 -63825471.82043  23869118.1564                   23869117.7234
 -33137207.94148 -25782403.10946  20738679.8364                   20738677.6954
 -26968673.16448 -20974664.25846  20862440.4384                   20862438.9804
 -60568225.83647 -43789600.20744  22659653.3834                   22659652.7704
 -28595646.87546 -22237862.86342  24691033.5784                   24691036.8284
 -51325299.95348 -39880023.20746  20615796.7114                   20615792.5664
 11  8 16  1 13  0.0000000  0  8G10G25G17G12G05G04G09G02
 -41315363.75847 -31324564.91045  21063266.8914                   21063265.4064
  -7040866.66847  -5449719.28544  22740530.2734                   22740531.2624
 -81984937.10546 -63838030.41844  23866051.3444                   23866050.5354
 -33242212.41848 -25864224.76246  20718698.2894                   20718695.8594
 -27112770.27348 -21086947.67246  20835019.4844                   20835018.0594
 -60567642.03947 -43789145.31644  22659765.1254                   22659763.7464
 -28594851.31246 -22237243.08243  24691184.6564                   24691188.4104
 -51389784.04348 -39930270.53946  20603525.7194                   20603521.8244
 11  8 16  1 13 30.0000000  0  8G10G25G17G12G05G04G09G02
 -41353879.26247 -31354576.98045  21055937.8054                   21055936.4184
  -7202297.46547  -5575509.47344  22709810.7734                   22709811.8404
 -82000838.25046 -63850420.89144  23863025.5164                   23863025.0784
 -33346624.21148 -25945584.56646  20698829.5784                   20698826.9844
 -27256353.37948 -21198830.56646  20807696.5394                   20807695.0354
 -60567002.23047 -43788646.77044  22659886.6724                   22659885.8134
 -28594089.96946 -22236649.96543  24691329.7034                   24691333.2464
 -51454026.32448 -39980329.44546  20591300.6884                   20591296.7384
 11  8 16  1 14  0.0000000  0  8G10G25G17G12G05G04G09G02
 -41391783.37947 -31384112.64845  21048724.7814                   21048723.2194
  -7363325.56647  -5700985.87144  22679168.5164                   22679169.2934
 -82016521.59846 -63862641.66444  23860040.8134                   23860040.1724
 -33450440.56648 -26026480.41446  20679073.5864                   20679071.5784
 -27399418.53548 -21310309.84846  20780472.0474                   20780470.2304
 -60566305.41447 -43788103.80944  22660019.1564                   22660017.9494
 -28593363.96146 -22236084.35943  24691468.1174                   24691471.6994
 -51518025.88348 -40030199.21946  20579122.0554                   20579118.1644
 11  8 16  1 14 30.0000000  0  8G10G25G17G12G05G04G09G02
 -39853653.18747 -30185569.62145  21341420.7894                   21341419.6644
  -5948519.80947  -4598539.78544  22948397.0084                   22948397.9734
 -80456563.05146 -62647089.52344  24156890.8984                   24156891.0594
 -31978233.82048 -24879306.31246  20959224.9614                   20959222.6374
 -25966535.57848 -20193777.62146  21053140.7584                   21053139.0044
 -58990129.72747 -42559914.96544  22959955.3054                   22959954.8674
 -27017252.90246 -21007946.00843  24991392.1804                   24991395.8594
 -50006358.81248 -38852276.81246  20866782.4774                   20866778.6604
 11  8 16  1 15  0.0000000  0  7G10G25G17G12G05G04G02
 -39890336.31247 -30214153.87545  21334440.6254                   21334439.1844
  -6108731.78547  -4723380.25444  22917908.9924                   22917910.1604
 -80471807.25846 -62658968.10944  24153990.3204                   24153989.9774
 -32080853.15248 -24959269.40646  20939697.4924                   20939694.8594
 -26108555.55948 -20304442.48046  21026115.5864                   21026113.2934
 -58989320.08647 -42559284.07844  22960109.5944                   22960108.9184
 -50069873.92248 -38901769.10246  20854696.2194                   20854692.0704
 11  8 16  1 15 30.0000000  0  7G10G25G17G12G05G04G02
 -39926412.54747 -30242265.21945  21327575.5784                   21327574.4774
  -6268532.94547  -4847900.60545  22887500.3284                   22887501.3364
 -80486832.60946 -62670676.13344  24151131.4224                   24151130.2664
 -32182873.30548 -25038765.61746  20920283.8364                   20920281.5784
 -26250051.01648 -20414698.64146  20999189.7424                   20999187.5004
 -58988456.87147 -42558611.45344  22960273.4774                   22960273.4064
 -50133149.33248 -38951074.59846  20842655.4844                   20842651.2544
 11  8 16  1 16  0.0000000  0  7G10G25G17G12G05G04G02
 -39961880.39547 -30269902.48845  21320826.6954                   21320825.1454
  -6427917.53947  -4972096.34445  22857170.7194                   22857171.4264
 -80501635.64846 -62682210.94144  24148314.4144                   24148312.6884
 -32284290.12948 -25117791.70346  20900984.3364                   20900982.1644
 -26391016.88348 -20524542.12546  20972364.7034                   20972362.9924
 -58987538.04747 -42557895.48044  22960448.2814                   22960448.0044
 -50196182.99248 -39000191.72746  20830660.4924                   20830656.2624
 11  8 16  1 16 30.0000000  0  7G10G25G17G12G05G04G02
 -39996743.13747 -30297068.25445  21314192.5004                   21314190.8404
  -6586884.62547  -5095966.76645  22826920.1724                   22826920.6564
 -80516218.05146 -62693573.80544  24145539.4774                   24145538.3674
 -32385104.07448 -25196348.01246  20881800.7974                   20881798.0944
 -26531452.77748 -20633972.62946  20945640.1024                   20945638.7154
 -58986566.50047 -42557138.43444  22960633.4694                   22960632.6644
 -50258978.14548 -39049123.00046  20818710.6954                   20818706.4654
 11  8 16  1 17  0.0000000  0  7G10G25G17G12G05G04G02
 -40030996.56247 -30323759.21145  21307674.2194                   21307672.4774
  -6745425.33647  -5219504.96145  22796750.5164                   22796751.5634
 -80530573.19546 -62704759.60544  24142806.9694                   24142806.9184
 -32485308.09448 -25274429.04746  20862732.3984                   20862730.0004
 -26671350.36348 -20742983.68046  20919018.6884                   20919017.2544
 -58985537.14547 -42556336.32844  22960828.8134                   22960828.3324
 -50321528.84448 -39097863.79746  20806807.8204                   20806803.6254
 11  8 16  1 17 30.0000000  0  7G10G25G17G12G05G04G02
 -40064646.75047 -30349980.12945  21301270.6564                   21301268.4414
  -6903541.40647  -5342712.25845  22766662.0864                   22766662.7854
 -80544705.48846 -62715771.75844  24140118.1094                   24140117.6524
 -32584905.51248 -25352037.40246  20843779.7274                   20843777.0634
 -26810711.98048 -20851577.09446  20892499.2344                   20892497.6954
 -58984455.62546 -42555493.57844  22961034.8834                   22961034.2894
 -50383840.73048 -39146418.49646  20794950.1254                   20794946.5704
 11  8 16  1 18  0.0000000  0  7G10G25G17G12G05G04G02
 -40097697.31247 -30375733.80145  21294981.1564                   21294979.7974
  -7061232.42247  -5465588.34045  22736653.8364                   22736654.9534
 -80558616.57846 -62726611.51243  24137470.4924                   24137470.2424
 -32683897.39848 -25429173.93046  20824942.0164                   20824939.5634
 -26949537.86748 -20959753.05946  20866081.8054                   20866079.6564
 -58983325.17646 -42554612.69944  22961249.8204                   22961249.4414
 -50445917.23448 -39194789.79346  20783137.4304                   20783133.6844
 11  8 16  1 18 30.0000000  0  7G10G25G17G12G05G04G02
 -40130148.29347 -30401020.27045  21288806.0164                   21288804.4264
  -7218493.82047  -5588129.66045  22706728.2974                   22706729.5124
 -80572304.50846 -62737277.37943  24134865.6254                   24134865.3364
 -32782280.91048 -25505836.40246  20806220.2274                   20806217.6524
 -27087823.95348 -21067508.39846  20839766.3364                   20839765.1254
 -58982144.78946 -42553692.92244  22961474.9774                   22961473.6994
 -50507757.40248 -39242976.93046  20771369.8364                   20771365.3874
 11  8 16  1 19  0.0000000  0  7G10G25G17G12G05G04G02
 -40162005.35547 -30425843.94145  21282743.8984                   21282742.0904
  -7375326.93747  -5710337.22745  22676884.1024                   22676885.2304
 -80585773.05946 -62747772.32843  24132303.3364                   24132302.1214
 -32880058.90648 -25582027.02746  20787613.5004                   20787611.2934
 -27225571.90648 -21174844.41446  20813553.6414                   20813552.2704
 -58980919.50846 -42552738.14544  22961707.7194                   22961707.2114
 -50569366.09048 -39290983.69546  20759645.9144                   20759641.8834
 11  8 16  1 19 30.0000000  0  7G10G25G17G12G05G04G02
 -40193269.86348 -30450205.88745  21276794.6804                   21276792.7154
  -7531728.51647  -5832208.56245  22647121.9144                   22647122.7974
 -80599021.05146 -62758095.39143  24129782.1024                   24129781.0474
 -32977229.74248 -25657744.54746  20769122.5234                   20769120.3284
 -27362780.00448 -21281759.76646  20787443.8754                   20787442.0514
 -58979649.78146 -42551748.75844  22961949.7814                   22961948.6994
 -50630743.56648 -39338810.27746  20747966.1334                   20747962.4104
 11  8 16  1 20  0.0000000  0  7G10G25G17G12G05G04G02
 -40223943.78947 -30474107.62945  21270957.1414                   21270955.4734
  -7687696.35547  -5953741.90645  22617442.0784                   22617442.9264
 -80612049.03945 -62768247.07842  24127302.5234                   24127302.1334
 -33073793.17248 -25732988.77046  20750747.0474                   20750744.9614
 -27499446.27348 -21388252.91446  20761437.3364                   20761435.4654
 -58978337.02346 -42550725.83343  22962199.7034                   22962198.3554
 -50691891.48448 -39386458.00446  20736330.4224                   20736325.7274
 11  8 16  1 20 30.0000000  0  7G10G25G17G12G05G04G02
 -40254031.84847 -30497552.85945  21265231.8284                   21265229.8524
  -7843231.00047  -6074937.69545  22587844.8364                   22587845.8204
 -80624859.81645 -62778229.47342  24124864.7894                   24124864.5944
 -33169751.01648 -25807761.10246  20732486.7424                   20732484.5594
 -27635571.82048 -21494324.71946  20735533.4144                   20735531.7974
 -58976985.28946 -42549672.54744  22962456.3204                   22962455.8594
 -50752813.70748 -39433929.85546  20724736.8134                   20724733.1134
 11  8 16  1 21  0.0000000  0  7G10G25G17G12G05G04G02
 -40283532.37947 -30520540.27045  21259618.0474                   21259616.8364
  -7998326.09447  -6195790.96545  22558331.3594                   22558332.2774
 -80637449.49245 -62788039.62142  24122468.8444                   24122468.2734
 -33265098.99648 -25882058.21946  20714343.3284                   20714340.3674
 -27771150.91048 -21599970.71146  20709733.1884                   20709731.6604
 -58975592.03946 -42548586.89844  22962722.1564                   22962721.3444
 -50813507.54748 -39481223.74246  20713186.9694                   20713183.3204
 11  8 16  1 21 30.0000000  0  7G10G25G17G12G05G04G02
 -40312449.03947 -30543072.72745  21254115.1024                   21254113.5434
  -8152980.87147  -6316301.14845  22528901.7664                   22528902.5394
 -80649819.80146 -62797678.82443  24120114.8364                   24120114.4454
 -33359837.56248 -25955880.46546  20696314.8914                   20696312.3404
 -27906183.59048 -21705190.93446  20684037.6174                   20684035.7194
 -58974159.93746 -42547470.95744  22962993.9224                   22962994.0594
 -50873976.12548 -39528342.10246  20701680.6724                   20701676.6214
 11  8 16  1 22  0.0000000  0  7G10G25G17G12G05G04G02
 -40340783.59847 -30565151.59845  21248723.2584                   21248721.8834
  -8307192.32047  -6436465.89545  22499555.8444                   22499557.4494
 -80661969.76646 -62807146.29743  24117802.3204                   24117802.9264
 -33453965.55548 -26029226.93746  20678402.9534                   20678400.4024
 -28040667.70348 -21809983.69946  20658445.7814                   20658443.9144
 -58972689.50046 -42546325.16844  22963273.8204                   22963273.6684
 -50934219.45347 -39575284.93746  20690217.2504                   20690212.6994
 11  8 16  1 22 30.0000000  0  7G10G25G17G12G05G04G02
 -40368545.71947 -30586784.40645  21243440.6334                   21243438.8794
  -8460965.77747  -6556289.33245  22470293.9454                   22470294.9384
 -80673907.21146 -62816448.18442  24115531.7194                   24115530.7234
 -33547490.38747 -26102103.41446  20660605.6724                   20660603.2154
 -28174609.04748 -21914353.53146  20632957.6094                   20632955.6684
 -58971189.82047 -42545156.57444  22963558.6804                   22963559.2894
 -50994246.62947 -39622059.34846  20678794.2664                   20678789.4494
 11  8 16  1 23  0.0000000  0  7G10G25G17G12G05G04G02
 -40395732.12947 -30607968.62545  21238267.2894                   21238265.6254
  -8614293.68747  -6675765.59845  22441116.6884                   22441117.2934
 -80685627.21946 -62825580.52743  24113301.7504                   24113300.1764
 -33640406.08248 -26174505.23446  20642924.2664                   20642922.0864
 -28308000.74248 -22018295.07446  20607574.1804                   20607572.1564
 -58969656.80147 -42543962.02344  22963851.0944                   22963850.2934
 -51054053.55148 -39668662.12546  20667412.8284                   20667409.4774
 11  8 16  1 23 30.0000000  0  7G10G25G17G12G05G04G02
 -40422349.86347 -30628709.69945  21233201.9924                   21233200.1684
  -8767178.68747  -6794896.73045  22412023.3674                   22412024.5124
 -80697134.44146 -62834547.19143  24111111.3134                   24111110.3914
 -33732716.94148 -26246435.75846  20625358.2504                   20625355.7584
 -28440846.43448 -22121811.14846  20582294.4694                   20582292.3364
 -58968096.53546 -42542746.22744  22964148.1024                   22964147.5164
 -51113646.30547 -39715098.01646  20656072.7344                   20656068.4304
 11  8 16  1 24  0.0000000  0  7G10G25G17G12G05G04G02
 -38872974.99647 -29421404.60945  21528037.8984                   21528036.3714
  -7344187.92647  -5686072.72345  22682809.3204                   22682810.3484
 -79133003.30546 -61615743.67243  24408755.8364                   24408754.5434
 -32248994.16448 -25090288.11346  20907701.4614                   20907698.7734
 -26997714.64148 -20997292.82046  20856913.3284                   20856911.6134
 -57391084.63746 -41313905.77743  23264243.2734                   23264242.7544
 -49597598.71548 -38533762.22346  20944567.3204                   20944563.0274
 11  8 16  1 24 30.0000000  0  7G10G25G17G12G05G04G02
 -38898450.55947 -29441255.68045  21523190.1564                   21523188.7384
  -7496168.32447  -5804498.98045  22653888.7424                   22653889.2424
 -79144073.70746 -61624369.89843  24406649.3284                   24406647.9534
 -32340082.25848 -25161265.83646  20890368.2114                   20890365.3554
 -27129451.67648 -21099945.01646  20831844.2344                   20831842.5474
 -57389461.40246 -41312640.93043  23264552.2274                   23264551.5984
 -49656755.00448 -38579858.01646  20933309.8914                   20933305.8484
 11  8 16  1 25  0.0000000  0  8G10G25G17G12G05G04G29G02
 -38923361.75047 -29460666.98445  21518450.0864                   21518448.4264
  -7647696.56647  -5922572.90645  22625053.8134                   22625054.5314
 -79154929.55946 -61632828.98443  24404583.3284                   24404582.1174
 -32430561.72348 -25231769.28946  20873150.1884                   20873147.8674
 -27260635.54748 -21202166.16846  20806881.1804                   20806879.0824
 -57387812.07846 -41311355.71943  23264866.0864                   23264864.9964
  13941946.85956  10913887.76652  24750944.8284                   24750945.6094
 -49715698.37148 -38625787.89846  20922093.4224                   20922089.4924
 11  8 16  1 25 30.0000000  0  8G10G25G17G12G05G04G29G02
 -38947713.50047 -29479642.36345  21513816.0004                   21513814.0784
  -7798772.79747  -6040294.62145  22596305.1644                   22596305.5354
 -79165573.11346 -61641122.63343  24402557.7114                   24402556.7704
 -32520434.66848 -25301800.13746  20856047.9454                   20856045.9774
 -27391267.32848 -21303957.12946  20782022.4454                   20782020.3204
 -57386140.09846 -41310052.89143  23265184.3054                   23265183.3134
  13781334.56346  10788735.41042  24720381.3134                   24720382.1374
 -49774432.60248 -38671554.82046  20910916.7814                   20910913.0594
 11  8 16  1 26  0.0000000  0  8G10G25G17G12G05G04G29G02
 -38971511.91047 -29498186.57045  21509286.9384                   21509285.5204
  -7949398.75447  -6157665.46545  22567642.1414                   22567642.4264
 -79176008.43446 -61649254.00843  24400571.8364                   24400570.7194
 -32609704.51248 -25371361.03946  20839060.1484                   20839057.9304
 -27521349.14548 -21405319.53946  20757268.7274                   20757266.7034
 -57384450.87546 -41308736.59843  23265505.7424                   23265504.8284
  13620670.44145  10663542.63742  24689807.5004                   24689809.8874
 -49832962.46948 -38717162.49646  20899778.9064                   20899774.8714
 11  8 16  1 26 30.0000000  0  8G10G25G17G12G05G04G29G02
 -38994763.86347 -29516304.96945  21504862.4304                   21504860.7664
  -8099576.93747  -6274687.40245  22539064.0084                   22539064.5864
 -79186240.80946 -61657227.26643  24398625.0234                   24398624.1684
 -32698375.68048 -25440455.43046  20822186.4774                   20822184.3204
 -27650884.84048 -21506256.41046  20732618.9384                   20732616.1884
 -57382750.13746 -41307411.35543  23265828.8984                   23265828.5394
  13459949.92645  10538305.96542  24659223.8674                   24659225.8524
 -49891294.19548 -38762615.77346  20888678.6724                   20888674.7504
 11  8 16  1 27  0.0000000  0  8G10G25G17G12G05G04G29G02
 -39017466.35247 -29533995.21145  21500542.5474                   21500540.6134
  -8249299.77747  -6391354.51245  22510572.2194                   22510573.1644
 -79196264.87946 -61665038.19544  24396717.5944                   24396717.2464
 -32786442.73048 -25509079.09046  20805428.1954                   20805425.4964
 -27779867.62948 -21606762.43446  20708074.4454                   20708072.4694
 -57381033.66046 -41306073.84443  23266155.9384                   23266155.1604
  13299179.34845  10413030.29342  24628630.1174                   24628632.3324
 -49949423.84848 -38807911.59046  20877616.9844                   20877612.8014
 11  8 16  1 27 30.0000000  0  8G10G25G17G12G05G04G29G02
 -39039625.48447 -29551262.06245  21496326.1024                   21496324.3054
  -8398568.62947  -6507667.86745  22482166.6484                   22482168.5354
 -79206084.14546 -61672689.53943  24394849.2504                   24394848.6054
 -32873908.59848 -25577234.29346  20788783.9774                   20788781.5554
 -27908299.26248 -21706838.99246  20683634.4304                   20683632.4654
 -57379305.99246 -41304727.59843  23266484.8284                   23266484.1374
  13138355.48045  10287713.13342  24598025.4534                   24598027.7814
 -50007355.62148 -38853053.22346  20866592.8914                   20866589.0354
 11  8 16  1 28  0.0000000  0  8G10G25G17G12G05G04G29G02
 -39061245.01247 -29568108.43445  21492211.5784                   21492209.8204
  -8547382.75447  -6623626.89145  22453849.4224                   22453849.1094
 -79215700.20346 -61680182.50443  24393019.1094                   24393017.8054
 -32960774.25448 -25644921.79746  20772254.2664                   20772251.4924
 -28036180.18748 -21806486.42246  20659299.5234                   20659297.8134
 -57377569.88747 -41303374.77343  23266816.0864                   23266814.5164
  12977477.24245  10162353.60242  24567412.3204                   24567413.7504
 -50065092.50048 -38898042.98046  20855605.6094                   20855601.6684
 11  8 16  1 28 30.0000000  0  8G10G25G17G12G05G04G29G02
 -39082319.12947 -29584529.80945  21488201.4384                   21488199.6604
  -8695731.82847  -6739223.53145  22425619.1724                   22425619.6764
 -79225105.16846 -61687511.00443  24391228.5394                   24391228.1294
 -33047031.66048 -25712135.34446  20755839.5394                   20755837.2074
 -28163500.92248 -21905697.34846  20635071.2974                   20635069.0944
 -57375818.28947 -41302009.89544  23267148.8204                   23267147.9184
  12816552.97746  10036958.19943  24536789.6724                   24536789.8794
 -50122627.60948 -38942875.52746  20844656.9144                   20844653.1214
 11  8 16  1 29  0.0000000  0  8G10G25G17G12G05G04G29G02
 -39102844.96147 -29600523.96145  21484295.0864                   21484293.6844
  -8843608.46147  -6854452.03945  22397478.8834                   22397480.0824
 -79234294.19945 -61694671.27343  24389480.0784                   24389479.7624
 -33132674.89148 -25778870.30946  20739542.1564                   20739539.6994
 -28290254.84048 -22004466.59046  20610950.8524                   20610948.7544
 -57374047.16046 -41300629.78944  23267485.6804                   23267484.5164
  12655588.53546   9911531.46143  24506158.1884                   24506159.1484
 -50179956.67248 -38987547.52046  20833747.5634                   20833744.3554
 11  8 16  1 29 30.0000000  0  8G10G25G17G12G05G04G29G02
 -39122832.91047 -29616098.98045  21480491.7344                   21480489.7814
  -8991018.57047  -6969317.02045  22369427.7194                   22369428.5394
 -79243275.63345 -61701669.76643  24387771.3284                   24387771.1564
 -33217712.64848 -25845133.48046  20723360.3444                   20723357.7624
 -28416448.67248 -22102799.41046  20586936.9144                   20586934.9774
 -57372265.50446 -41299241.49244  23267824.7034                   23267823.9734
  12494576.38746   9786067.57843  24475518.8754                   24475519.8014
 -50237088.91448 -39032066.13746  20822875.6174                   20822872.0554
 11  8 16  1 30  0.0000000  0  8G10G25G17G12G05G04G29G02
 -39142285.71947 -29631257.00845  21476789.7424                   21476788.1054
  -9137960.31647  -7083817.03945  22341465.4924                   22341466.1684
 -79252049.77345 -61708506.72343  24386100.9844                   24386101.1724
 -33302144.49248 -25910924.50846  20707293.3984                   20707290.7584
 -28542081.39848 -22200695.00446  20563029.8284                   20563028.2274
 -57370474.62546 -41297845.98443  23268165.2034                   23268164.7894
  12333516.59046   9660566.54344  24444870.3984                   24444870.8404
 -50294025.97348 -39076432.66846  20812041.2814                   20812037.1684
 11  8 16  1 30 30.0000000  0  8G10G25G17G12G05G04G29G02
 -39161203.25447 -29645997.93045  21473189.5314                   21473188.5664
  -9284428.83247  -7197948.30145  22313593.5314                   22313593.8164
 -79260614.02045 -61715180.13742  24384471.5394                   24384471.2234
 -33385967.62547 -25976241.21546  20691342.1644                   20691339.5084
 -28667149.04348 -22298150.26246  20539230.4224                   20539228.1684
 -57368673.17246 -41296442.27743  23268507.8524                   23268507.9494
  12172412.22746   9535030.77744  24414213.6414                   24414213.9304
 -50350766.09848 -39120645.73446  20801243.9924                   20801240.0744
 11  8 16  1 31  0.0000000  0  8G10G25G17G12G05G04G29G02
 -39179588.28947 -29660323.92645  21469691.3204                   21469689.8794
  -9430422.46147  -7311709.52745  22285811.8594                   22285812.5164
 -79268969.13745 -61721690.64842  24382881.1564                   24382881.6174
 -33469182.36348 -26041083.84046  20675506.7114                   20675504.6764
 -28791651.06648 -22395164.79346  20515538.0164                   20515535.8634
 -57366862.77346 -41295031.57443  23268852.1644                   23268851.9414
  12011263.39547   9409460.34444  24383548.0864                   24383547.6054
 -50407311.05148 -39164706.72746  20790483.7114                   20790479.7584
 11  8 16  1 31 30.0000000  0  8G10G25G17G12G05G04G29G02
 -39197442.92247 -29674236.62545  21466293.8984                   21466291.9384
  -9575938.52347  -7425098.62145  22258121.1414                   22258122.0864
 -79277114.67245 -61728037.79742  24381331.9924                   24381331.8244
 -33551787.83648 -26105451.73046  20659787.6954                   20659785.0904
 -28915585.52048 -22491737.05546  20491954.0004                   20491952.3324
 -57365043.44946 -41293613.90243  23269198.5004                   23269197.8094
  11850071.33246   9283856.23844  24352873.7584                   24352873.8244
 -50463661.28148 -39208615.98046  20779760.6724                   20779756.6684
 11  8 16  1 32  0.0000000  0  8G10G25G17G12G05G04G29G02
 -39214769.07847 -29687737.53145  21462996.6724                   21462995.3444
  -9720974.44547  -7538113.57845  22230521.9534                   22230522.5434
 -79285050.55545 -61734221.59843  24379822.3134                   24379821.6954
 -33633783.35947 -26169344.33246  20644184.6174                   20644182.1414
 -29038950.94148 -22587865.91046  20468478.3674                   20468476.3834
 -57363215.95746 -41292189.90243  23269546.5164                   23269545.3404
  11688836.82847   9158219.03144  24322192.2734                   24322191.3834
 -50519817.64848 -39252374.18046  20769074.3834                   20769070.5124
 11  8 16  1 32 30.0000000  0  8G10G25G17G12G05G04G29G02
 -39231568.02347 -29700827.61745  21459800.3364                   21459798.5314
  -9865527.03547  -7650751.92245  22203014.5234                   22203014.9804
 -79292775.70746 -61740241.14843  24378351.9534                   24378350.8954
 -33715168.12148 -26232761.01246  20628697.4614                   20628694.8554
 -29161744.81648 -22683549.41446  20445111.4774                   20445109.0704
 -57361380.25446 -41290759.48043  23269895.8834                   23269894.7384
  11527561.39846   9032549.94143  24291502.5314                   24291502.5044
 -50575779.93448 -39295981.14146  20758425.1414                   20758421.1884
 11  8 16  1 33  0.0000000  0  7G10G25G12G05G04G29G02
 -39247843.48847 -29713509.80145  21456703.0394                   21456701.1294
 -10009595.31247  -7763012.88345  22175598.7894                   22175600.0784
 -33795943.41848 -26295702.78146  20613326.2034                   20613323.7704
 -29283967.25048 -22778787.63346  20421853.0164                   20421851.1054
 -57359538.31646 -41289324.19143  23270246.5234                   23270245.4454
  11366244.83246   8906848.76643  24260804.7814                   24260804.4884
 -50631550.66048 -39339438.83646  20747812.0864                   20747807.9104
 11  8 16  1 33 30.0000000  0  7G10G25G12G05G04G29G02
 -37688175.44947 -28498184.03945  21753497.9774                   21753496.1214
  -8577750.33647  -6647289.49245  22448069.7664                   22448070.6094
 -32300683.38348 -25130565.07446  20897865.0554                   20897862.0704
 -27830190.88348 -21645974.83646  20698497.5864                   20698495.8834
 -55782269.16846 -40060283.29743  23570390.5474                   23570389.9694
  12780315.24246  10008721.85543  24529893.6954                   24529892.8204
 -49111706.65248 -38155144.78946  21037029.0474                   21037025.0274
 11  8 16  1 34  0.0000000  0  7G10G25G12G05G04G29G02
 -37703406.06247 -28510052.05145  21750599.6884                   21750597.8954
  -8720838.52347  -6758786.75445  22420841.0944                   22420841.2584
 -32380233.54348 -25192552.18746  20882726.7734                   20882724.2624
 -27951261.61748 -21740315.63746  20675458.6724                   20675456.8484
 -55780412.71546 -40058836.69543  23570744.5864                   23570743.7274
  12618923.21946   9882961.88743  24499182.1954                   24499181.9144
 -49167091.96548 -38198302.15646  21026489.5944                   21026485.4494
 11  8 16  1 34 30.0000000  0  7G10G25G12G05G04G29G02
 -37718113.28947 -28521512.21945  21747800.8134                   21747798.8634
  -8863428.73847  -6869895.97345  22393707.0474                   22393707.8714
 -32459166.63348 -25254058.47746  20867706.2584                   20867704.0234
 -28071749.81648 -21834202.50446  20652530.3284                   20652528.6134
 -55778545.67246 -40057381.84843  23571099.6724                   23571098.7704
  12457499.05546   9757176.88343  24468463.4384                   24468463.1334
 -49222281.40648 -38241306.90646  21015987.4694                   21015983.2114
 11  8 16  1 35  0.0000000  0  7G10G25G12G05G04G29G02
 -37732300.94547 -28532567.53945  21745101.5084                   21745099.3364
  -9005520.29347  -6980616.63745  22366668.2504                   22366668.4264
 -32537483.96948 -25315084.96546  20852803.3204                   20852800.7424
 -28191656.01648 -21927635.87546  20629712.8914                   20629710.9184
 -55776670.25846 -40055920.45343  23571456.0164                   23571455.3984
  12296041.86346   9631366.09043  24437738.8594                   24437739.0664
 -49277277.45748 -38284160.95346  21005522.1484                   21005517.3754
 11  8 16  1 35 30.0000000  0  7G10G25G12G05G04G29G02
 -37745970.16447 -28543218.87945  21742499.8674                   21742497.8324
  -9147109.55147  -7090945.87945  22339724.6414                   22339725.4884
 -32615183.66448 -25375630.16446  20838017.5234                   20838014.9884
 -28310977.77048 -22020613.82046  20607007.2734                   20607004.7504
 -55774785.71146 -40054451.97343  23571814.6954                   23571813.9304
  12134554.19146   9505531.57043  24407008.9694                   24407008.9264
 -49332079.32448 -38326863.68446  20995093.4534                   20995088.9884
 11  8 16  1 36  0.0000000  0  7G10G25G12G05G04G29G02
 -37759130.92647 -28553474.01645  21739995.7974                   21739993.8094
  -9288202.23047  -7200888.18745  22312874.8524                   22312875.3134
 -32692273.35948 -25435700.05146  20823347.7974                   20823345.1524
 -28429721.61748 -22113141.45746  20584410.6954                   20584408.4344
 -55772900.90246 -40052983.28943  23572173.3754                   23572173.0664
  11973028.94146   9379667.79343  24376272.0164                   24376271.2624
 -49386696.12548 -38369422.21146  20984700.4694                   20984696.2194
 11  8 16  1 36 30.0000000  0  7G10G25G12G05G04G29G02
 -37771781.68447 -28563331.73845  21737587.8204                   21737586.5514
  -9428791.94547  -7310438.59045  22286121.7894                   22286122.2774
 -32768749.61348 -25495291.92646  20808794.8984                   20808792.2424
 -28547882.00048 -22205214.44546  20561925.2584                   20561923.4694
 -55771012.25446 -40051511.59443  23572533.3754                   23572532.9414
  11811471.00846   9253778.52043  24345528.3284                   24345527.5984
 -49441124.41448 -38411833.83246  20974343.1804                   20974338.6414
 11  8 16  1 37  0.0000000  0  7G10G25G12G05G04G29G02
 -37783931.69547 -28572799.28545  21735276.6024                   21735274.7504
  -9568883.48047  -7419600.77745  22259463.3754                   22259463.9304
 -32844618.77348 -25554410.74646  20794357.3984                   20794354.6454
 -28665464.83648 -22296837.38746  20539550.1804                   20539548.1414
 -55769127.33646 -40050042.84043  23572892.1254                   23572890.8244
  11649874.16046   9127858.94143  24314776.8444                   24314776.2664
 -49495371.91048 -38454104.58646  20964019.8594                   20964015.7814
 11  8 16  1 37 30.0000000  0  7G10G25G12G05G04G29G02
 -37795580.18747 -28581876.03545  21733059.0864                   21733058.0044
  -9708471.59847  -7528370.71145  22232900.6414                   22232901.0354
 -32919877.89548 -25613054.21146  20780035.8204                   20780033.4304
 -28782465.96548 -22388007.06246  20517285.5784                   20517283.2814
 -55767244.03946 -40048575.33243  23573249.8444                   23573249.2304
  11488242.23446   9001912.01643  24284019.3674                   24284019.4144
 -49549436.55948 -38496232.87146  20953731.8204                   20953727.6954
 11  8 16  1 38  0.0000000  0  7G10G25G12G05G04G29G02
 -37806729.64547 -28590563.91845  21730937.7274                   21730936.0004
  -9847553.89147  -7636746.49645  22206433.9774                   22206434.4534
 -32994526.85548 -25671222.22746  20765830.6804                   20765828.2814
 -28898883.94548 -22478722.32846  20495131.7504                   20495129.8794
 -55765362.65246 -40047109.29743  23573607.7814                   23573607.2854
  11326576.50446   8875938.76643  24253255.4614                   24253255.3674
 -49603319.00848 -38538219.17646  20943478.0314                   20943474.1254
 11  8 16  1 38 30.0000000  0  7G10G25G12G05G04G29G02
 -37817384.57047 -28598866.44945  21728910.0234                   21728908.6334
  -9986130.82847  -7744728.49645  22180063.8134                   22180064.2424
 -33068567.84048 -25728916.49246  20751741.1484                   20751738.7034
 -29014719.98048 -22568984.13746  20473088.7584                   20473087.0904
 -55763486.52046 -40045647.39143  23573964.5004                   23573964.1024
  11164875.23046   8749937.86743  24222484.6804                   24222484.9574
 -49657022.72347 -38580066.21146  20933258.5784                   20933254.6724
 11  8 16  1 39  0.0000000  0  7G10G25G12G05G04G29G02
 -37827546.46147 -28606784.80945  21726976.1884                   21726975.1564
 -10124199.07447  -7852314.11345  22153789.7034                   22153790.6294
 -33142000.25448 -25786136.55946  20737767.1644                   20737765.2424
 -29129972.21548 -22658791.03946  20451157.3134                   20451155.1374
 -55761614.90246 -40044188.98443  23574321.1174                   23574320.3634
  11003140.48046   8623910.85243  24191707.4304                   24191707.7734
 -49710547.21148 -38621773.57846  20923073.5784                   20923069.3634
 11  8 16  1 39 30.0000000  0  7G10G25G12G05G04G29G02
 -37837220.62147 -28614323.10545  21725135.6564                   21725134.0434
 -10261759.26647  -7959503.84445  22127613.3984                   22127613.9064
 -33214826.60248 -25842884.35546  20723909.1254                   20723906.6724
 -29244642.26248 -22748144.28146  20429336.2424                   20429333.9574
 -55759751.43446 -40042736.93743  23574675.5784                   23574675.0904
  10841370.32446   8497856.26243  24160923.8834                   24160923.2114
 -49763896.12148 -38663344.13746  20912921.0394                   20912917.2154
 11  8 16  1 40  0.0000000  0  7G10G25G12G05G04G29G02
 -37846407.73847 -28621481.89145  21723387.5314                   21723385.9304
 -10398807.42648  -8066294.58645  22101533.6884                   22101534.2934
 -33287045.00048 -25899158.43046  20710166.3914                   20710163.7774
 -29358727.26248 -22837041.65246  20407626.4924                   20407624.1914
 -55757894.75846 -40041290.17243  23575028.6484                   23575028.6764
  10679567.68046   8371776.36343  24130133.6484                   24130132.4694
 -49817068.49248 -38704777.12946  20902803.0164                   20902799.0354
 11  8 16  1 40 30.0000000  0  7G10G25G12G05G04G29G02
 -37855110.36347 -28628263.15245  21721731.3594                   21721729.5664
 -10535341.74247  -8172684.93445  22075552.1564                   22075553.1954
 -33358655.90648 -25954959.12946  20696538.9224                   20696536.5824
 -29472226.32048 -22925482.43746  20386028.3914                   20386026.2344
 -55756045.88746 -40039849.49243  23575380.7504                   23575380.0084
  10517733.12146   8245671.58243  24099337.3444                   24099337.2504
 -49870065.34448 -38746073.36346  20892717.9614                   20892713.7304
 11  8 16  1 41  0.0000000  0  7G10G25G12G05G04G29G02
 -37863331.85247 -28634669.50445  21720166.6334                   21720164.8874
 -10671360.94947  -8278673.89145  22049668.4224                   22049669.4454
 -33429660.39848 -26010287.29746  20683027.5784                   20683025.0904
 -29585139.00448 -23013466.31246  20364541.6254                   20364539.3634
 -55754206.19546 -40038415.95743  23575730.6884                   23575730.0744
  10355866.78146   8119542.06343  24068535.2194                   24068535.0664
 -49922888.26648 -38787234.05946  20882666.0084                   20882662.1374
 11  8 16  1 41 30.0000000  0  7G10G25G12G05G04G29G02
 -37871074.58247 -28640702.79745  21718693.8834                   21718691.5044
 -10806862.64847  -8384259.60245  22023883.5554                   22023883.9694
 -33500058.21548 -26065142.73446  20669630.8524                   20669628.9384
 -29697464.39148 -23100992.55946  20343167.0704                   20343164.7854
 -55752376.06646 -40036989.87543  23576079.1024                   23576078.4144
  10193969.95746   7993388.76643  24037727.2504                   24037727.1374
 -49975537.57448 -38828259.47346  20872647.5004                   20872643.4454
 11  8 16  1 42  0.0000000  0  7G10G25G12G05G04G29G02
 -37878342.05147 -28646365.75445  21717310.4384                   21717308.9734
 -10941845.73847  -8489441.19945  21998197.3364                   21998197.6484
 -33569850.35248 -26119526.21146  20656350.3674                   20656347.9454
 -29809202.32848 -23188061.04746  20321903.9304                   20321901.4924
 -55750556.89546 -40035572.32043  23576425.6804                   23576424.4964
  10032042.45346   7867211.55943  24006913.0864                   24006913.0664
 -50028015.10948 -38869151.03946  20862661.1094                   20862657.2544
 11  8 16  1 42 30.0000000  0  7G10G25G12G05G04G29G02
 -37885141.94147 -28651664.36745  21716016.6414                   21716015.1954
 -11076313.87148  -8594221.53545  21972608.3984                   21972608.9144
 -33639043.02048 -26173442.56646  20643183.3834                   20643180.6414
 -29920357.87548 -23274675.72746  20300751.6414                   20300749.3324
 -55748755.10547 -40034168.29343  23576768.4454                   23576767.1644
   9870079.67646   7741006.87943  23976092.8674                   23976092.7464
 -50080327.34847 -38909913.80946  20852706.4694                   20852702.4494
 11  8 16  1 43  0.0000000  0  7G10G25G12G05G04G29G02
 -37891473.42247 -28656597.98845  21714811.3364                   21714809.5944
 -11210261.78548  -8698596.50445  21947119.0944                   21947119.5394
 -33707633.10248 -26226889.37946  20630131.2114                   20630128.5634
 -30030926.51648 -23360833.07846  20279711.0704                   20279708.9804
 -55746967.75447 -40032775.53143  23577108.1804                   23577107.3094
   9708085.91846   7614778.03944  23945265.7504                   23945265.9064
 -50132472.00048 -38950545.99246  20842783.6254                   20842779.3914
 11  8 16  1 43 30.0000000  0  7G10G25G12G05G04G29G02
 -36321915.32047 -27433565.69545  22013488.8524                   22013486.9304
  -9768259.43448  -7574958.28145  22221522.7504                   22221523.2384
 -32200195.01248 -25052262.28146  20916986.7344                   20916984.3244
 -28565480.21148 -22218926.83246  20558576.4924                   20558574.1294
 -54169772.04746 -38803791.82043  23877239.0704                   23877237.5554
  11121490.97346   8716132.68043  24214228.3134                   24214227.9494
 -48609024.42247 -37763443.97746  21132686.0084                   21132682.1604
 11  8 16  1 44  0.0000000  0  7G10G25G12G05G04G29G02
 -36327312.62547 -27437771.38345  22012461.5474                   22012459.7664
  -9901155.44548  -7678513.57845  22196233.6414                   22196234.3984
 -32267575.40648 -25104766.47346  20904165.0234                   20904162.2074
 -28674867.12548 -22304163.35246  20537760.6174                   20537758.2344
 -54168009.96946 -38802418.78543  23877574.2664                   23877573.0944
  10959443.52346   8589862.00443  24183392.1094                   24183391.3714
 -48660830.49247 -37803812.32446  21122827.3834                   21122823.7584
 11  8 16  1 44 30.0000000  0  7G10G25G12G05G04G29G02
 -36332251.15647 -27441619.58245  22011521.7734                   22011520.1764
 -10033526.97348  -7781660.18045  22171044.0554                   22171044.8364
 -32334355.73448 -25156803.08646  20891457.3914                   20891454.6884
 -28783666.02348 -22388941.69146  20517057.2344                   20517054.5084
 -54166265.85246 -38801059.69543  23877906.0864                   23877904.9104
  10797366.32446   8463568.14544  24152549.0704                   24152549.7154
 -48712472.66047 -37844052.95346  21113000.1724                   21112996.4614
 11  8 16  1 45  0.0000000  0  7G10G25G12G05G04G29G02
 -36336728.48447 -27445108.40245  22010669.4064                   22010668.3874
 -10165367.36348  -7884392.92645  22145955.7344                   22145956.4884
 -32400531.18748 -25208368.34846  20878864.1414                   20878861.7384
 -28891872.05548 -22473258.05546  20496465.6644                   20496463.3874
 -54164535.57846 -38799711.41443  23878235.0634                   23878233.8244
  10635265.33246   8337255.74244  24121702.6334                   24121702.6764
 -48763947.20347 -37884162.98046  21103205.0634                   21103201.0274
 11  8 16  1 45 30.0000000  0  7G10G25G12G05G04G29G02
 -36340751.75047 -27448243.41445  22009904.3054                   22009902.2194
 -10296678.93748  -7986713.59045  22120967.8754                   22120968.8674
 -32466106.72748 -25259466.16046  20866385.3524                   20866383.1484
 -28999488.38748 -22557114.90246  20475987.5234                   20475984.6844
 -54162823.73046 -38798377.48443  23878560.9454                   23878560.3364
  10473137.01246   8210922.06343  24090850.8364                   24090850.2274
 -48815258.77048 -37924146.00446  21093440.8754                   21093437.0634
 11  8 16  1 46  0.0000000  0  7G10G25G12G05G04G29G02
 -36344329.69547 -27451031.42245  22009223.5784                   22009221.3834
 -10427466.10548  -8088625.62545  22096079.9694                   22096080.4534
 -32531089.37148 -25310101.97746  20854019.7344                   20854017.4184
 -29106520.14148 -22640516.24246  20455619.6564                   20455617.2344
 -54161137.27746 -38797063.39543  23878881.8284                   23878880.8954
  10310976.18046   8084563.02043  24059992.3444                   24059992.6994
 -48866414.64548 -37964007.71146  21083706.4304                   21083702.0314
 11  8 16  1 46 30.0000000  0  7G10G25G12G05G04G29G02
 -36347455.56647 -27453467.15645  22008628.1724                   22008626.8244
 -10557717.69548  -8190120.32446  22071294.1254                   22071294.8484
 -32595470.27348 -25360268.89546  20841768.4774                   20841766.0514
 -29212957.80548 -22723454.64846  20435365.2504                   20435363.0594
 -54159467.44946 -38795762.23043  23879200.1564                   23879199.1524
  10148793.19146   7958186.73443  24029129.7894                   24029129.6604
 -48917406.31648 -38003741.46946  21074002.8204                   21073998.7814
 11  8 16  1 47  0.0000000  0  7G10G25G12G05G04G29G02
 -36350134.19947 -27455554.39144  22008118.7664                   22008117.0234
 -10687433.94548  -8291197.88345  22046609.5554                   22046610.6094
 -32659251.88348 -25409968.84446  20829631.4774                   20829629.0864
 -29318802.74648 -22805931.19946  20415223.6094                   20415221.5514
 -54157816.75446 -38794475.99243  23879513.5864                   23879513.0784
   9986586.75846   7831792.15644  23998263.0004                   23998262.6484
 -48968236.60548 -38043349.47746  21064330.1804                   21064325.9384
 11  8 16  1 47 30.0000000  0  7G10G25G12G05G04G29G02
 -36352370.11747 -27457296.65644  22007692.8134                   22007690.8714
 -10816614.97348  -8391858.37945  22022027.2734                   22022028.0164
 -32722436.26648 -25459203.41846  20817607.6884                   20817605.1214
 -29424056.12948 -22887946.78946  20395194.5394                   20395192.1994
 -54156187.84446 -38793206.69943  23879823.8754                   23879823.1914
   9824356.43846   7705378.97343  23967391.9924                   23967390.7624
 -49018908.27347 -38082833.87946  21054687.2114                   21054683.4884
 11  8 16  1 48  0.0000000  0  7G10G25G12G05G04G29G02
 -36354161.85547 -27458692.79744  22007352.3204                   22007350.6604
 -10945254.89548  -8492097.23445  21997548.1724                   21997548.6804
 -32785020.17248 -25507970.08646  20805698.2504                   20805695.9224
 -29528713.12548 -22969497.66046  20375278.4534                   20375276.3524
 -54154576.93746 -38791951.47743  23880129.5084                   23880128.9844
   9662106.97746   7578950.85243  23936516.4384                   23936515.6094
 -49069417.70748 -38122191.85946  21045076.1884                   21045071.8524
 11  8 16  1 48 30.0000000  0  7G10G25G12G05G04G29G02
 -36355515.18447 -27459747.33244  22007095.0004                   22007092.5164
 -11073355.33648  -8591915.73445  21973171.0004                   21973171.7464
 -32847007.11748 -25556271.59446  20793902.7504                   20793900.2504
 -29632776.84048 -23050586.23846  20355476.2664                   20355473.9304
 -54152988.00046 -38790713.32843  23880432.8984                   23880431.8404
   9499836.08246   7452506.03143  23905637.0234                   23905637.0274
 -49119769.38748 -38161426.91846  21035494.6414                   21035490.0744
 11  8 16  1 49  0.0000000  0  7G10G25G12G05G04G29G02
 -36356436.89547 -27460465.53144  22006919.2664                   22006917.7704
 -11200918.47748  -8691315.54745  21948896.6484                   21948897.3554
 -32908402.00448 -25604111.76246  20782219.4844                   20782217.0784
 -29736250.45348 -23131215.00446  20335785.5164                   20335783.7304
 -54151425.57046 -38789495.84043  23880729.1644                   23880729.4344
   9337541.10546   7326042.47743  23874754.2894                   23874752.6094
 -49169967.94948 -38200542.66446  21025941.9924                   21025937.9384
 11  8 16  1 49 30.0000000  0  7G10G25G12G05G04G29G02
 -36356928.44947 -27460848.55944  22006825.8284                   22006823.7344
 -11327941.09448  -8790294.16845  21924724.9384                   21924725.4024
 -32969204.44948 -25651490.27746  20770648.9774                   20770646.6454
 -29839132.08648 -23211382.47346  20316208.0164                   20316205.5664
 -54149888.64546 -38788298.22343  23881022.4384                   23881021.5704
   9175224.34846   7199561.90643  23843865.2584                   23843865.1054
 -49220012.48448 -38239538.39146  21016418.8524                   21016414.2544
 11  8 16  1 50  0.0000000  0  7G10G25G12G05G04G29G02
 -36356995.16847 -27460900.54344  22006813.2114                   22006811.3484
 -11454424.27348  -8888852.45345  21900656.0234                   21900656.3524
 -33029417.35948 -25698409.42646  20759191.4924                   20759188.6994
 -29941423.92248 -23291090.36746  20296742.0864                   20296740.2154
 -54148380.36746 -38787122.92643  23881309.4144                   23881308.5704
   9012884.35946   7073063.27743  23812973.4614                   23812972.8444
 -49269906.78548 -38278417.05146  21006924.0944                   21006920.0044
 11  8 16  1 50 30.0000000  0  7G10G25G12G05G04G29G02
 -36356633.76647 -27460618.91444  22006881.0394                   22006879.7504
 -11580360.32048  -8986984.39545  21876691.4924                   21876691.4304
 -33089035.47348 -25744865.09446  20747846.1804                   20747843.6254
 -30043119.61348 -23370333.73046  20277390.4144                   20277387.9964
 -54146895.23046 -38785965.65643  23881591.7734                   23881591.0314
   8850527.94946   6946551.81644  23782078.3054                   23782077.1414
 -49319645.18048 -38317174.23046  20997459.0164                   20997455.2154
 11  8 16  1 51  0.0000000  0  7G10G25G12G05G04G29G02
 -36355849.43747 -27460007.74244  22007030.8204                   22007029.8014
 -11705750.18448  -9084690.75445  21852830.4064                   21852830.9104
 -33148062.11348 -25790859.87946  20736613.9064                   20736611.3984
 -30144221.27748 -23449114.21146  20258151.4694                   20258148.9774
 -54145436.57846 -38784829.04343  23881869.8444                   23881868.6684
   8688153.75846   6820026.52344  23751179.3444                   23751178.6024
 -49369231.21948 -38355812.68446  20988023.2194                   20988019.3404
 11  8 16  1 51 30.0000000  0  7G10G25G12G05G04G29G02
 -36354644.70747 -27459069.00444  22007260.5474                   22007259.0594
 -11830592.00848  -9181970.05545  21829073.2974                   21829074.2274
 -33206497.52748 -25836393.96546  20725493.9774                   20725490.9614
 -30244728.00448 -23527431.10946  20239025.3914                   20239023.1884
 -54144004.22746 -38783712.89843  23882141.4064                   23882141.3164
   8525762.98846   6693488.30944  23720277.0474                   23720277.1604
 -49418665.21148 -38394332.65246  20978616.5004                   20978612.2814
 11  8 16  1 52  0.0000000  0  7G10G25G12G05G04G29G02
 -36353018.54347 -27457801.85544  22007569.3364                   22007567.9304
 -11954880.42248  -9278818.12545  21805422.3674                   21805422.6174
 -33264339.07848 -25881465.29746  20714487.3674                   20714484.3794
 -30344636.05148 -23605281.50846  20220013.8594                   20220011.2074
 -54142595.23046 -38782614.94943  23882409.9144                   23882409.4024
   8363360.56346   6566941.02744  23689373.1954                   23689372.2344
 -49467944.33248 -38432731.95746  20969239.0864                   20969234.7624
 11  8 16  1 52 30.0000000  0  7G10G25G12G05G04G29G02
 -36350977.26247 -27456211.24245  22007958.5084                   22007956.6254
 -12078617.21548  -9375236.36745  21781875.6484                   21781876.2234
 -33321591.19148 -25926077.32046  20703592.4384                   20703589.9924
 -30443948.25848 -23682667.61746  20201115.2664                   20201112.7384
 -54141213.32446 -38781538.13343  23882672.6094                   23882672.4884
   8200944.05146   6440382.77044  23658465.7114                   23658466.0044
 -49517072.90248 -38471013.93746  20959889.7974                   20959885.9534
 11  8 16  1 53  0.0000000  0  7G10G25G12G05G04G29G02
 -36348526.05947 -27454301.20744  22008424.8594                   22008423.1054
 -12201803.56648  -9471225.69145  21758434.2114                   21758435.0594
 -33378256.99248 -25970232.49246  20692809.0084                   20692806.7774
 -30542666.91048 -23759591.20746  20182329.3284                   20182327.2304
 -54139861.79346 -38780484.95743  23882929.6954                   23882929.5474
   8038511.79747   6313812.23844  23627556.1094                   23627555.7544
 -49566054.00848 -38509181.02346  20950568.8914                   20950565.2234
 11  8 16  1 53 30.0000000  0  7G10G25G12G05G04G29G02
 -34770247.56247 -26224473.82044  22308761.2974                   22308759.7234
 -10749013.60548  -8339181.53545  22034891.1254                   22034891.7814
 -31858915.11348 -24786329.72746  20981930.2664                   20981927.6644
 -29065368.31248 -22608449.41446  20463450.0394                   20463448.1134
 -52563120.80946 -37551855.58642  24182973.6094                   24182972.9924
   9451490.53547   7414834.69944  23896437.1564                   23896436.6214
 -48039466.71148 -37319632.46146  21241069.0394                   21241064.8404
 11  8 16  1 54  0.0000000  0  7G10G25G12G05G04G29G02
 -34766986.35247 -26221932.62544  22309381.2664                   22309379.7114
 -10871095.85548  -8434310.51646  22011659.9064                   22011660.1524
 -31914412.27348 -24829574.26246  20971369.2734                   20971367.4304
 -29162900.71548 -22684448.66046  20444890.4064                   20444887.7504
 -52561832.73446 -37550851.87542  24183219.2034                   24183218.2624
   9289028.94546   7288241.30944  23865522.4224                   23865521.0274
 -48088156.72348 -37357572.71146  21231803.5704                   21231799.4694
 11  8 16  1 54 30.0000000  0  7G10G25G12G05G04G29G02
 -34763324.63747 -26219079.34844  22310078.3524                   22310076.6024
 -10992624.11748  -8529007.82445  21988533.3674                   21988533.4804
 -31969326.87148 -24872364.85246  20960919.3204                   20960916.9064
 -29259839.53948 -22759985.37546  20426443.7274                   20426441.1094
 -52560577.34446 -37549873.66443  24183458.0864                   24183457.7194
   9126554.22747   7161637.71544  23834603.5704                   23834602.5864
 -48136702.54748 -37395400.60946  21222565.6024                   21222561.6454
 11  8 16  1 55  0.0000000  0  7G10G25G12G05G04G29G02
 -34759261.37947 -26215913.15644  22310851.4924                   22310849.9534
 -11113593.06248  -8623269.30145  21965513.9694                   21965514.4414
 -32023656.03948 -24914699.26646  20950581.1724                   20950578.6294
 -29356181.20748 -22835056.77746  20408110.3364                   20408107.5744
 -52559351.20346 -37548918.23843  24183691.0864                   24183690.9224
   8964071.18046   7035027.60244  23803684.3834                   23803683.4574
 -48185101.05148 -37433113.70746  21213355.7034                   21213351.4774
 11  8 16  1 55 30.0000000  0  7G10G25G12G05G04G29G02
 -34754803.73847 -26212439.65244  22311700.0004                   22311698.2624
 -11234005.58248  -8717097.21145  21942599.9774                   21942600.4104
 -32077405.19548 -24956581.71146  20940353.0944                   20940350.5824
 -29451929.73448 -22909665.99246  20389889.7734                   20389887.5314
 -52558158.95746 -37547989.17643  24183917.4304                   24183918.2114
   8801576.29746   6908408.27344  23772762.3364                   23772761.6524
 -48233357.29748 -37470715.95746  21204172.8984                   21204168.4104
 11  8 16  1 56  0.0000000  0  7G10G25G12G05G04G29G02
 -34749954.85547 -26208661.31244  22312622.7894                   22312621.1764
 -11353860.63348  -8810490.70745  21919792.0944                   21919792.7034
 -32130575.68448 -24998013.26246  20930235.0394                   20930232.4024
 -29547085.20748 -22983813.08246  20371782.4694                   20371779.9694
 -52557001.67646 -37547087.37543  24184138.4064                   24184137.5984
   8639070.85947   6781780.70744  23741838.2274                   23741838.1134
 -48281472.25848 -37508208.12946  21195016.6174                   21195012.4804
 11  8 16  1 56 30.0000000  0  7G10G25G12G05G04G29G02
 -34744715.18447 -26204578.45344  22313619.5234                   22313617.9924
 -11473154.78948  -8903447.15645  21897091.1484                   21897092.0664
 -32183166.32448 -25038992.98046  20920227.0784                   20920224.6254
 -29641645.61748 -23057496.48846  20353788.3594                   20353785.5664
 -52555877.42246 -37546211.32043  24184352.5864                   24184351.6684
   8476558.01647   6655147.38344  23710913.0704                   23710912.8594
 -48329445.09848 -37545589.54346  21185887.5864                   21185883.9264
 11  8 16  1 57  0.0000000  0  7G10G25G12G05G04G29G02
 -34739089.13747 -26200194.52044  22314690.0944                   22314688.6254
 -11591887.80148  -8995966.36345  21874497.0784                   21874497.6484
 -32235178.93447 -25079522.28146  20910329.5784                   20910327.1024
 -29735612.04348 -23130717.05146  20335906.9304                   20335904.7774
 -52554788.18446 -37545362.56243  24184559.8524                   24184558.8674
   8314037.48046   6528508.06644  23679986.9384                   23679986.0234
 -48377277.05148 -37582861.17646  21176785.6954                   21176781.9024
 11  8 16  1 57 30.0000000  0  7G10G25G12G05G04G29G02
 -34733080.59847 -26195512.53544  22315833.7274                   22315832.1374
 -11710059.73048  -9088048.35545  21852009.9224                   21852010.0824
 -32286616.82448 -25119603.75446  20900541.4614                   20900538.8364
 -29828985.68448 -23203475.70346  20318138.3914                   20318135.9104
 -52553735.58246 -37544542.35543  24184760.6884                   24184759.0434
   8151509.13346   6401862.66844  23649058.4304                   23649057.7974
 -48424970.19947 -37620024.64846  21167709.7034                   21167705.7154
 11  8 16  1 58  0.0000000  0  7G10G25G12G05G04G29G02
 -34726694.91447 -26190536.66844  22317048.9144                   22317046.7974
 -11827671.75448  -9179694.05545  21829628.9614                   21829629.4734
 -32337483.21548 -25159239.88746  20890861.6094                   20890859.2934
 -29921768.87548 -23275774.27046  20300482.3914                   20300480.1524
 -52552722.35946 -37543752.83643  24184952.8054                   24184951.5634
   7988971.75447   6275210.20744  23618128.0554                   23618128.3714
 -48472527.80148 -37657082.50046  21158660.3364                   21158655.9384
 11  8 16  1 58 30.0000000  0  7G10G25G12G05G04G29G02
 -34719927.85947 -26185263.63344  22318336.3204                   22318334.6134
 -11944715.46148  -9270896.91445  21807355.8914                   21807356.9804
 -32387771.92648 -25198425.89146  20881292.1024                   20881289.6684
 -30013954.59048 -23347607.27046  20282939.9774                   20282937.8554
 -52551742.00846 -37542988.92243  24185139.8054                   24185138.5744
   7826433.74246   6148557.26244  23587198.0164                   23587197.6684
 -48519943.68748 -37694029.93046  21149637.0314                   21149633.0084
 11  8 16  1 59  0.0000000  0  7G10G25G12G05G04G29G02
 -34712784.49647 -26179697.37544  22319696.0084                   22319693.9774
 -12061191.58248  -9361657.49645  21785191.4454                   21785191.8134
 -32437486.56648 -25237164.56646  20871831.4454                   20871829.1804
 -30105544.98448 -23418976.38347  20265510.8524                   20265508.4494
 -52550796.56246 -37542252.21143  24185319.1954                   24185318.3794
   7663894.16447   6021903.10244  23556268.4064                   23556267.5784
 -48567220.23448 -37730868.77046  21140640.6804                   21140636.5044
 11  8 16  1 59 30.0000000  0  7G10G25G12G05G04G29G02
 -34705266.03947 -26173838.82444  22321126.7194                   22321125.3164
 -12177097.38748  -9451973.67645  21763135.6954                   21763135.8834
 -32486626.52748 -25275455.43446  20862480.6334                   20862478.0664
 -30196538.54348 -23489880.43046  20248195.2814                   20248193.2274
 -52549885.45346 -37541542.23843  24185492.8364                   24185492.2034
   7501355.28547   5895249.44944  23525338.1954                   23525337.0354
 -48614356.84447 -37767598.57446  21131670.4304                   21131666.2934
 11  8 16  2  0  0.0000000  0  7G10G25G12G05G04G29G02
 -34697377.23447 -26167691.69144  22322627.4534                   22322625.7504
 -12292433.59848  -9541846.02345  21741187.4774                   21741188.4104
 -32535194.84048 -25313300.85946  20853238.1174                   20853235.6174
 -30286937.17648 -23560320.89846  20230993.3754                   20230990.7074
 -52549010.67646 -37540860.57843  24185659.3134                   24185658.6724
   7338816.94947   5768596.23044  23494407.8754                   23494406.9804
 -48661356.19948 -37804221.41846  21122726.8054                   21122722.9104
 11  8 16  2  0 30.0000000  0  7G10G25G12G05G04G29G02
 -34689122.79747 -26161259.66044  22324198.4304                   22324196.7234
 -12407200.73848  -9631274.93046  21719348.3444                   21719348.5904
 -32583194.67248 -25350703.32846  20844104.5864                   20844102.5084
 -30376742.74248 -23630299.23846  20213904.1884                   20213901.0084
 -52548174.33646 -37540208.91043  24185817.9534                   24185817.2664
   7176278.75847   5641943.11744  23463478.2114                   23463476.8554
 -48708220.39148 -37840738.94546  21113809.0864                   21113805.1024
 11  8 16  2  1  0.0000000  0  7G10G25G12G05G04G29G02
 -34680502.34447 -26154542.43044  22325839.0784                   22325837.0704
 -12521394.23848  -9720256.85546  21697617.7344                   21697618.2114
 -32630623.64148 -25387660.95746  20835078.7974                   20835076.1054
 -30465952.10548 -23699812.99646  20196927.6954                   20196925.1684
 -52547373.57446 -37539584.90643  24185970.7814                   24185969.8284
   7013744.82847   5515293.34044  23432549.0314                   23432548.1844
 -48754946.99647 -37877149.26246  21104917.2034                   21104913.1094
 11  8 16  2  1 30.0000000  0  7G10G25G12G05G04G29G02
 -34671520.18746 -26147543.33244  22327548.1414                   22327546.4454
 -12635014.75848  -9808792.28946  21675996.7814                   21675996.9694
 -32677485.35248 -25424176.57046  20826161.2814                   20826159.1374
 -30554567.08248 -23768863.60547  20180065.0784                   20180062.8484
 -52546610.25446 -37538990.13343  24186115.9844                   24186114.9614
   6851214.68446   5388646.51244  23401620.8134                   23401619.8524
 -48801538.10248 -37913453.98446  21096051.6724                   21096047.1764
 11  8 16  2  2  0.0000000  0  7G10G25G12G05G04G29G02
 -34662180.35947 -26140265.54744  22329325.2034                   22329323.4144
 -12748062.27348  -9896881.23446  21654484.4774                   21654484.5904
 -32723782.01248 -25460251.88746  20817351.6804                   20817349.2424
 -30642589.08648 -23837452.15647  20163314.9144                   20163312.5044
 -52545886.14146 -37538425.86343  24186252.7664                   24186252.3874
   6688688.76246   5262002.96944  23370692.8984                   23370692.5434
 -48847995.88348 -37949654.83246  21087210.7194                   21087206.5004
 11  8 16  2  2 30.0000000  0  8G10G25G26G12G05G04G29G02
 -34652485.96547 -26132711.45744  22331170.3054                   22331168.3914
 -12860535.89548  -9984523.00046  21633080.8834                   21633081.0864
  18702934.64156  14608565.68053  24671577.8134                   24671577.1254
 -32769515.03548 -25495888.00446  20808648.7114                   20808646.3054
 -30730018.40648 -23905578.87546  20146677.4454                   20146674.6764
 -52545201.64846 -37537892.51642  24186383.1414                   24186383.1564
   6526167.67246   5135363.21144  23339766.4064                   23339765.0164
 -48894321.04348 -37985752.33246  21078395.4844                   21078391.2854
 11  8 16  2  3  0.0000000  0  8G10G25G26G12G05G04G29G02
 -34642445.37947 -26124887.62544  22333080.5234                   22333078.8554
 -12972440.13748 -10071721.07846  21611786.6024                   21611786.8674
  18530556.06646  14474244.76243  24638775.2814                   24638775.2504
 -32814691.44548 -25531090.39546  20800051.9384                   20800049.6414
 -30816860.84848 -23973248.28146  20130151.8674                   20130148.9694
 -52544562.81646 -37537394.67642  24186504.1414                   24186504.5704
   6363647.47746   5008724.16044  23308839.7894                   23308838.8014
 -48940519.50848 -38021751.11346  21069604.0554                   21069600.2704
 11  8 16  2  3 30.0000000  0  8G10G25G26G12G05G04G29G02
 -33056643.00447 -24889197.46944  22634848.9304                   22634847.7504
 -11508351.33648  -8930872.63746  21890393.6024   21890393.3954   19933485.93746
  15567436.96643                  24905743.6954                   24905743.6254
 -31283892.24648 -24338259.86346  21091353.5864                   21091351.0744
 -29327694.73448 -22812859.07846  20413530.7274                   20413528.2934
 -50968551.03946 -36309333.55142  24486410.2894                   24486410.4534
   7776553.60546   6109690.04744  23577706.8834                   23577705.6294
 -47411171.80548 -36830051.58246  21360629.3834                   21360625.0704
 11  8 16  2  4  0.0000000  0  8G10G25G26G12G05G04G29G02
 -33045919.60547 -24880841.57844  22636889.5004                   22636888.3204
 -11619114.39848  -9017181.49246  21869316.1024   21869316.3404   19760877.20346
  15432936.76643                  24872897.5864                   24872897.6294
 -31327960.32448 -24372598.62546  21082967.6174                   21082964.8244
 -29413364.91448 -22879615.03947  20397228.1644                   20397226.0124
 -50968005.10546 -36308908.12942  24486514.6174                   24486514.3594
   7614037.91446   5983054.51644  23546780.6954                   23546779.6844
 -47457119.94948 -36865855.30946  21351885.5704                   21351881.1994
 11  8 16  2  4 30.0000000  0  8G10G25G26G12G05G04G29G02
 -33034859.23047 -24872223.12944  22638994.3054                   22638993.2544
 -11729305.45748  -9103044.63346  21848347.3054   21848347.6564   19588157.45746
  15298350.02743                  24840029.5944                   24840030.1374
 -31371476.54747 -24406507.37146  21074686.5704                   21074684.6454
 -29498449.69948 -22945914.84047  20381036.9064                   20381034.5634
 -50967506.12546 -36308519.29342  24486609.2584                   24486609.4534
   7451526.41846   5856422.27344  23515855.4694                   23515855.1954
 -47502943.84847 -36901562.23046  21343165.6414                   21343161.5864
 11  8 16  2  5  0.0000000  0  8G10G25G26G12G05G04G29G02
 -33023460.17247 -24863340.73044  22641163.3984                   22641161.8594
 -11838918.87948  -9188457.66445  21827488.6174   21827488.6334   19415334.27746
  15163682.72343                  24807142.0784                   24807143.3484
 -31414437.72347 -24439983.62146  21066511.2504                   21066509.1414
 -29582944.62148 -23011755.02047  20364958.0234                   20364955.7274
 -50967049.82446 -36308163.70742  24486696.2114                   24486696.0124
   7289025.05146   5729797.92244  23484932.5554                   23484931.8134
 -47548639.67647 -36937169.35245  21334469.7504                   21334465.7734
 11  8 16  2  5 30.0000000  0  8G10G25G26G12G05G04G29G02
 -33011728.89546 -24854199.48044  22643395.7194                   22643394.0474
 -11947957.33648  -9273422.67646  21806739.2504   21806739.9184   19242407.15246
  15028934.41842                  24774235.6414                   24774236.4844
 -31456848.52348 -24473031.01246  21058440.9774                   21058438.0904
 -29666853.68748 -23077138.68046  20348991.1724                   20348988.4414
 -50966640.19146 -36307844.52742  24486773.4454                   24486773.8484
   7126531.23447   5603179.45744  23454011.5004                   23454010.2854
 -47594211.66447 -36972679.97346  21325797.8134                   21325793.5594
 11  8 16  2  6  0.0000000  0  8G10G25G26G12G05G04G29G02
 -32999665.90247 -24844799.75044  22645691.2894                   22645690.4184
 -12056417.46948  -9357937.05146  21786099.9924   21786099.8524   19069381.05946
  14894108.98042                  24741309.6334                   24741309.9844
 -31498708.91847 -24505649.50046  21050475.3754                   21050472.7504
 -29750174.76248 -23142064.16446  20333135.4924                   20333132.8364
 -50966275.00446 -36307559.85242  24486844.1644                   24486842.8554
   6964048.89846   5476569.93044  23423091.7274                   23423091.1644
 -47639657.86747 -37008092.58245  21317149.7504                   21317145.3364
 11  8 16  2  6 30.0000000  0  8G10G25G26G12G05G04G29G02
 -32987273.26647 -24835143.15644  22648049.4224                   22648048.2114
 -12164297.64148  -9441999.49646  21765570.6884   21765571.1334   18896259.94946
  14759209.53142                  24708366.1804                   24708366.3014
 -31540019.01648 -24537839.19146  21042614.4304                   21042611.7704
 -29832907.46148 -23206531.18047  20317392.0084                   20317389.3754
 -50965953.91447 -36307309.66042  24486904.8284                   24486904.3054
   6801579.89546   5349970.80544  23392174.7584                   23392174.1454
 -47684977.93047 -37043406.90646  21308525.8204                   21308521.0824
 11  8 16  2  7  0.0000000  0  8G10G25G26G12G05G04G29G02
 -32974558.04746 -24825235.19544  22650468.8444                   22650467.9414
 -12271601.07048  -9525612.54346  21745151.8914   21745152.2274   18723042.51646
  14624234.98442                  24675402.8134                   24675403.8914
 -31580784.55548 -24569604.55546  21034856.9064                   21034854.3714
 -29915056.16448 -23270543.12947  20301759.8674                   20301757.2034
 -50965681.19146 -36307097.07043  24486956.3524                   24486956.5744
   6639121.92247   5223380.27744  23361260.1094                   23361259.1884
 -47730176.93747 -37078626.90245  21299924.9534                   21299920.0394
 11  8 16  2  7 30.0000000  0  8G10G25G26G12G05G04G29G02
 -32961518.35247 -24815074.41044  22652951.1024                   22652948.7774
 -12378322.10947  -9608771.77046  21724843.4144   21724844.0634   18549736.67245
  14489191.58242                  24642423.5234                   24642424.7304
 -31621002.70748 -24600943.38346  21027203.5164                   21027201.0434
 -29996617.12148 -23334097.10546  20286238.8674                   20286236.4414
 -50965452.47346 -36306918.85243  24487000.7034                   24486999.8984
   6476680.96547   5096803.00444  23330348.5944                   23330347.7814
 -47775250.50847 -37113749.15245  21291347.2504                   21291343.4384
 11  8 16  2  8  0.0000000  0  8G10G25G26G12G05G04G29G02
 -32948158.51246 -24804664.14844  22655493.3754                   22655491.3054
 -12484461.44148  -9691477.71946  21704645.7344   21704646.3054   18376343.54746
  14354080.20742                  24609428.2194                   24609429.1334
 -31660676.23448 -24631857.82446  21019653.8984                   21019651.4614
 -30077591.94548 -23397194.34847  20270830.0314                   20270827.2584
 -50965269.34446 -36306776.10543  24487034.7344                   24487034.2074
   6314256.69546   4970238.71944  23299440.1804                   23299438.9494
 -47820200.48047 -37148775.09046  21282793.7114                   21282789.3754
 11  8 16  2  8 30.0000000  0  8G10G25G26G12G05G04G29G02
 -32934477.80546 -24794003.84444  22658096.2974                   22658095.0004
 -12590014.52048  -9773726.85546  21684559.9454   21684559.9024   18202870.21946
  14218906.27342                  24576417.2814                   24576417.7894
 -31699802.81648 -24662346.07046  21012208.3364                   21012206.0274
 -30157977.47747 -23459832.40646  20255532.9224                   20255530.6954
 -50965128.52746 -36306666.39543  24487060.7974                   24487061.0864
   6151854.25046   4843691.44544  23268535.7664                   23268534.6094
 -47865023.82447 -37183702.36346  21274264.0554                   21274259.5704
 11  8 16  2  9  0.0000000  0  8G10G25G26G12G05G04G29G02
 -32920486.19546 -24783101.29744  22660758.8364                   22660757.2934
 -12694987.47348  -9855523.95346  21664584.3914   21664584.3984   18029312.57046
  14083666.68443                  24543390.7274                   24543390.8404
 -31738391.50448 -24692415.18446  21004865.3134                   21004862.9414
 -30237781.09048 -23522017.01646  20240346.7344                   20240344.6564
 -50965037.02046 -36306595.06643  24487078.9454                   24487078.3874
   5989468.19946   4717156.93444  23237634.4774                   23237633.7344
 -47909728.20348 -37218536.93045  21265756.7664                   21265752.4654
 11  8 16  2  9 30.0000000  0  8G10G25G26G12G05G04G29G02
 -32906184.03546 -24771956.75444  22663480.6954                   22663478.9614
 -12799377.34048  -9936866.67646  21644719.1804   21644719.3914   17855675.77046
  13948365.39142                  24510348.0944                   24510348.6054
 -31776441.59448 -24722064.61346  20997624.3754                   20997621.8244
 -30317001.19148 -23583746.94546  20225271.8594                   20225269.2194
 -50964993.02346 -36306560.77343  24487087.0704                   24487086.8714
   5827101.83646   4590637.77044  23206737.5944                   23206735.9964
 -47954311.83247 -37253277.41045  21257273.0634                   21257268.1294
 11  8 16  2 10  0.0000000  0  8G10G25G26G12G05G04G29G02
 -32891568.34446 -24760567.91044  22666261.7974                   22666260.0514
 -12903177.32848 -10017749.75846  21624966.6564   21624967.0234   17681968.98846
  13813009.55943                  24477292.8204                   24477292.9414
 -31813948.47748 -24751290.75846  20990487.1254                   20990484.4454
 -30395632.25048 -23645017.88346  20210308.8674                   20210306.1914
 -50964990.64846 -36306558.91043  24487088.4384                   24487088.0944
   5664762.77747   4464139.86744  23175845.1094                   23175843.8244
 -47998769.03947 -37287919.37146  21248812.9384                   21248808.5084
 11  8 16  2 10 30.0000000  0  8G10G25G26G12G05G04G29G02
 -32876647.22346 -24748941.05144  22669101.0944                   22669099.7034
 -13006392.14147 -10098176.87146  21605325.7974   21605325.9734   17508189.82846
  13677597.34843                  24444224.3834                   24444223.8164
 -31850919.36748 -24780099.25446  20983452.2734                   20983449.3834
 -30473680.44947 -23705834.64547  20195456.8914                   20195454.2854
 -50965035.34446 -36306593.73843  24487079.1954                   24487079.0124
   5502447.23046   4337660.31344  23144957.5634                   23144956.4224
 -48043105.77047 -37322467.46146  21240376.0704                   21240371.5124
 11  8 16  2 11  0.0000000  0  8G10G25G26G12G05G04G29G02
 -32861421.36746 -24737076.75044  22671998.0944                   22671996.8094
 -13109018.82048 -10178145.69146  21585796.2034   21585796.3014   17334343.54346
  13542132.81643                  24411141.8204                   24411142.0274
 -31887353.96148 -24808489.85546  20976518.5704                   20976516.3094
 -30551143.98048 -23766195.81246  20180716.1884                   20180713.4454
 -50965125.39546 -36306663.91843  24487061.7584                   24487061.6134
   5340158.81346   4211201.88744  23114074.9924                   23114074.1914
 -48087320.51247 -37356920.50045  21231962.0474                   21231957.7814
 11  8 16  2 11 30.0000000  0  8G10G25G26G12G05G04G29G02
 -32845893.58646 -24724977.21144  22674952.9924                   22674951.4224
 -13211056.64848 -10257655.66446  21566379.2814   21566379.5164   17160433.14846
  13406618.31343                  24378048.2664                   24378048.0664
 -31923253.89548 -24836463.82446  20969687.0314                   20969685.0554
 -30628023.55548 -23826101.95346  20166086.1254                   20166083.4654
 -50965260.58246 -36306769.26243  24487037.5474                   24487035.7734
   5177898.96946   4084765.71944  23083197.9144                   23083197.1054
 -48131413.73447 -37391278.84446  21223571.6414                   21223567.5314
 11  8 16  2 12  0.0000000  0  8G10G25G26G12G05G04G29G02
 -32830070.60246 -24712647.61344  22677963.5554                   22677962.7344
 -13312508.65248 -10336709.15646  21547073.9224   21547074.0744   16986458.03146
  13271053.37143                  24344941.7344                   24344941.3444
 -31958624.33648 -24864025.21946  20962955.9924                   20962953.6024
 -30704323.22747 -23885556.22747  20151566.6334                   20151564.3284
 -50965445.12146 -36306913.05942  24487002.1724                   24487000.8754
   5015665.23846   3958349.90244  23052325.3054                   23052324.5234
 -48175389.43047 -37425545.60545  21215203.2664                   21215198.8484
 11  8 16  2 12 30.0000000  0  8G10G25G26G12G05G04G29G02
 -32813954.44146 -24700089.57044  22681031.6884                   22681029.2774
 -13413373.65648 -10415305.23846  21527879.5784   21527879.9694   16812421.90246
  13135440.86743                  24311823.4774                   24311823.0984
 -31993466.85948 -24891175.23846  20956326.1414                   20956323.4414
 -30780043.20348 -23944558.78546  20137157.7424                   20137155.1954
 -50965678.50846 -36307094.90642  24486956.8284                   24486956.5394
   4853459.88746   3831956.21144  23021459.0084                   23021457.9264
 -48219247.42247 -37459720.65645  21206857.3674                   21206853.0824
 11  8 16  2 13  0.0000000  0  8G10G25G26G12G05G04G29G02
 -31222124.11346 -23459702.30144  22983946.5784                   22983944.8794
 -11938222.98448  -9265837.14846  21808591.4454   21808591.7424   18213758.45346
  14227391.52343                  24578488.7974                   24578488.6024
 -30452357.23048 -23690310.60246  21249589.2424                   21249586.5904
 -29279757.28547 -22775504.79746  20422652.4844                   20422649.6334
 -49390535.89146 -35079711.07842  24786696.9224                   24786695.9844
   6266714.53946   4933193.68044  23290392.3364                   23290391.2584
 -46687562.17247 -36266199.66845  21498327.3364                   21498323.1994
 11  8 16  2 13 30.0000000  0  8G10G25G26G12G05G04G29G02
 -31205422.91046 -23446688.36344  22987124.2974                   22987123.1804
 -12037904.34848  -9343510.91446  21789622.3284   21789622.6254   18039617.31346
  14091697.19543                  24545350.5634                   24545351.1844
 -30486140.82848 -23716635.48046  21243160.6804                   21243158.0354
 -29354312.75448 -22833599.95346  20408465.1484                   20408462.7934
 -49390859.53945 -35079963.28942  24786635.7344                   24786635.0784
   6104578.02346   4806853.61744  23259538.6414                   23259537.5124
 -46731178.75047 -36300186.60245  21490027.1254                   21490023.2854
 11  8 16  2 14  0.0000000  0  8G10G25G26G12G05G04G29G02
 -31188432.60946 -23433449.16844  22990357.8524                   22990355.8554
 -12136992.30948  -9420722.29746  21770766.5234   21770767.0594   17865429.28146
  13955966.34443                  24512203.8984                   24512203.7664
 -30519397.37948 -23742549.69146  21236832.1804                   21236829.6884
 -29428285.87947 -22891241.32846  20394388.4924                   20394386.1414
 -49391227.70745 -35080250.18442  24786565.5084                   24786565.2424
   5942478.96946   4680542.72344  23228692.2974                   23228691.0704
 -46774674.45347 -36334079.33645  21481750.6174                   21481746.2424
 11  8 16  2 14 30.0000000  0  7G10G25G26G12G05G29G02
 -31171161.19147 -23419990.91044  22993644.9694                   22993642.5514
 -12235491.28148  -9497474.71946  21752023.0314   21752023.1134   17691192.35246
  13820197.41443                  24479047.5474                   24479048.0204
 -30552133.31648 -23768058.21546  21230602.3674                   21230600.0204
 -29501682.72348 -22948433.66046  20380421.6254                   20380419.2584
   5780414.00447   4554258.41444  23197852.5554                   23197851.1844
 -46818054.67247 -36367882.10245  21473495.5634                   21473490.6884
 11  8 16  2 15  0.0000000  0  7G10G25G26G12G05G29G02
 -31153609.73847 -23406314.44944  22996984.0704                   22996982.5084
 -12333399.14548  -9573766.53546  21733391.7814   21733391.8754   17516911.43446
  13684394.16442                  24445882.7584                   24445883.2234
 -30584348.99248 -23793161.34846  21224472.3284                   21224469.9344
 -29574502.39848 -23005176.25446  20366564.2344                   20366561.7074
   5618386.16447   4428003.02344  23167019.7974                   23167018.1914
 -46861318.43447 -36401594.10245  21465263.0004                   21465258.3524
 11  8 16  2 15 30.0000000  0  7G10G25G26G12G05G29G02
 -31135777.28146 -23392419.03544  23000377.5864                   23000376.0434
 -12430711.71548  -9649594.49246  21714873.5634   21714873.9614   17342593.15646
  13548561.84042                  24412710.4454                   24412711.2384
 -30616042.38748 -23817857.50046  21218441.1024                   21218438.7584
 -29646742.10548 -23061466.91446  20352817.7814                   20352815.0944
   5456400.62147   4301780.59444  23136194.8054                   23136193.4344
 -46904462.28547 -36435212.68745  21457052.6884                   21457048.0554
 11  8 16  2 16  0.0000000  0  7G10G25G26G12G05G29G02
 -31117661.81646 -23378303.07043  23003824.8984                   23003823.6454
 -12527423.30948  -9724954.16046  21696470.2584   21696470.6294   17168246.06646
  13412707.02042                  24379534.9144                   24379533.8794
 -30647210.69148 -23842144.49246  21212510.2894                   21212507.6884
 -29718397.11348 -23117301.95746  20339182.1334                   20339179.3324
   5294464.35547   4175596.55944  23105378.8984                   23105377.5354
 -46947481.41048 -36468734.07445  21448866.1254                   21448861.8054
 11  8 16  2 16 30.0000000  0  7G10G25G26G12G05G29G02
 -31099268.74246 -23363970.80943  23007325.3594                   23007323.4804
 -12623536.49248  -9799847.53146  21678180.4064   21678180.1724   16993870.18046
  13276829.77742                  24346351.5234                   24346351.0904
 -30677858.36748 -23866025.80546  21206678.1414                   21206675.2974
 -29789471.34048 -23172684.45346  20325657.2034                   20325654.3674
   5132575.80547   4049449.69544  23074572.8594                   23074571.1374
 -46990379.23447 -36502160.93745  21440702.7424                   21440698.6214
 11  8 16  2 17  0.0000000  0  7G10G25G26G12G05G29G02
 -31080601.56646 -23349424.94143  23010877.3674                   23010875.9734
 -12719051.10548  -9874274.46946  21660004.5634   21660004.7074   16819468.64146
  13140932.53943                  24313163.8984                   24313163.3634
 -30707988.07048 -23889503.49246  21200944.5554                   21200942.2074
 -29859966.32848 -23227615.59846  20312242.3444                   20312240.2304
   4970736.29747   3923341.06344  23043775.2734                   23043774.3204
 -47033156.58647 -36535493.92645  21432562.7974                   21432558.5744
 11  8 16  2 17 30.0000000  0  7G10G25G26G12G05G29G02
 -31061663.87546 -23334668.30943  23014481.1564                   23014479.4654
 -12813967.78948  -9948235.51646  21641942.5314   21641942.4614   16645043.45746
  13005016.91442                  24279971.8594                   24279971.5984
 -30737602.36348 -23912579.57446  21195308.7034                   21195306.6134
 -29929883.78147 -23282096.70746  20298937.5864                   20298935.0634
   4808946.31647   3797271.01644  23012987.5944                   23012986.6564
 -47075814.73047 -36568734.02345  21424445.3134                   21424440.7114
 11  8 16  2 18  0.0000000  0  7G10G25G26G12G05G29G02
 -31042459.53146 -23319703.88743  23018135.4144                   23018133.8954
 -12908287.10248 -10021731.05946  21623993.8984   21623994.3554   16470597.00046
  12869084.66443                  24246775.2814                   24246775.1804
 -30766704.39148 -23935256.48846  21189770.8054                   21189768.5514
 -29999225.55948 -23336129.24246  20285742.0944                   20285740.0354
   4647206.82447   3671240.31644  22982209.8524                   22982208.3284
 -47118354.84447 -36601882.15245  21416349.9534                   21416345.6954
 11  8 16  2 18 30.0000000  0  7G10G25G26G12G05G29G02
 -31022989.93746 -23304532.78944  23021840.3594                   23021839.0204
 -13002007.44948 -10094759.87946  21606159.4774   21606159.7194   16296133.83646
  12733139.37943                  24213576.5164                   24213575.4384
 -30795294.82848 -23957534.75846  21184330.7424                   21184327.9774
 -30067991.18448 -23389712.82446  20272656.8054                   20272653.9694
   4485520.41847   3545250.97344  22951442.0004                   22951440.5744
 -47160776.26647 -36634937.79345  21408277.2734                   21408273.0354
 11  8 16  2 19  0.0000000  0  7G10G25G26G12G05G29G02
 -31003260.18046 -23289158.96544  23025595.3834                   23025593.2034
 -13095130.52348 -10167323.30145  21588438.5164   21588438.6844   16121654.92246
  12597181.85943                  24180373.9614                   24180372.9924
 -30823377.44548 -23979417.32446  21178986.8754                   21178983.9884
 -30136183.80548 -23442849.91846  20259679.8524                   20259677.3444
   4323886.57447   3419302.59044  22920683.7344                   22920682.2074
 -47203081.33647 -36667902.77045  21400227.2344                   21400222.4454
 11  8 16  2 19 30.0000000  0  7G10G25G26G12G05G29G02
 -30983277.69546 -23273588.19143  23029397.5314                   23029396.1134
 -13187660.65648 -10239424.67646  21570831.1414   21570830.7114   15947159.18046
  12461211.19543                  24147168.3524                   24147168.9344
 -30850958.84848 -24000909.32446  21173738.0704                   21173735.7734
 -30203808.83248 -23495544.71546  20246811.6254                   20246808.5824
   4162302.75847   3293393.18844  22889935.1804                   22889934.1914
 -47245274.78547 -36700780.77045  21392197.9774                   21392193.7584
 11  8 16  2 20  0.0000000  0  7G10G25G26G12G05G29G02
 -30963045.00046 -23257822.42644  23033247.4844                   23033246.0164
 -13279597.14548 -10311063.47746  21553336.2894   21553336.3134   15772650.12546
  12325230.16043                  24113960.2504                   24113959.9384
 -30878041.26648 -24022012.52746  21168584.5084                   21168582.0434
 -30270866.96548 -23547797.79346  20234050.4224                   20234047.6684
   4000770.64847   3167524.08244  22859196.8594                   22859195.3364
 -47287356.80948 -36733571.93745  21384190.4224                   21384185.7384
 11  8 16  2 20 30.0000000  0  7G10G25G26G12G05G29G02
 -30942559.88346 -23241860.01243  23037145.9144                   23037144.2974
 -13370935.17648 -10382235.95346  21535955.2974   21535955.1684   15598135.57046
  12189244.85243                  24080751.7034                   24080751.2114
 -30904621.86748 -24042724.68746  21163526.5554                   21163524.4064
 -30337354.57048 -23599606.28946  20221398.7034                   20221395.8014
   3839296.52747   3041700.16044  22828469.1644                   22828467.6764
 -47329323.08647 -36766272.92245  21376204.4224                   21376200.3754
 11  8 16  2 21  0.0000000  0  7G10G25G26G12G05G29G02
 -30921832.15646 -23225708.53943  23041090.1564                   23041088.7774
 -13461681.55548 -10452947.40246  21518686.4924   21518686.1994   15423611.84046
  12053252.39543                  24047540.7894                   24047540.7934
 -30930709.66448 -24063052.84046  21158562.0634                   21158559.3674
 -30403279.69948 -23650976.50046  20208853.4144                   20208850.4844
   3677874.99647   2915917.21144  22797751.9924                   22797750.2344
 -47371180.89148 -36798889.37545  21368238.6884                   21368234.7624
 11  8 16  2 21 30.0000000  0  7G10G25G26G12G05G29G02
 -30900858.76246 -23209365.61743  23045080.9144                   23045079.5824
 -13551830.06648 -10523192.97746  21501531.4844   21501532.1524   15249088.37946
  11917260.14143                  24014330.2504                   24014330.0204
 -30956300.76648 -24082993.97346  21153692.3444                   21153689.8984
 -30468637.43048 -23701904.58646  20196415.7424                   20196413.5044
   3516513.98447   2790181.42244  22767046.1334                   22767043.8954
 -47412924.77348 -36831417.05145  21360295.1254                   21360291.0984
 11  8 16  2 22  0.0000000  0  7G10G25G26G12G05G29G02
 -30879643.25046 -23192834.05943  23049118.0084                   23049116.4804
 -13641381.21148 -10592973.07846  21484490.8984   21484491.1524   15074567.74246
  11781270.12143                  23981120.1174                   23981119.8914
 -30981397.60547 -24102549.95746  21148916.4694                   21148914.1374
 -30533429.56648 -23752391.94546  20184086.5084                   20184083.7704
   3355214.35947   2664493.46944  22736351.3754                   22736349.7464
 -47454555.39548 -36863856.47745  21352373.3834                   21352368.8014
 11  8 16  2 22 30.0000000  0  7G10G25G26G12G05G29G02
 -30858194.28546 -23176120.55143  23053199.6954                   23053198.3674
 -13730340.62548 -10662292.07846  21467562.7584   21467562.2974   14900047.37546
  11645280.28943                  23947909.9534                   23947909.1214
 -31006008.61748 -24121727.37546  21144233.1094                   21144230.8054
 -30597662.91448 -23802443.88746  20171863.3134                   20171860.8714
   3193971.93447   2538850.07444  22705667.7734                   22705666.5594
 -47496078.78548 -36896212.34845  21344471.3364                   21344466.9804
 11  8 16  2 23  0.0000000  0  7G10G25G26G12G05G29G02
 -29261091.48046 -21931624.84443  23357118.5234                   23357117.3164
 -12243281.59848  -9503544.77346  21750540.5944   21750540.3524   16300960.08446
  12736900.65443                  24214494.0864                   24214494.0904
 -29454711.14548 -22912924.16046  21439435.3134                   21439433.0084
 -29085912.79748 -22624456.77046  20459540.0634                   20459537.1334
   4608217.76647   3640859.88344  22974790.2114                   22974788.5124
 -45962070.52348 -35700881.21545  21636383.6644                   21636379.2894
 11  8 16  2 23 30.0000000  0  7G10G25G26G12G05G29G02
 -29239175.57046 -21914547.52743  23361288.5554                   23361287.3954
 -12331049.34448  -9571935.21946  21733838.6414   21733839.3444   16126458.40646
  12600925.36743                  24181286.9774                   24181287.4064
 -29478348.81648 -22931343.12946  21434937.0554                   21434934.3634
 -29149023.96548 -22673634.27746  20447530.2034                   20447527.4804
   4447103.21947   3515316.14544  22944130.5084                   22944129.2234
 -46003372.87948 -35733064.84845  21628524.0864                   21628520.1134
 11  8 16  2 24  0.0000000  0  7G10G25G26G12G05G29G02
 -29217029.31647 -21897290.69143  23365503.4384                   23365501.7974
 -12418219.81648  -9639860.23446  21717250.7814   21717250.3404   15951972.24246
  12464962.20743                  24148084.2194                   24148083.7934
 -29501501.71147 -22949384.35246  21430531.0944                   21430529.2114
 -29211574.43448 -22722374.89146  20435627.2734                   20435624.4144
   4286056.45747   3389825.21944  22913484.5864                   22913483.3444
 -46044563.78548 -35765161.64145  21620685.9454                   21620681.1844
 11  8 16  2 24 30.0000000  0  7G10G25G26G12G05G29G02
 -29194657.93747 -21879858.43743  23369760.7194                   23369758.4924
 -12504795.62548  -9707321.89546  21700775.8754   21700775.6994   15777502.62546
  12329011.91843                  24114883.3444                   24114882.7274
 -29524174.78148 -22967051.68446  21426217.0704                   21426214.4844
 -29273568.30948 -22770681.78546  20423830.0784                   20423827.3444
   4125076.48047   3264386.34045  22882850.9454                   22882849.2934
 -46085645.92248 -35797173.68445  21612867.7274                   21612863.2734
 11  8 16  2 25  0.0000000  0  7G10G25G26G12G05G29G02
 -29172063.69947 -21862252.52343  23374060.4844                   23374058.7194
 -12590776.21148  -9774319.74646  21684414.5084   21684414.7114   15603053.22346
  12193077.34043                  24081686.6644                   24081686.7814
 -29546369.53147 -22984346.30146  21421993.3674                   21421990.9384
 -29335006.26648 -22818555.50046  20412139.0784                   20412136.1804
   3964165.80947   3139001.46945  22852230.7504                   22852229.4654
 -46126619.17248 -35829100.88345  21605071.2034                   21605066.8364
 11  8 16  2 25 30.0000000  0  7G10G25G26G12G05G29G02
 -29149246.74647 -21844473.08643  23378401.9384                   23378400.5594
 -12676159.04748  -9840851.82046  21668166.3134   21668166.5744   15428629.92246
  12057163.15643                  24048495.1174                   24048494.5744
 -29568085.71947 -23001268.01646  21417860.6564                   21417858.3094
 -29395886.60548 -22865994.70346  20400553.4694                   20400550.7074
   3803328.44947   3013673.71545  22821624.6804                   22821623.1804
 -46167481.63747 -35860941.74645  21597294.9534                   21597290.4654
 11  8 16  2 26  0.0000000  0  7G10G25G26G12G05G29G02
 -29126210.91047 -21826523.06644  23382785.6334                   23382783.5044
 -12760945.19948  -9906918.93746  21652031.9694   21652032.2934   15254235.14846
  11921271.18043                  24015309.6254                   24015308.7974
 -29589326.38747 -23017819.18446  21413819.3284                   21413816.5434
 -29456211.57848 -22913001.15646  20389073.8834                   20389071.4344
   3642565.43847   2888403.91045  22791031.8984                   22791030.2114
 -46208234.25848 -35892697.03145  21589540.1254                   21589535.7584
 11  8 16  2 26 30.0000000  0  7G10G25G26G12G05G29G02
 -29102964.51646 -21808409.00043  23387209.2664                   23387207.3834
 -12845140.46148  -9972525.62946  21636010.7424   21636010.8244   15079866.59446
  11785399.61743                  23982127.5474                   23982126.6804
 -29610099.86747 -23034006.32046  21409866.0634                   21409863.2424
 -29515988.23448 -22959580.35246  20377699.2504                   20377696.4494
   3481872.68047   2763188.85245  22760453.0864                   22760452.0164
 -46248882.82048 -35924371.21545  21581805.2584                   21581800.6334
 11  8 16  2 27  0.0000000  0  7G10G25G26G12G05G29G02
 -29079504.50046 -21790128.49643  23391673.2974                   23391671.6134
 -12928738.89548 -10037667.25846  21620102.6174   21620102.5044   14905533.75046
  11649555.89143                  23948953.2814                   23948952.4614
 -29630402.23047 -23049826.34846  21406002.3674                   21405999.7344
 -29575212.12948 -23005728.82446  20366428.9454                   20366426.3594
   3321257.91047   2638034.55545  22729889.3444                   22729887.9654
 -46289421.70348 -35955959.94145  21574090.5784                   21574086.0784
 11  8 16  2 27 30.0000000  0  7G10G25G26G12G05G29G02
 -29055836.84046 -21771686.15243  23396177.0474                   23396175.6684
 -13011744.20348 -10102346.71146  21604306.7664   21604306.7194   14731236.31646
  11513739.73843                  23915785.3674                   23915784.8324
 -29650239.44947 -23065283.91846  21402227.0474                   21402224.9844
 -29633887.93448 -23051450.21146  20355263.1484                   20355260.2424
   3160719.22747   2512939.55545  22699339.2974                   22699338.2774
 -46329854.82448 -35987466.25845  21566396.4304                   21566391.7074
 11  8 16  2 28  0.0000000  0  7G10G25G26G12G05G29G02
 -29031962.27746 -21753082.60943  23400720.0474                   23400718.6724
 -13094154.11748 -10166562.22346  21588624.5164   21588624.5824   14556980.18046
  11377955.82043                  23882625.3984                   23882625.2624
 -29669611.48047 -23080379.01646  21398540.9064                   21398538.3594
 -29692014.50848 -23096743.62546  20344202.1414                   20344199.6564
   3000261.43047   2387907.57845  22668805.3284                   22668803.9344
 -46370179.64548 -36018888.18045  21558723.2814                   21558718.8444
 11  8 16  2 28 30.0000000  0  7G10G25G26G12G05G29G02
 -29007883.57446 -21734319.99643  23405301.9694                   23405301.0044
 -13175969.23048 -10230314.25846  21573055.7584   21573055.6764   14382768.34446
  11242206.39143                  23849474.4384                   23849472.9924
 -29688520.90647 -23095113.63746  21394942.6334                   21394939.9774
 -29749593.67248 -23141610.49246  20333245.0864                   20333242.5234
   2839885.37947   2262939.30545  22638287.0004                   22638285.2894
 -46410397.19148 -36050226.51645  21551070.0634                   21551065.6414
 11  8 16  2 29  0.0000000  0  7G10G25G26G12G05G29G02
 -28983609.26646 -21715404.94543  23409921.7974                   23409920.3054
 -13257195.46548 -10293607.41046  21557598.8204   21557598.8984   14208598.64846
  11106489.80143                  23816330.7894                   23816329.9024
 -29706975.85947 -23109494.12146  21391431.1954                   21391428.5004
 -29806632.49248 -23186056.30146  20322391.4304                   20322388.2664
   2679587.09447   2138031.61345  22607782.7344                   22607781.7344
 -46450513.05948 -36081485.61345  21543435.7034                   21543431.7034
 11  8 16  2 29 30.0000000  0  7G10G25G26G12G05G29G02
 -28959135.75446 -21696334.68043  23414579.1024                   23414577.0594
 -13337826.55547 -10356436.82446  21542255.1484   21542255.2544   14034480.81646
  10970813.65643                  23783196.8444                   23783196.6604
 -29724971.85947 -23123516.99246  21388006.3984                   21388003.8364
 -29863126.03948 -23230077.22746  20311640.9614                   20311637.9224
   2519374.81347   2013190.95345  22577295.7344                   22577294.0824
 -46490521.13748 -36112660.72745  21535822.2584                   21535818.4574
 11  8 16  2 30  0.0000000  0  7G10G25G26G12G05G29G02
 -28934466.98847 -21677112.25043  23419273.6804                   23419271.4384
 -13417864.07848 -10418803.72346  21527024.3674   21527024.7234   13860417.09446
  10835179.62143                  23750074.0314                   23750073.1724
 -29742513.25047 -23137185.61746  21384667.9304                   21384666.0434
 -29919076.74648 -23273675.16846  20300993.8444                   20300991.4224
   2359249.67247   1888418.19145  22546824.7114                   22546823.1684
 -46530422.83648 -36143752.94545  21528229.3284                   21528225.0314
 11  8 16  2 30 30.0000000  0  7G10G25G26G12G05G29G02
 -28909602.05147 -21657736.99243  23424004.6804                   23424002.7774
 -13497304.60248 -10480705.42646  21511907.6174   21511907.6094   13686414.72346
  10699593.41843                  23716962.0944                   23716961.7624
 -29759598.51247 -23150498.80546  21381416.8754                   21381414.6884
 -29974482.53548 -23316848.49246  20290449.9774                   20290447.2034
   2199217.12147   1763717.55945  22516371.5234                   22516369.7194
 -46570214.78948 -36174759.65645  21520657.2584                   21520653.1374
 11  8 16  2 31  0.0000000  0  7G10G25G26G12G05G29G02
 -28884548.36347 -21638214.61743  23428772.6414                   23428770.1134
 -13576153.35548 -10542146.00446  21496903.2194   21496903.3954   13512472.25846
  10564053.89543                  23683862.3914                   23683861.3954
 -29776234.72747 -23163462.09846  21378251.2664                   21378249.0514
 -30029349.71548 -23359602.11746  20280009.1644                   20280006.5634
   2039274.08647   1639086.67645  22485935.4534                   22485933.6174
 -46609901.95348 -36205684.69945  21513105.2974                   21513100.7304
 11  8 16  2 31 30.0000000  0  7G10G25G26G12G05G29G02
 -28859306.12946 -21618545.32443  23433576.2194                   23433574.1054
 -13654407.98448 -10603123.62946  21482011.8594   21482012.0084   13338595.71546
  10428565.76243                  23650774.3364                   23650773.5704
 -29792421.74647 -23176075.35945  21375171.2034                   21375168.9804
 -30083676.97748 -23401935.03146  20269671.1334                   20269668.6174
   1879424.82047   1514528.87145  22455516.8594                   22455515.2344
 -46649481.93448 -36236526.22745  21505573.5234                   21505569.1764
 11  8 16  2 32  0.0000000  0  7G10G25G26G12G05G29G02
 -28833881.54746 -21598733.96943  23438414.0164                   23438412.0634
 -13732072.44148 -10663641.38346  21467232.5394   21467232.8244   13164785.05146
  10293128.93443                  23617698.7584                   23617698.6174
 -29808165.44547 -23188343.18446  21372175.2814                   21372173.1174
 -30137469.49248 -23443851.25846  20259434.4064                   20259432.1954
   1719668.05147   1390043.13745  22425116.7974                   22425114.5904
 -46688958.48048 -36267287.16445  21498061.3914                   21498057.4924
 11  8 16  2 32 30.0000000  0  7G10G25G26G12G05G29G02
 -28808275.71146 -21578781.38743  23443285.9304                   23443285.1174
 -13809145.53947 -10723698.34046  21452566.0944   21452566.4734   12991045.31346
  10157747.41843                  23584638.5164                   23584637.1804
 -29823467.16447 -23200266.61346  21369263.5004                   21369261.4144
 -30190727.11748 -23485350.70346  20249300.3524                   20249297.5044
   1560006.64847   1265631.69545  22394733.9924                   22394732.2424
 -46728329.96948 -36297966.23445  21490568.9924                   21490564.8594
 11  8 16  2 33  0.0000000  0  7G10G25G26G12G05G29G02
 -28782489.87946 -21558688.54743  23448192.7814                   23448191.8914
 -13885626.37547 -10783293.78546  21438012.3204   21438012.1094   12817381.46546
  10022425.00843                  23551590.3834                   23551590.1994
 -29838327.41847 -23211846.03145  21366435.5554                   21366433.2074
 -30243449.94147 -23526433.40646  20239267.3524                   20239264.5984
   1400443.94547   1141297.17245  22364370.1414                   22364368.3834
 -46767595.41847 -36328562.66845  21483096.9064                   21483092.7234
 11  8 16  2 33 30.0000000  0  7G10G25G26G12G05G29G02
 -27181109.81246 -20310859.98043  23752925.3444                   23752924.2774
 -12386094.92248  -9614827.72346  21723363.2424   21723363.7704   14219220.59046
  11114767.26643                  23818351.3444                   23818350.6414
 -28277330.64547 -21995484.92645  21663483.3204                   21663480.9414
 -28720220.05548 -22339501.00846  20529128.6724                   20529125.7274
   2816405.38347   2244643.79745  22633818.6564                   22633816.7034
 -45231335.46948 -35131476.98445  21775437.7114                   21775433.2464
 11  8 16  2 34  0.0000000  0  8G10G25G26G12G05G15G29G02
 -27154983.43046 -20290501.74243  23757897.5784                   23757896.4064
 -12461403.95348  -9673510.06646  21709032.9144   21709033.2894   14045707.51246
  10979562.34843                  23785333.0314                   23785331.9924
 -28291327.71147 -22006391.73446  21660819.8364                   21660817.6564
 -28771889.75048 -22379763.09846  20519295.8134                   20519293.0744
  24781033.22356  19364395.23453  24708309.7504                   24708310.2074
   2657034.90647   2120459.05545  22603491.2344                   22603489.0784
 -45270400.41047 -35161917.18445  21768004.0084                   21767999.0704
 11  8 16  2 34 30.0000000  0  8G10G25G26G12G05G15G29G02
 -27128694.55946 -20270016.93043  23762900.0784                   23762898.2384
 -12536131.40248  -9731739.24646  21694812.4534   21694812.5634   13872271.42246
  10844417.41843                  23752329.1024                   23752328.5864
 -28304900.38747 -22016967.84845  21658236.6644                   21658234.5234
 -28823038.60948 -22419619.33646  20509562.8444                   20509559.9884
  24608715.44146  19230121.80143  24675517.6484                   24675519.4774
   2497759.78947   1996348.64145  22573181.8984                   22573180.1094
 -45309368.84847 -35192282.19145  21760588.6414                   21760583.9304
 11  8 16  2 35  0.0000000  0  8G10G25G26G12G05G15G29G02
 -27102243.77346 -20249405.93443  23767933.2114                   23767932.2664
 -12610275.83648  -9789514.12146  21680703.6094   21680703.5514   13698918.03146
  10709336.92643                  23719341.2974                   23719340.5274
 -28318049.32047 -22027213.77746  21655734.7734                   21655732.3134
 -28873666.34048 -22459069.49646  20499928.6334                   20499925.5004
  24436283.86746  19095759.73443  24642705.7424                   24642706.4924
   2338583.76647   1872315.43045  22542891.4924                   22542889.3874
 -45348239.17247 -35222570.73445  21753191.7584                   21753187.3014
 11  8 16  2 35 30.0000000  0  8G10G25G26G12G05G15G29G02
 -27075633.84446 -20228670.91443  23772997.6414                   23772996.0864
 -12683837.75848  -9846835.10246  21666705.2974   21666705.3874   13525650.63346
  10574323.46143                  23686368.7814                   23686368.3204
 -28330777.01247 -22037131.46946  21653312.8204                   21653310.6764
 -28923774.33248 -22498114.66846  20490393.3834                   20490390.8914
  24263741.25446  18961311.10243  24609871.9454                   24609872.4534
   2179509.13747   1748361.22745  22512620.8444                   22512619.1844
 -45387011.20347 -35252782.69145  21745813.4534                   21745809.2894
 11  8 16  2 36  0.0000000  0  8G10G25G26G12G05G15G29G02
 -27048866.50446 -20207813.25443  23778090.9614                   23778089.5204
 -12756816.93048  -9903701.98046  21652817.6024   21652817.3754   13352473.74246
  10439380.48843                  23653414.7424                   23653413.7664
 -28343084.70747 -22046721.89145  21650970.7664                   21650968.4414
 -28973363.82848 -22536755.82046  20480956.5864                   20480953.9844
  24091091.09846  18826778.67243  24577017.7894                   24577018.1334
   2020538.32047   1624487.90645  22482369.3914                   22482367.8554
 -45425684.48447 -35282917.69945  21738454.4454                   21738449.6994
 11  8 16  2 36 30.0000000  0  8G10G25G26G12G05G15G29G02
 -27021943.15646 -20186833.98443  23783214.8914                   23783212.4184
 -12829212.71548  -9960114.27346  21639041.1254   21639041.2464   13179392.03946
  10304511.69943                  23620478.4694                   23620477.4614
 -28354974.30147 -22055986.52045  21648708.3594                   21648705.7624
 -29022434.78548 -22574992.92246  20471618.8284                   20471616.0204
  23918337.12146  18692165.33643  24544143.3204                   24544144.0124
   1861674.68447   1500698.13345  22452138.6564                   22452137.0744
 -45464257.66447 -35312974.71145  21731114.2424                   21731109.6484
 11  8 16  2 37  0.0000000  0  8G10G25G26G12G05G15G29G02
 -26994861.83246 -20165731.64543  23788368.2274                   23788366.0984
 -12901021.55548 -10016069.21146  21625376.0314   21625376.3674   13006413.47746
  10169723.30543                  23587561.5164                   23587560.3674
 -28366444.18747 -22064924.10245  21646525.6024                   21646523.2114
 -29070984.99248 -22612824.23046  20462380.0314                   20462377.2234
  23745486.12546  18557476.39143  24511250.9694                   24511251.8164
   1702924.30147   1376996.59445  22421929.7034                   22421927.7664
 -45502726.58247 -35342950.48045  21723793.6174                   21723789.1684
 11  8 16  2 37 30.0000000  0  8G10G25G26G12G05G15G29G02
 -26967629.80946 -20144511.84043  23793550.0164                   23793548.0744
 -12972248.41448 -10071570.65246  21611822.1024   21611822.6764   12833537.09846
  10035014.49643                  23554664.4534                   23554663.1524
 -28377501.07447 -22073539.86745  21644421.3984                   21644419.4064
 -29119020.38748 -22650254.39146  20453239.0084                   20453236.6214
  23572536.16446  18422710.33243  24478340.3204                   24478339.9344
   1544284.80947   1253381.46945  22391740.9924                   22391739.5354
 -45541095.78147 -35372848.54345  21716492.0944                   21716487.4064
 11  8 16  2 38  0.0000000  0  8G10G25G26G12G05G15G29G02
 -26940249.38346 -20123176.40643  23798760.4924                   23798758.6884
 -13042893.65248 -10126618.88746  21598378.8984   21598379.0664   12660766.96546
   9900388.51243                  23521786.6724                   23521785.9024
 -28388147.15647 -22081835.52745  21642395.4304                   21642393.2114
 -29166542.36348 -22687284.48846  20444195.9614                   20444193.0824
  23399490.44146  18287869.66843  24445410.0004                   24445410.2774
   1385758.73847   1129854.71945  22361574.6484                   22361573.2424
 -45579365.02347 -35402668.72745  21709209.7584                   21709205.3244
 11  8 16  2 38 30.0000000  0  8G10G25G26G12G05G15G29G02
 -26912723.55546 -20101727.70743  23803998.0784                   23803996.0044
 -13112958.39848 -10181214.78146  21585046.4614   21585046.5634   12488106.15246
   9765847.67643                  23488930.9064                   23488929.7584
 -28398385.54347 -22089813.50045  21640447.3834                   21640444.9964
 -29213552.83248 -22723916.00846  20435250.0634                   20435247.3484
  23226351.20346  18152956.12543  24412462.9224                   24412462.6454
   1227347.53547   1006417.47345  22331430.1954                   22331428.5124
 -45617534.83647 -35432411.42245  21701946.0314                   21701941.7304
 11  8 16  2 39  0.0000000  0  8G10G25G26G12G05G15G29G02
 -26885056.27746 -20080168.80943  23809263.3594                   23809261.3364
 -13182444.63748 -10235359.89546  21571823.0634   21571823.3594   12315556.92246
   9631393.80144                  23456095.7584                   23456095.0744
 -28408220.25047 -22097476.91845  21638575.6804                   21638573.7774
 -29260054.91448 -22760151.37946  20426401.1484                   20426398.4144
  23053119.55946  18017970.54343  24379497.3284                   24379497.4104
   1069051.93847    883070.31345  22301307.5944                   22301305.5354
 -45655606.57447 -35462077.69945  21694701.5004                   21694697.0204
 11  8 16  2 39 30.0000000  0  8G10G25G26G12G05G15G29G02
 -26857244.66446 -20058497.43743  23814554.8134                   23814553.6604
 -13251347.80548 -10289050.67246  21558711.0554   21558711.1054   12143128.25846
   9497033.88344                  23423284.1174                   23423283.2384
 -28417648.45347 -22104823.58245  21636782.1414                   21636779.6684
 -29306044.96148 -22795987.77046  20417649.6804                   20417646.9064
  22879803.61346  17882919.29343  24346517.2034                   24346516.9494
    910879.39147    759819.03145  22271208.4144                   22271206.3914
 -45693574.77347 -35491663.29745  21687476.2974                   21687471.8524
 11  8 16  2 40  0.0000000  0  8G10G25G26G12G05G15G29G02
 -26829294.77046 -20036718.34443  23819874.2894                   23819872.6294
 -13319672.30148 -10342290.52346  21545709.8674   21545710.2584   11970819.98447
   9362767.75444                  23390494.4454                   23390493.7194
 -28426676.47747 -22111858.41445  21635063.6644                   21635061.3594
 -29351528.24648 -22831429.27346  20408994.2504                   20408991.6884
  22706402.46546  17747801.68043  24313519.2584                   24313519.2734
    752828.18847    636662.30545  22241132.0634                   22241130.0744
 -45731443.21147 -35521171.15645  21680270.3204                   21680265.9574
 11  8 16  2 40 30.0000000  0  8G10G25G26G12G05G15G29G02
 -26801209.78146 -20014833.93043  23825218.3914                   23825216.7194
 -13387419.39848 -10395080.46146  21532817.8984   21532818.1174   11798635.61347
   9228598.18043                  23357728.5474                   23357727.9964
 -28435307.14547 -22118583.62545  21633421.9614                   21633418.8954
 -29396507.27348 -22866477.85246  20400435.0004                   20400432.1334
  22532918.28546  17612619.31643  24280506.4774                   24280505.6804
    594899.69147    513601.18845  22211079.3754                   22211077.5474
 -45769212.46148 -35550601.73045  21673082.9844                   21673078.7034
 11  8 16  2 41  0.0000000  0  8G10G25G26G12G05G15G29G02
 -26772989.93046 -19992844.44443  23830588.3204                   23830586.4924
 -13454587.72748 -10447419.40246  21520036.0784   21520036.3054   11626580.72347
   9094529.50043                  23324987.8754                   23324987.0274
 -28443541.06248 -22124999.66045  21631854.4844                   21631852.5234
 -29440981.44948 -22901133.04346  20391972.1174                   20391969.2704
  22359355.80946  17477375.90243  24247478.0084                   24247478.7544
    437098.29347    390639.10545  22181050.3284                   22181048.8554
 -45806880.14847 -35579953.16045  21665915.2504                   21665910.2934
 11  8 16  2 41 30.0000000  0  8G10G25G26G12G05G15G29G02
 -26744641.12546 -19970754.44943  23835982.5234                   23835981.2814
 -13521181.62148 -10499310.74646  21507363.9534   21507363.9414   11454655.48847
   8960561.84444                  23292271.5704                   23292269.9454
 -28451384.55547 -22131111.48445  21630361.8204                   21630359.8634
 -29484956.07448 -22935398.96946  20383603.4614                   20383600.6174
  22185714.09846  17342070.79743  24214434.8754                   24214435.2234
    279422.44947    267774.85945  22151046.0634                   22151043.8714
 -45844450.08647 -35609228.42245  21658765.5554                   21658760.9884
 11  8 16  2 42  0.0000000  0  8G10G25G26G12G05G15G29G02
 -26716164.24246 -19948564.67643  23841401.7894                   23841400.7384
 -13587199.60248 -10550753.31646  21494800.9614   21494800.9964   11282865.93447
   8826699.89844                  23259581.2504                   23259579.7894
 -28458838.06247 -22136919.41445  21628943.8204                   21628941.4264
 -29528430.72748 -22969275.29746  20375331.0704                   20375328.0864
  22011998.73846  17206708.32043  24181378.0004                   24181378.1174
    121876.81347    145012.08645  22121066.0084                   22121064.0744
 -45881919.73847 -35638425.54745  21651635.3284                   21651630.7304
 11  8 16  2 42 30.0000000  0  8G10G25G26G12G05G15G29G02
 -26687566.48046 -19926280.73443  23846843.6334                   23846842.0274
 -13652647.67248 -10601751.78946  21482346.5944   21482346.5744   11111210.51246
   8692942.48043                  23226916.3364                   23226915.4414
 -28465909.06247 -22142429.28945  21627598.2424                   21627595.7774
 -29571412.19148 -23002767.34446  20367151.8054                   20367149.3554
  21838207.07446  17071286.37143  24148306.9144                   24148306.2934
    -35541.82847     22348.24645  22091110.0704                   22091108.1484
 -45919294.30547 -35667548.58245  21644523.2814                   21644518.3524
 11  8 16  2 43  0.0000000  0  8G10G25G26G12G05G15G29G02
 -26658845.34446 -19903900.63343  23852309.0554                   23852307.9414
 -13717521.75048 -10652303.02046  21470001.5634   21470001.7194   10939697.83246
   8559296.30543                  23194277.8984                   23194276.8674
 -28472595.41047 -22147639.43745  21626325.8914                   21626323.3244
 -29613897.37548 -23035872.67246  20359067.1024                   20359064.3834
  21664346.56646  16935810.78543  24115222.0944                   24115221.5164
   -192826.39147   -100211.10945  22061179.8204                   22061177.7894
 -45956568.89547 -35696593.70745  21637430.2114                   21637425.6954
 11  8 16  2 43 30.0000000  0  8G10G25G26G12G05G15G29G02
 -25054587.30146 -18653829.43443  24157589.2114                   24157588.0904
 -12206403.87148  -9474808.54746  21757557.4924   21757557.6254   12343754.14546
   9653366.24243                  23461461.1804                   23461459.9654
 -26903482.69947 -20924954.21945  21924918.0314                   21924915.6724
 -28080469.94948 -21840994.14546  20650869.1254                   20650865.6054
  23065842.78946  18027885.89843  24381918.2504                   24381917.1214
   1225447.33647   1004937.30945  22331068.4304                   22331066.5514
 -44418325.19947 -34497962.25045  21930148.2734                   21930143.7584
 11  8 16  2 44  0.0000000  0  8G10G25G26G12G05G15G29G02
 -25025631.16846 -18631266.14543  24163099.4694                   24163098.3204
 -12270137.46948  -9524471.07846  21745429.5314   21745429.1764   12172533.57446
   9519947.65643                  23428878.8984                   23428877.4264
 -26909412.67247 -20929574.98445  21923789.8134                   21923787.3594
 -28121972.80548 -21873334.02046  20642970.9454                   20642967.7194
  22891848.75446  17892306.25443  24348807.3134                   24348807.2304
   1068432.59847    882588.19545  22301189.5004                   22301187.2814
 -44455403.85247 -34526854.69545  21923092.0864                   21923087.3834
 11  8 16  2 44 30.0000000  0  8G10G25G26G12G05G15G29G02
 -24996559.69146 -18608613.06642  24168630.7974                   24168630.4574
 -12333300.32448  -9573688.88346  21733410.0234   21733410.0474   12001466.55146
   9386648.73843                  23396326.2664                   23396324.6724
 -26914966.24647 -20933902.44945  21922732.8524                   21922730.8014
 -28162985.24248 -21905291.75046  20635166.5784                   20635163.6994
  22717793.96946  17756679.28143  24315685.6954                   24315685.6214
    911558.11347    760348.37945  22271337.0554                   22271335.6914
 -44492382.75447 -34555669.41845  21916055.2814                   21916051.1094
 11  8 16  2 45  0.0000000  0  8G10G25G26G12G05G15G29G02
 -24967376.52046 -18585872.97742  24174185.7504                   24174184.0354
 -12395894.82848  -9622463.81246  21721498.7504   21721498.8954   11830555.22346
   9253471.16043                  23363802.7194                   23363801.1914
 -26920147.79747 -20937940.03145  21921746.8984                   21921744.5004
 -28203510.58648 -21936869.93046  20627454.8674                   20627451.6214
  22543679.74246  17621006.00443  24282553.1954                   24282552.9574
    754824.66447    638218.46545  22241511.5944                   22241509.8524
 -44529263.23047 -34584407.44145  21909037.5634                   21909032.9774
 11  8 16  2 45 30.0000000  0  8G10G25G26G12G05G15G29G02
 -24938082.60546 -18563046.48042  24179759.2034                   24179757.9734
 -12457920.52348  -9670795.50846  21709695.4924   21709695.4654   11659804.91046
   9120419.04743                  23331309.3674                   23331308.6334
 -26924958.39847 -20941688.55545  21920831.5314                   21920829.1684
 -28243549.11748 -21968068.77346  20619835.5944                   20619833.0944
  22369510.58646  17485289.92643  24249409.6484                   24249409.2504
    598235.64147    516201.09045  22211713.3364                   22211711.9304
 -44566043.40647 -34613067.30945  21902038.2114                   21902033.8014
 11  8 16  2 46  0.0000000  0  8G10G25G26G12G05G15G29G02
 -24908682.87546 -18540137.62942  24185352.4534                   24185352.8164
 -12519380.71948  -9718686.56246  21698000.2424   21697999.9144   11489216.96146
   8987493.42643                  23298847.6024                   23298846.4024
 -26929402.87947 -20945151.78945  21919985.7814                   21919983.2664
 -28283104.94948 -21998891.48046  20612308.5554                   20612305.7074
  22195286.79746  17349531.26643  24216256.2114                   24216255.9414
    441790.60547    394295.91445  22181943.0394                   22181941.4024
 -44602725.75447 -34641650.95745  21895058.2274                   21895053.3444
 11  8 16  2 46 30.0000000  0  8G10G25G26G12G05G15G29G02
 -24879176.24446 -18517145.44943  24190968.6024                   24190967.2774
 -12580273.20748  -9766135.25046  21686412.4844   21686412.5434   11318798.49647
   8854699.87144                  23266418.2344                   23266416.5824
 -26933480.70747 -20948329.32445  21919209.8834                   21919207.5944
 -28322176.68447 -22029336.97746  20604873.5704                   20604870.8134
  22021014.48446  17213734.81343  24183093.1724                   24183092.2114
    285495.38347    272507.47745  22152201.2974                   22152199.3594
 -44639306.86347 -34670155.69945  21888096.7664                   21888092.5314
 11  8 16  2 47  0.0000000  0  8G10G25G26G12G05G15G29G02
 -24849565.44146 -18494072.08643  24196603.9304                   24196603.3914
 -12640599.29748  -9813142.59046  21674933.0784   21674932.7154   11148553.00447
   8722041.10244                  23234021.4614                   23234020.7894
 -26937195.39847 -20951223.88745  21918502.9144                   21918500.5514
 -28360766.57047 -22059407.00446  20597530.0394                   20597526.9574
  21846696.17246  17077902.50043  24149920.8444                   24149920.6644
    129352.03147    150837.37545  22122488.1484                   22122486.1054
 -44675786.93047 -34698581.72345  21881154.6564                   21881150.1804
 11  8 16  2 47 30.0000000  0  8G10G25G26G12G05G15G29G02
 -24819851.54346 -18470918.39843  24202258.1254                   24202256.7274
 -12700358.85948  -9859708.46946  21663561.1094   21663560.4964   10978485.29747
   8589520.87944                  23201659.2424                   23201657.5084
 -26940548.29347 -20953836.53945  21917864.6644                   21917862.5704
 -28398875.39148 -22089102.17646  20590278.0784                   20590275.2704
  21672335.92646  16942037.52043  24116740.8834                   24116740.7664
    -26636.22347     29288.12945  22092804.9534                   22092802.4184
 -44712164.58247 -34726927.93445  21874232.2424                   21874227.8914
 11  8 16  2 48  0.0000000  0  8G10G25G26G12G05G15G29G02
 -24790043.93746 -18447691.69643  24207930.4064                   24207928.9064
 -12759559.84848  -9905839.11346  21652295.4534   21652295.6214   10808592.19547
   8457136.70344                  23169329.4694                   23169327.7274
 -26943548.68047 -20956174.50845  21917294.1254                   21917291.3244
 -28436511.69148 -22118429.14546  20583116.1954                   20583113.4344
  21497929.96946  16806136.89843  24083553.2114                   24083552.2504
   -182473.99647    -92143.85945  22063149.3984                   22063147.8984
 -44748446.58647 -34755199.61345  21867328.1644                   21867323.7194
 11  8 16  2 48 30.0000000  0  8G10G25G26G12G05G15G29G02
 -24760142.73446 -18424392.05143  24213621.2734                   24213619.5084
 -12818201.43748  -9951533.84846  21641136.2584   21641136.0904   10638879.78147
   8324893.33644                  23137033.3834                   23137032.7974
 -26946197.44547 -20958238.48445  21916789.5944                   21916787.1844
 -28473675.52348 -22147387.97746  20576043.7504                   20576041.2704
  21323482.80546  16670204.15643  24050356.8054                   24050356.1684
   -338157.06647   -213455.29345  22033524.1414                   22033521.9104
 -44784630.70747 -34783395.02745  21860442.6094                   21860438.4844
 11  8 16  2 49  0.0000000  0  8G10G25G26G12G05G15G29G02
 -24730150.77346 -18401021.66443  24219328.1724                   24219326.3364
 -12876285.10248  -9996793.84446  21630083.4924   21630083.1884   10469351.20747
   8192793.22344                  23104773.7504                   23104772.6954
 -26948497.67647 -20960030.87945  21916351.7424                   21916350.0204
 -28510369.32448 -22175980.53546  20569061.3284                   20569058.3674
  21148997.44146  16534241.66443  24017153.3524                   24017152.5904
   -493683.44547   -334644.63345  22003928.4064                   22003926.3594
 -44820717.18747 -34811514.34845  21853575.2664                   21853571.2034
 11  8 16  2 49 30.0000000  0  8G10G25G26G12G05G15G29G02
 -24700067.99646 -18377580.53943  24225052.2814                   24225050.3284
 -12933809.78948 -10041618.26646  21619136.6564   21619136.6484   10300012.61746
   8060841.13344                  23072549.1564                   23072548.0554
 -26950449.76647 -20961551.98845  21915980.3444                   21915978.3954
 -28546592.50048 -22204206.37146  20562168.1254                   20562165.4844
  20974478.68846  16398253.13343  23983943.6484                   23983942.2194
   -649048.70747   -455708.41445  21974363.1804                   21974361.3444
 -44856703.54347 -34839555.65245  21846727.1414                   21846723.0234
 11  8 16  2 50  0.0000000  0  8G10G25G26G12G05G15G29G02
 -24669897.92646 -18354071.39543  24230794.1254                   24230791.5744
 -12990777.61348 -10086008.78146  21608296.1094   21608296.0514   10130866.91447
   7929039.36344                  23040362.0314                   23040360.2974
 -26952057.64847 -20962804.89545  21915674.7274                   21915672.3094
 -28582348.05548 -22232067.82446  20555364.5314                   20555361.3634
  20799928.42246  16262240.05143  23950727.5944                   23950726.3204
   -804251.73047   -576645.80145  21944828.7194                   21944826.7114
 -44892590.78947 -34867519.74245  21839898.2344                   21839893.9534
 11  8 16  2 50 30.0000000  0  8G10G25G26G12G05G15G29G02
 -24639642.02046 -18330495.35242  24236550.9384                   24236548.6564
 -13047189.14148 -10129965.82046  21597561.3984   21597561.3874
   9961918.35547   7797391.19944  23008212.1954                   23008210.8914
 -26953323.25047 -20963791.07845  21915434.0554                   21915430.9844
 -28617637.16447 -22259565.82846  20548649.0234                   20548646.1484
  20625350.55946  16126205.49243  23917506.0554                   23917505.5634
   -959289.37147   -697454.30945  21915326.5864                   21915324.0594
 -44928377.90247 -34895405.79345  21833087.5164                   21833083.8324
 11  8 16  2 51  0.0000000  0  8G10G25G26G12G05G15G29G02
 -24609305.91045 -18306856.84842  24242324.2974                   24242322.9884
 -13103048.95748 -10173492.95346  21586931.8754   21586931.8524
   9793167.57047   7665897.14144  22976099.5944                   22976098.4414
 -26954252.78547 -20964515.40245  21915257.3444                   21915254.6094
 -28652465.42247 -22286704.72746  20542021.3914                   20542018.5044
  20450744.83247  15990149.19143  23884279.9064                   23884278.8054
  -1114162.57047   -818134.67245  21885854.6334                   21885852.5274
 -44964068.07447 -34923216.30945  21826296.5004                   21826292.4494
 11  8 16  2 51 30.0000000  0  8G10G25G26G12G05G15G29G02
 -24578887.25445 -18283154.00842  24248112.3284                   24248111.9454
 -13158353.65248 -10216587.52046  21576407.8984   21576407.5984
   9624622.97347   7534563.72344  22944026.7424                   22944025.6454
 -26954844.15647 -20964976.21145  21915144.1024                   21915142.3984
 -28686829.86347 -22313482.19546  20535481.9924                   20535479.0204
  20276118.32846  15854076.70343  23851049.6564                   23851048.6374
  -1268864.44947   -938681.55145  21856415.7584                   21856413.6134
 -44999656.53947 -34950947.56645  21819524.5864                   21819520.0744
 11  8 16  2 52  0.0000000  0  8G10G25G26G12G05G15G29G02
 -24548395.03945 -18259393.84842  24253915.3754                   24253914.7504
 -13213111.16048 -10259255.71146  21565987.5474   21565987.2074
   9456281.66847   7403388.75044  22911992.1174                   22911991.0274
 -26955106.72347 -20965180.82445  21915094.1254                   21915091.8054
 -28720739.14148 -22339904.99646  20529029.3364                   20529026.4304
  20101467.33647  15717985.14144  23817814.6484                   23817813.7584
  -1423399.47747  -1059098.41045  21827009.4144                   21827006.6644
 -45035149.47347 -34978604.39145  21812770.1954                   21812765.6844
 11  8 16  2 52 30.0000000  0  8G10G25G26G12G05G15G29G02
 -24517830.13346 -18235577.02342  24259731.2894                   24259730.9304
 -13267321.40248 -10301497.46146  21555671.7894   21555671.6724
   9288148.93447   7272376.27744  22879997.9924                   22879996.6454
 -26955041.98047 -20965130.37545  21915106.6254                   21915104.9494
 -28754193.96147 -22365973.67646  20522663.0704                   20522660.5274
  19926796.58646  15581878.18843  23784576.0004                   23784574.4384
  -1577763.39547  -1179381.93445  21797634.6484                   21797632.1724
 -45070545.36747 -35006185.60545  21806034.9454                   21806030.3554
 11  8 16  2 53  0.0000000  0  8G10G25G26G12G05G15G29G02
 -24487190.18046 -18211701.70342  24265561.0554                   24265561.3164
 -13320981.00848 -10343310.13746  21545460.4454   21545460.8014
   9120233.25847   7141532.95744  22848044.3284                   22848043.7074
 -26954648.25447 -20964823.57845  21915181.6484                   21915179.3054
 -28787191.70348 -22391686.19946  20516383.8054                   20516381.2464
  19752113.35946  15445761.48843  23751334.5864                   23751333.2304
  -1731950.21147  -1299527.46145  21768293.7974                   21768291.5044
 -45105839.37547 -35033687.43045  21799318.6414                   21799313.9144
 11  8 16  2 53 30.0000000  0  9G10G25G26G12G05G15G29G21G02
 -22881058.00446 -16960170.09842  24571198.2734                   24571198.3324
 -11798669.37148  -9157093.27746  21835146.8054   21835146.5984
  10527964.24247   8238466.25843  23115926.7814                   23115925.5434
 -25378508.09047 -19736662.41445  22215111.6884                   22215108.8674
 -27244312.78947 -21189442.87546  20809984.3134                   20809981.0124
  21152846.66846  16537242.13343  24017885.3834                   24017884.1564
   -310531.96547   -191928.77345  22038780.5944                   22038778.1604
  28199871.72356  22031513.80952  25313676.9304                   25313675.9104
 -43565609.96947 -33833508.66845  22092414.3754                   22092409.7624
 11  8 16  2 54  0.0000000  0  9G10G25G26G12G05G15G29G21G02
 -22850280.96146 -16936187.96143  24577055.3204                   24577054.6454
 -11851238.45748  -9198056.20346  21825143.5634   21825143.3134
  10360487.53547   8107964.98044  23084057.2974                   23084055.4774
 -25377471.13747 -19735854.40245  22215308.4694                   22215305.9884
 -27276408.67648 -21214452.64546  20803876.3054   20803873.4534   20978141.28946
  16401108.19544                  23984639.4384                   23984638.8094
   -464363.68447   -311797.59445  22009507.2344                   22009505.2584
  28064727.82046  21926207.01642  25287959.8444                   25287959.6564
 -43600706.50047 -33860856.62145  22085735.5634                   22085731.1054
 11  8 16  2 54 30.0000000  0  9G10G25G26G12G05G15G29G21G02
 -22819446.71946 -16912161.29343  24582923.6954                   24582921.5664
 -11903272.09048  -9238601.89546  21815241.5864   21815241.8444
  10193228.41847   7977633.25044  23052228.7504                   23052227.0044
 -25376124.32047 -19734804.94145  22215564.6174                   22215562.3554
 -27308064.62547 -21239119.61346  20797852.0634   20797849.5204   20803421.36746
  16264962.92643                  23951390.9614                   23951390.3404
   -618021.56247   -431530.96145  21980267.1954                   21980265.1484
  27929598.65246  21820911.61342  25262245.2504                   25262246.0234
 -43635711.31247 -33888133.09845  22079074.6024                   22079070.0314
 11  8 16  2 55  0.0000000  0  9G10G25G26G12G05G15G29G21G02
 -22788559.26646 -16888093.10943  24588801.2274                   24588798.8984
 -11954773.71548  -9278733.03946  21805441.0864   21805441.1524
  10026188.32847   7847472.19944  23020441.9844                   23020440.8754
 -25374472.75047 -19733518.00445  22215879.0944                   22215876.9224
 -27339284.77747 -21263447.00046  20791911.4144   20791908.6804   20628688.06346
  16128807.22743                  23918140.7974                   23918139.5354
   -771505.65647   -551128.92245  21951060.3984                   21951058.0124
  27794481.46145  21715625.64142  25236533.6564                   25236534.4694
 -43670626.55547 -33915339.76645  22072429.9844                   22072426.1294
 11  8 16  2 55 30.0000000  0  9G10G25G26G12G05G15G29G21G02
 -22757619.94146 -16863984.50443  24594688.2664                   24594686.2624
 -12005743.63748  -9318449.85946  21795742.0084   21795741.9064
   9859372.48047   7717485.87144  22988697.7344                   22988696.4064
 -25372518.09047 -19731994.90645  22216250.6334                   22216248.7854
 -27370069.82447 -21287435.34046  20786053.1414   20786050.8094   20453945.47746
  15992644.28943                  23884887.6024                   23884887.1414
   -924812.66447   -670588.88345  21921886.6804                   21921884.1254
  27659376.94545  21610349.54742  25210823.5234                   25210826.0664
 -43705450.78947 -33942475.53145  22065803.1724                   22065799.0044
 11  8 16  2 56  0.0000000  0  9G10G25G26G12G05G15G29G21G02
 -22726631.85546 -16839837.93043  24600584.7664                   24600583.3484
 -12056184.50048  -9357754.42246  21786143.6884   21786143.6804
   9692783.59447   7587676.39844  22956996.4534                   22956995.6214
 -25370264.16447 -19730238.59845  22216679.6724                   22216677.5314
 -27400422.81648 -21311087.01246  20780276.9384   20780274.0864   20279195.35946
  15856475.50443                  23851634.0314                   23851632.9844
  -1077941.46547   -789909.98845  21892747.2734                   21892744.6604
  27524283.418 5                  25185115.484
 -43740184.67247 -33969540.88345  22059194.0864                   22059189.4344
 11  8 16  2 56 30.0000000  0  9G10G25G26G12G05G15G29G21G02
 -22695590.97746 -16815650.27343  24606491.0864                   24606489.5234
 -12106091.57848  -9396643.06246  21776646.1564   21776646.7304
   9526431.45347   7458051.41044  22925341.3524                   22925340.6684
 -25367707.72347 -19728246.56245  22217166.3524                   22217164.3714
 -27430339.75847 -21334398.91446  20774584.0704   20774581.1644   20104447.03146
  15720308.07444                  23818380.4774                   23818379.8134
  -1230882.98047   -909085.16045  21863643.7034                   21863641.3054
  27389207.066 5                  25159411.984
 -43774821.83647 -33996530.87145  22052602.6414                   22052598.1094
 11  8 16  2 57  0.0000000  0  9G10G25G26G12G05G15G29G21G02
 -22664501.27045 -16791424.52743  24612407.9844                   24612406.6844
 -12155468.10548  -9435118.27046  21767250.2664   21767250.5434
   9360318.50447   7328612.81344  22893731.1644                   22893729.5044
 -25364852.92247 -19726022.04745  22217709.8914                   22217707.4614
 -27459824.78147 -21357374.24246  20768973.2894   20768970.7274   19929701.69946
  15584143.00844                  23785127.5944                   23785126.2774
  -1383636.93447  -1028114.18045  21834574.7734                   21834572.5554
  27254145.281 5                  25133709.102
 -43809363.84047 -34023446.72345  22046029.5704                   22046024.9804
 11  8 16  2 57 30.0000000  0  8G25G26G12G05G15G29G21G02
 -12204312.17648  -9473178.58646  21757955.7814   21757955.6334
   9194451.84447   7199366.12944  22862167.1724                   22862166.3594
 -25361699.57847 -19723564.91045  22218309.9304                   22218307.4454
 -27488876.05547 -21380011.59046  20763445.1094   20763442.6804   19754965.91846
  15447985.37144                  23751876.5474                   23751875.1374
  -1536197.38747  -1146992.43445  21805543.6884                   21805541.2344
  27119101.391 6                  25108012.508
 -43843807.15247 -34050285.67245  22039475.1724                   22039470.6134
 11  8 16  2 58  0.0000000  0  8G25G26G12G05G15G29G21G02
 -12252625.23448  -9510825.12546  21748762.1414   21748762.2504
   9028835.38347   7070314.42244  22830652.0234                   22830650.7154
 -25358250.44547 -19720877.28945  22218965.9304                   22218963.5944
 -27517495.89848 -21402312.76646  20757998.4924   20757996.1414   19580242.62546
  15311837.45744                  23718627.3204                   23718626.4924
  -1688561.98047  -1265718.05945  21776549.7894                   21776547.7074
  26984075.055 6                  25082317.828
 -43878151.17247 -34077047.24245  22032939.8834                   22032934.8834
 11  8 16  2 58 30.0000000  0  8G25G26G12G05G15G29G21G02
 -12300408.88348  -9548059.12146  21739669.2814   21739668.9964
   8863472.82846   6941460.53144  22799184.1174                   22799182.7774
 -25354508.20347 -19717961.25845  22219678.0234                   22219676.0434
 -27545686.34447 -21424279.34046  20752634.2734   20752631.6214   19405535.07046
  15175701.82044                  23685381.6024                   23685380.4574
  -1840728.25447  -1384289.15245  21747593.7894                   21747591.4694
  26849065.81646  21500878.86353  25056625.6644                   25056624.5664
 -43912395.58647 -34103731.19945  22026423.0944                   22026418.3984
 11  8 16  2 59  0.0000000  0  8G25G26G12G05G15G29G21G02
 -12347661.66048  -9584879.46946  21730677.1414   21730677.0664
   8698371.36746   6812810.11344  22767766.1564                   22767764.7344
 -25350472.86347 -19714816.84045  22220446.1564                   22220443.4304
 -27573446.46148 -21445910.59846  20747351.9224   20747349.0004   19230849.37946
  15039583.19144                  23652139.9924                   23652139.2074
  -1992690.87147  -1502701.55145  21718676.0704                   21718673.7664
  26714076.52045  21395692.55542  25030938.9064                   25030938.0784
 -43946537.40247 -34130335.21945  22019926.3834                   22019921.9264
 11  8 16  2 59 30.0000000  0  8G25G26G12G05G15G29G21G02
 -12394381.21548  -9621284.31246  21721786.5394   21721786.6644
   8533538.52746   6684369.01644  22736399.3204                   22736397.8204
 -25346143.12547 -19711443.01245  22221269.8364                   22221267.3594
 -27600774.44147 -21467205.11746  20742151.4694   20742148.5784   19056192.48846
  14903487.02344                  23618904.3834                   23618902.8634
  -2144443.26247  -1620950.13746  21689798.3754                   21689796.3164
  26579110.31646  21290524.19142  25005255.0234                   25005255.1134
 -43980571.94947 -34156855.63345  22013449.6334                   22013444.7854
 11  8 16  3  0  0.0000000  0  8G25G26G12G05G15G29G21G02
 -12440572.05948  -9657277.16846  21712997.0864   21712996.7304
   8368975.21547   6556137.93044  22705084.1644                   22705083.1844
 -25341524.88347 -19707844.37545  22222148.9144                   22222146.3554
 -27627675.08648 -21488166.65246  20737032.3984   20737029.6334   18881564.60246
  14767413.44143                  23585673.2194                   23585672.1724
  -2295986.22747  -1739035.53945  21660960.9304                   21660958.5004
  26444164.24646  21185371.61342  24979575.9614                   24979574.6254
 -44014501.69147 -34183294.39145  22006993.2504                   22006988.5164
 11  8 16  3  0 30.0000000  0  8G25G26G12G05G15G29G21G02
 -12486236.41448  -9692859.77046  21704307.1414   21704307.0984
   8204685.17647   6428119.78544  22673820.4224                   22673819.5084
 -25336621.23847 -19704023.37945  22223081.4924                   22223079.4104
 -27654151.27348 -21508797.44546  20731993.7734   20731990.8634   18706968.08646
  14631364.31344                  23552448.2194                   23552447.4924
  -2447317.87147  -1856956.27045  21632163.5704                   21632161.0124
  26309237.11746  21080233.72342  24953899.1644                   24953898.7234
 -44048327.60247 -34209652.25045  22000556.2894                   22000551.6954
 11  8 16  3  1  0.0000000  0  8G25G26G12G05G15G29G21G02
 -12531378.48448  -9728035.41846  21695717.1564   21695717.3404
   8040669.12547   6300315.11744  22642609.5634                   22642608.4454
 -25331437.79347 -19699984.34045  22224068.0864                   22224066.1094
 -27680207.77348 -21529101.21146  20727035.8284   20727032.8324   18532403.53946
  14495340.09843                  23519230.0394                   23519228.3364
  -2598438.15647  -1974712.30545  21603405.8204                   21603404.0474
  26174326.41446  20975108.60242  24928227.2194                   24928226.2974
 -44082051.23047 -34235930.39545  21994138.9454                   21994134.4344
 11  8 16  3  1 30.0000000  0  8G25G26G12G05G15G29G21G02
 -12576002.40648  -9762807.29746  21687225.4144   21687225.4384
   7876928.94947   6172725.41844  22611451.2114                   22611449.0164
 -25325979.94947 -19695731.49645  22225107.0634                   22225104.9734
 -27705849.05548 -21549081.42646  20722156.4304   20722153.2114   18357871.77346
  14359341.42244                  23486017.4224                   23486016.0274
  -2749347.18447  -2092303.72345  21574688.8834                   21574686.9924
  26039428.98046  20869993.87943  24902556.8364                   24902555.9264
 -44115674.86747 -34262130.64145  21987740.2274                   21987735.8324
 11  8 16  3  2  0.0000000  0  8G25G26G12G05G15G29G21G02
 -12620108.14548  -9797175.40645  21678832.2194   21678832.2074
   7713470.00447   6045354.85244  22580346.2344                   22580343.7624
 -25320248.80947 -19691265.66045  22226197.5944                   22226195.4534
 -27731075.29348 -21568738.22746  20717355.9454   20717352.9774   18183377.55946
  14223371.99244                  23452811.9774                   23452810.8244
  -2900040.62947  -2209727.15645  21546012.7344                   21546010.1484
  25904546.20346  20764890.57043  24876889.2974                   24876888.3364
 -44149196.39847 -34288251.31645  21981361.6414                   21981356.8404
 11  8 16  3  2 30.0000000  0  8G25G26G12G05G15G29G21G02
 -12663700.80548  -9831143.71145  21670536.3834   21670537.1564
   7550292.80547   5918203.84444  22549294.0554                   22549292.3404
 -25314250.51247 -19686591.65645  22227338.8754                   22227336.6564
 -27755892.48048 -21588076.29346  20712633.6334   20712630.5434   18008920.59046
  14087431.57844                  23419614.2734                   23419612.3134
  -3050519.61747  -2326983.49245  21517377.5474                   21517375.0434
  25769674.28546  20659795.71943  24851223.8054                   24851222.9224
 -44182618.92247 -34314294.83245  21975001.0864                   21974996.9494
 11  8 16  3  3  0.0000000  0  8G25G26G12G05G15G29G21G02
 -12706779.14148  -9864711.24246  21662339.4774   21662339.7304
   7387404.09047   5791277.60544  22518297.7584                   22518295.4964
 -25307984.91847 -19681709.39545  22228531.1334                   22228529.3364
 -27780299.46948 -21607094.71146  20707988.9924   20707985.8914   17834507.03146
  13951524.99244                  23386423.8284                   23386423.5124
  -3200778.61347  -2444068.39146  21488784.3444                   21488782.1844
  25634816.01646  20554711.43443  24825560.9454                   24825559.6684
 -44215938.95747 -34340258.50045  21968660.8594                   21968656.0234
 11  8 16  3  3 30.0000000  0  8G25G26G12G05G15G29G21G02
 -11173928.39548  -8670282.09446  21954030.9064   21954031.6724
   8800228.43047   6892179.72344  22787148.9454                   22787146.2934
 -23726039.96547 -18449025.02345  22529565.5004                   22529563.2344
 -26228882.42248 -20398198.30546  21003213.7274   21003210.5554   19235560.89547
  15043255.38744                  23653035.4774                   23653034.8954
  -1775395.31247  -1333380.07445  21760025.8914                   21760023.3164
  27075390.32446  21677236.99643  25099693.1414                   25099691.8484
 -42673740.23447 -33138545.20345  22262131.1804                   22262127.1024
 11  8 16  3  4  0.0000000  0  8G25G26G12G05G15G29G21G02
 -11215991.36748  -8703058.43745  21946026.7664   21946026.7974
   8637920.49647   6765706.04744  22756262.4304                   22756260.8754
 -23719256.35547 -18443739.11745  22530856.0634                   22530853.8404
 -26252483.37148 -20416588.65246  20998722.5084   20998719.7424   19061235.55546
  14907417.53144                  23619862.5784                   23619861.6094
  -1925215.13748  -1450122.76245  21731515.8134                   21731513.3674
  26940549.79746  21572166.59843  25074033.8204                   25074032.7464
 -42706862.66847 -33164354.89145  22255828.5474                   22255823.6914
 11  8 16  3  4 30.0000000  0  8G25G26G12G05G15G29G21G02
 -11257545.80148  -8735438.50845  21938119.4844   21938119.3014
   8475912.40247   6639466.02044  22725433.4064                   22725431.3284
 -23712214.32447 -18438251.84445  22532196.3204                   22532194.0354
 -26275681.07048 -20434664.77746  20994308.3204   20994305.1254   18886962.64846
  14771620.56344                  23586699.4384                   23586698.5864
  -2074807.93447  -1566688.54746  21703049.2194                   21703047.2154
  26805721.41446  21467105.62143  25048377.0164                   25048375.2814
 -42739882.02047 -33190084.25045  22249545.5634                   22249541.1844
 11  8 16  3  5  0.0000000  0  8G25G26G12G05G15G29G21G02
 -11298593.22348  -8767423.51246  21930308.2664   21930308.3754
   8314208.11347   6513462.72344  22694662.2814                   22694660.1334
 -23704916.85947 -18432565.51645  22533584.7034                   22533582.5784
 -26298477.73848 -20452428.40246  20989970.3364   20989967.4064   18712745.60246
  14635867.10244                  23553546.8284                   23553545.7304
  -2224171.33648  -1683075.59445  21674625.9924                   21674624.6564
  26670904.76246  21362053.78543  25022721.3284                   25022720.3164
 -42772797.69947 -33215732.82845  22243281.9454                   22243277.2774
 11  8 16  3  5 30.0000000  0  8G25G26G12G05G15G29G21G02
 -11339138.14548  -8799016.95346  21922592.8834   21922593.0204
   8152808.89847   6387697.14844  22663948.5004                   22663947.1134
 -23697369.27347 -18426684.27045  22535021.4454                   22535018.8594
 -26320878.02748 -20469883.17246  20985707.5084   20985704.8554   18538584.89146
  14500157.55544                  23520405.4924                   23520403.9884
  -2373305.18048  -1799283.75446  21646247.1484                   21646245.0434
  26536096.88746  21257008.77343  24997068.3134                   24997067.3954
 -42805612.03547 -33241302.43745  22237037.1094                   22237032.6134
 11  8 16  3  6  0.0000000  0  8G25G26G12G05G15G29G21G02
 -11379183.73048  -8830221.29746  21914972.4304   21914972.0314
   7991717.35247   6262171.30944  22633293.9144                   22633292.7704
 -23689575.88747 -18420611.50845  22536504.3834                   22536501.9144
 -26342885.05947 -20487031.50446  20981519.6564   20981516.1884   18364482.48446
  14364493.40244                  23487275.5864                   23487273.2114
  -2522208.35947  -1915312.18046  21617911.7664                   21617909.6134
  26401296.35546  21151969.50043  24971417.0004                   24971415.9884
 -42838325.84847 -33266793.72745  22230811.8524                   22230807.6414
 11  8 16  3  6 30.0000000  0  8G25G26G12G05G15G29G21G02
 -11418729.51248  -8861036.19545  21907447.1724   21907447.1804
   7830939.40247   6136889.84044  22602699.1024                   22602697.1724
 -23681536.91047 -18414347.38345  22538033.9304                   22538032.0164
 -26364499.07448 -20503873.59046  20977406.9224   20977403.7274   18190443.57446
  14228878.77344                  23454155.7194                   23454154.3914
  -2670876.17248  -2031157.20346  21589621.2664                   21589618.9694
  26266504.98646  21046937.36343  24945766.7344                   24945765.5554
 -42870936.05947 -33292204.28145  22224606.2114                   22224601.9264
 11  8 16  3  7  0.0000000  0  8G25G26G12G05G15G29G21G02
 -11457775.50848  -8891461.64545  21900016.6484   21900016.8594
   7670481.12947   6011857.46544  22572164.9774                   22572163.3484
 -23673253.10547 -18407892.48845  22539610.9924                   22539608.6764
 -26385720.32448 -20520409.62946  20973368.4534   20973365.6684   18016473.38346
  14093317.68844                  23421050.9844                   23421048.9264
  -2819304.31248  -2146815.46546  21561376.0634                   21561373.4774
  26131724.19146  20941913.50443  24920119.0394                   24920117.4064
 -42903441.08647 -33317532.87145  22218421.3984                   22218416.1804
 11  8 16  3  7 30.0000000  0  8G25G26G12G05G15G29G21G02
 -11496326.82848  -8921501.63745  21892680.7344   21892680.7704
   7510342.90247   5887074.48444  22541691.4224                   22541690.1094
 -23664731.04347 -18401251.93445  22541232.1884                   22541229.8914
 -26406554.06648 -20536643.69946  20969403.9614   20969400.7854   17842571.86747
  13957810.09844                  23387958.8204                   23387956.9184
  -2967493.10548  -2262287.22746  21533177.0474                   21533174.3324
  25996950.61746  20836895.22342  24894472.4454                   24894470.8404
 -42935843.46547 -33342781.48045  22212255.1954                   22212249.9224
 11  8 16  3  8  0.0000000  0  8G25G26G12G05G15G29G21G02
 -11534387.84448  -8951159.55945  21885438.1254   21885437.6804
   7350526.35247   5762542.16444  22511279.4694                   22511278.0084
 -23655976.31647 -18394430.08245  22542898.5634                   22542896.3014
 -26427005.19547 -20552579.63746  20965512.1884   20965509.2074   17668739.93446
  13822356.74644                  23354879.2344                   23354878.1994
  -3115442.92248  -2377572.76646  21505022.9774                   21505020.7234
  25862181.39846  20731880.34043  24868826.5704                   24868824.8794
 -42968144.98047 -33367951.50445  22206107.9774                   22206103.2624
 11  8 16  3  8 30.0000000  0  8G25G26G12G05G15G29G21G02
 -11571958.61748  -8980435.49245  21878288.7274   21878288.2664
   7191037.18847   5638264.93044  22480929.7034                   22480928.3284
 -23646989.53147 -18387427.39845  22544608.5084                   22544605.9384
 -26447073.62147 -20568217.37146  20961693.1334   20961690.2074   17494982.42246
  13686961.38344                  23321813.9534                   23321812.5124
  -3263149.23848  -2492668.57846  21476915.2974                   21476912.9844
  25727417.89546  20626869.93043  24843180.8834                   24843180.2384
 -43000343.49647 -33393041.25045  22199981.1484                   22199976.3554
 11  8 16  3  9  0.0000000  0  8G25G26G12G05G15G29G21G02
 -11609042.88348  -9009332.32045  21871231.7584   21871231.4264
   7031877.25447   5514244.23844  22450642.5394                   22450640.5084
 -23637775.21547 -18380247.41045  22546362.2114                   22546359.5634
 -26466763.94948 -20583560.47346  20957946.1414   20957943.4884   17321301.03146
  13551625.32444                  23288763.7664                   23288762.0904
  -3410611.36747  -2607574.10946  21448854.1724                   21448851.8484
  25592658.37546  20521862.62942  24817537.7274                   24817536.4414
 -43032440.25447 -33418051.71145  22193873.0704                   22193868.1954
 11  8 16  3  9 30.0000000  0  8G25G26G12G05G15G29G21G02
 -11645642.02048  -9037851.12945  21864266.8204   21864267.1334
   6873051.11347   5390483.65245  22420418.6484                   22420417.4654
 -23628336.05147 -18372892.23845  22548157.7814                   22548155.3954
 -26486077.12548 -20598609.69946  20954271.1804   20954268.7704   17147699.17247
  13416351.23844                  23255728.0704                   23255726.2704
  -3557825.83248  -2722286.64846  21420840.1414                   21420838.0234
  25457902.73846  20416858.27742  24791895.3984                   24791893.6054
 -43064434.24647 -33442982.09445  22187785.0394                   22187780.2234
 11  8 16  3 10  0.0000000  0  8G25G26G12G05G15G29G21G02
 -11681758.46148  -9065993.80145  21857394.0784   21857394.3484
   6714562.18447   5266985.84044  22390259.3594                   22390257.9144
 -23618675.13747 -18365364.28545  22549996.0084                   22549994.1844
 -26505016.11748 -20613367.34846  20950667.4304   20950664.1174   16974180.01646
  13281141.60943                  23222707.8984                   23222706.4774
  -3704790.96148  -2836804.90246  21392873.6024                   21392871.1564
  25323150.46946  20311856.63342  24766251.5704                   24766251.1884
 -43096325.73047 -33467832.59845  22181716.2114                   22181711.7894
 11  8 16  3 10 30.0000000  0  8G25G26G12G05G15G29G21G02
 -11717395.88748  -9093763.21945  21850612.9454   21850612.7234
   6556412.78547   5143752.57444  22360164.5314                   22360162.6094
 -23608797.00447 -18357667.05545  22551876.0864                   22551873.7814
 -26523584.81247 -20627836.45346  20947133.5634   20947130.9924   16800745.09847
  13145997.61344                  23189705.4924                   23189702.7504
  -3851505.77747  -2951128.10246  21364955.0634                   21364952.3674
  25188399.55946  20206856.05542  24740610.0704                   24740609.1764
 -43128115.65647 -33492603.96145  22175666.7194                   22175662.1724
 11  8 16  3 11  0.0000000  0  8G25G26G12G05G15G29G21G02
 -11752555.43448  -9121160.27345  21843922.0314   21843921.9454
   6398607.47347   5020787.44144  22330135.1414                   22330133.4924
 -23598703.50447 -18349802.00445  22553796.7194                   22553794.3984
 -26541784.52748 -20642018.04346  20943670.4614   20943667.7974   16627398.49646
  13010922.41044                  23156717.9224                   23156715.8984
  -3997966.69547  -3065253.47346  21337084.4384                   21337081.7584
  25053650.42646  20101856.83642  24714968.0474                   24714966.9024
 -43159802.82447 -33517295.27745  22169636.8834                   22169632.3014
 11  8 16  3 11 30.0000000  0  8G25G26G12G05G15G29G21G02
 -11787239.44548  -9148186.76645  21837322.3204   21837321.9654
   6241149.65247   4898093.08644  22300171.3524                   22300169.6764
 -23588397.91447 -18341771.68445  22555758.2034                   22555755.8244
 -26559617.80947 -20655914.10946  20940276.9144   20940274.1994   16454143.01247
  12875918.21144                  23123748.4144                   23123746.4844
  -4144171.72347  -3179179.44146  21309262.1564                   21309259.7624
  24918902.58646  19996858.62942  24689325.8674                   24689325.0314
 -43191386.72747 -33541906.08645  22163626.4384                   22163622.6994
 11  8 16  3 12  0.0000000  0  8G25G26G12G05G15G29G21G02
 -11821450.30948  -9174844.57445  21830812.0234   21830811.8554
   6084043.04747   4775672.37544  22270274.9614                   22270273.0704
 -23577883.41447 -18333578.58245  22557759.1414                   22557756.7624
 -26577087.01248 -20669526.46146  20936952.5864   20936949.5984   16280981.66447
  12740987.38744                  23090797.1254                   23090795.2464
  -4290118.85547  -3292904.44946  21281489.7424                   21281487.0234
  24784155.33246  19891860.89542  24663684.5704                   24663683.1094
 -43222867.69547 -33566436.71145  22157635.6254                   22157631.3324
 11  8 16  3 12 30.0000000  0  8G25G26G12G05G15G29G21G02
 -11855191.74648  -9201136.60245  21824390.7894   21824390.7664
   5927289.77747   4653527.01644  22240446.4144                   22240444.1174
 -23567164.51247 -18325226.20745  22559799.3134                   22559796.3324
 -26594196.18447 -20682858.28546  20933697.1094   20933694.3674   16107916.16847
  12606131.22744                  23057864.1024                   23057862.0744
  -4435806.69148  -3406427.41046  21253765.8594                   21253763.2504
  24649406.71146  19786862.04342  24638042.2814                   24638040.9964
 -43254246.66847 -33590887.85545  22151664.6174                   22151659.8284
 11  8 16  3 13  0.0000000  0  8G25G26G12G05G15G29G21G02
 -11888464.25048  -9227063.23045  21818059.7114   21818059.1884
   5770895.30947   4531661.22744  22210685.4384                   22210683.3484
 -23556242.54347 -18316715.59445  22561877.0084                   22561875.0704
 -26610945.92247 -20695910.02746  20930509.4694   20930506.6764   15934951.11347
  12471353.35544                  23024949.3674                   23024947.7704
  -4581231.23048  -3519745.21546  21226092.3834                   21226090.1644
  24514658.22346  19681863.34042  24612401.2424                   24612399.0944
 -43285521.66847 -33615257.98445  22145713.6174                   22145708.9344
 11  8 16  3 13 30.0000000  0  8G25G26G12G05G15G29G21G02
 -10345852.10548  -8025027.77745  22111608.6564   22111608.6214
   7190285.28147   5637679.42644  22480785.6724                   22480784.1764
 -21969704.07847 -17080451.89145  22863785.1414                   22863782.8364
 -25051921.27347 -19481085.61346  21227182.0554   21227179.4924   17337512.07847
  13564258.08244                  23291847.5234                   23291846.1914
  -3150968.40248  -2405254.66446  21498262.1254                   21498259.8204
  25955330.57446  20804465.28143  24886551.6804                   24886550.0824
 -41741274.28947 -32411948.33245  22439573.9064                   22439569.2194
 11  8 16  3 14  0.0000000  0  8G25G26G12G05G15G29G21G02
 -10378194.74648  -8050229.84845  22105454.3284   22105454.3954
   7034618.02047   5516380.29744  22451163.6024                   22451161.5434
 -21958386.28547 -17071632.85545  22865939.1254                   22865936.7734
 -25067960.53548 -19493583.73446  21224129.7424   21224127.1054   17164756.21947
  13429643.20744                  23258973.1884                   23258971.4344
  -3295860.52348  -2518157.58246  21470690.7974                   21470687.8324
  25820579.32046  20699464.40642  24860909.4224                   24860907.2424
 -41772340.94547 -32436156.10544  22433662.5784                   22433657.7854
 11  8 16  3 14 30.0000000  0  8G25G26G12G05G15G29G21G02
 -10410075.31248  -8075071.84045  22099387.2814   22099387.6844
   6879320.60947   5395369.35944  22421611.9224                   22421609.5274
 -21946874.30147 -17062662.49645  22868129.8674                   22868127.7504
 -25083647.49247 -19505807.33646  21221144.7814   21221141.8554   16992110.42647
  13295114.08644                  23226119.8524                   23226117.9844
  -3440482.14548  -2630849.72746  21443169.7664                   21443167.4804
  25685826.79746  20594462.53542  24835265.8674                   24835264.4654
 -41803302.92647 -32460282.33245  22427769.5164                   22427765.7304
 11  8 16  3 15  0.0000000  0  8G25G26G12G05G15G29G21G02
 -10441492.02348  -8099552.39545  22093409.3284   22093409.3874
   6724400.55547   5274652.46944  22392131.3674                   22392128.6564
 -21935167.35547 -17053540.22345  22870357.1724                   22870355.0234
 -25098980.41047 -19517755.06646  21218226.7584   21218224.1054   16819581.83247
  13160676.26644                  23193289.0314                   23193286.5784
  -3584826.82048  -2743326.06646  21415701.6804                   21415699.6764
  25551076.37546  20489462.30943  24809623.7274                   24809621.9924
 -41834155.41047 -32484323.22745  22421899.2504                   22421894.5904
 11  8 16  3 15 30.0000000  0  8G25G26G12G05G15G29G21G02
 -10472452.52048  -8123677.45745  22087517.6564   22087517.9264
   6569856.27747   5154228.37144  22362722.0474                   22362720.2734
 -21923273.75047 -17044272.49645  22872620.3674                   22872618.8404
 -25113967.15247 -19529433.04346  21215375.3134   21215372.2774   16647168.05547
  13026327.93844                  23160479.4064                   23160477.6254
  -3728897.62948  -2855589.01646  21388285.7664                   21388283.4534
  25416322.31346  20384459.25043  24783981.3134                   24783979.2854
 -41864903.24247 -32508282.57045  22416048.4844                   22416043.7814
 11  8 16  3 16  0.0000000  0  8G25G26G12G05G15G29G21G02
 -10502956.66448  -8147446.92645  22081713.5554   22081713.3914
   6415693.86747   5034101.86744  22333385.9924                   22333384.0394
 -21911193.78547 -17034859.56645  22874919.2344                   22874917.6414
 -25128607.59048 -19540841.17246  21212589.0554   21212586.4384   16474874.67247
  12892073.41844                  23127693.1414                   23127691.3984
  -3872689.50048  -2967634.60246  21360923.4304                   21360920.8754
  25281566.84046  20279455.10543  24758338.2664                   24758336.2154
 -41895543.60247 -32532158.17245  22410217.6804                   22410212.7194
 11  8 16  3 16 30.0000000  0  8G25G26G12G05G15G29G21G02
 -10533007.61348  -8170863.25445  22075994.3444   22075994.2424
   6261916.15247   4914275.11344  22304123.1094                   22304121.2154
 -21898931.46147 -17025304.52745  22877253.1174                   22877250.8954
 -25142904.87948 -19551981.91846  21209868.8674   21209865.3524   16302704.16447
  12757914.63344                  23094930.0784                   23094928.0234
  -4016200.89148  -3079461.63746  21333614.0394                   21333611.6954
  25146808.41446  20174448.64543  24732694.1334                   24732692.9734
 -41926077.04747 -32555950.47344  22404406.9774                   22404402.3914
 11  8 16  3 17  0.0000000  0  8G25G26G12G05G15G29G21G02
 -10562609.00848  -8193929.26245  22070361.3594   22070361.3554
   6108525.55147   4794749.99245  22274934.0784                   22274931.5314
 -21886491.01647 -17015610.69545  22879620.5554                   22879617.9104
 -25156862.60948 -19562858.07046  21207212.5234   21207209.3014   16130658.46147
  12623853.11344                  23062190.5634                   23062188.7934
  -4159430.61348  -3191069.18046  21306358.3134                   21306356.0354
  25012045.69146  20069438.83643  24707049.5634                   24707048.3134
 -41956504.56647 -32579660.23445  22398616.1414                   22398612.1094
 11  8 16  3 17 30.0000000  0  8G25G26G12G05G15G29G21G02
 -10591765.22748  -8216648.39145  22064812.8754   22064813.2114
   5955523.73047   4675527.84045  22245819.3284                   22245816.9064
 -21873877.68047 -17005782.13745  22882020.8054                   22882018.3874
 -25170485.32447 -19573473.17246  21204620.2194   21204617.1054   15958738.77747
  12489889.77744                  23029475.2814                   23029473.5354
  -4302378.26648  -3302456.93446  21279156.4614                   21279154.0164
  24877275.94946  19964423.54343  24681403.7504                   24681401.8634
 -41986827.69147 -32603288.64145  22392846.0164                   22392842.1484
 11  8 16  3 18  0.0000000  0  8G25G26G12G05G15G29G21G02
 -10620478.51648  -8239022.39145  22059349.2114   22059349.2074
   5802914.43447   4556611.53944  22216777.7344                   22216776.3094
 -21861094.13747 -16995820.95344  22884453.6094                   22884450.7384
 -25183774.78147 -19583828.59446  21202091.0314   21202088.2894   15786948.16447
  12356027.03544                  22996784.8834                   22996782.7734
  -4445041.38348  -3413622.97746  21252008.0234                   21252005.6804
  24742499.19546  19859402.80143  24655756.6254                   24655754.5274
 -42017046.03947 -32626835.41044  22387096.9384                   22387091.8984
 11  8 16  3 18 30.0000000  0  9G18G25G26G12G05G15G29G21G02
  31263781.84456  24411203.25852  24672108.5704                   24672108.0634
 -10648749.31248  -8261051.58646  22053969.2734   22053969.2234
   5650703.14547   4438005.37944  22187813.1174                   22187811.1024
 -21848141.13747 -16985727.71544  22886918.3204                   22886915.8324
 -25196731.84048 -19593925.00046  21199625.2894   21199622.4774   15615291.94947
  12222268.99644                  22964119.6484                   22964117.5084
  -4587415.23048  -3524563.61746  21224915.3364                   21224913.1374
  24607716.94546  19754377.75443  24630107.7504                   24630106.1724
 -42047156.76647 -32650298.33245  22381366.3524                   22381362.1564
 11  8 16  3 19  0.0000000  0  9G18G25G26G12G05G15G29G21G02
  31096462.95746  24280825.07842  24640269.2664                   24640268.6994
 -10676581.33248  -8282738.87545  22048673.1804   22048672.9344
   5498892.18047   4319711.14844  22158924.6884                   22158922.0904
 -21835023.33247 -16975506.06644  22889414.0784                   22889412.3404
 -25209360.25848 -19603765.33246  21197222.0944   21197219.4264   15443771.82847
  12088617.00844                  22931480.5634                   22931478.5084
  -4729499.08248  -3635278.28946  21197877.5394                   21197875.0904
  24472927.33246  19649346.96543  24604458.4614                   24604456.8244
 -42077160.96947 -32673678.23845  22375657.3054                   22375652.3054
 11  8 16  3 19 30.0000000  0  9G18G25G26G12G05G15G29G21G02
  30929309.33246  24150575.65642  24608460.9144                   24608460.6334
 -10703981.55547  -8304089.69945  22043458.8204   22043458.8404
   5347480.77747   4201728.25045  22130111.6564                   22130109.8444
 -21821748.36747 -16965161.96144  22891940.5314                   22891938.5474
 -25221666.98048 -19613354.98046  21194880.4224   21194877.7624   15272386.78547
  11955070.28144                  22898867.0234                   22898864.8754
  -4871294.82448  -3745768.45346  21170894.8284                   21170892.1524
  24338125.54346  19544306.68843  24578806.7734                   24578804.6334
 -42107062.99247 -32696978.53545  22369966.3914                   22369962.2274
 11  8 16  3 20  0.0000000  0  9G18G25G26G12G05G15G29G21G02
  30762318.777 6                  24576683.328
 -10730955.53947  -8325108.41045  22038325.6884   22038326.2114
   5196469.23047   4084056.94145  22101375.0474                   22101373.0864
 -21808322.09847 -16954699.94544  22894495.4064                   22894493.1214
 -25233657.33248 -19622698.11346  21192598.5314   21192595.9384   15101136.76647
  11821628.75444                  22866279.0394                   22866277.1684
  -5012802.96547  -3856034.52046  21143967.0164                   21143964.2274
  24203307.73446  19439253.96943  24553150.8834                   24553149.4384
 -42136865.66447 -32720201.40645  22364295.0084                   22364290.9734
 11  8 16  3 20 30.0000000  0  9G18G25G26G12G05G15G29G21G02
  30595499.805 6                  24544938.203
 -10757499.03948  -8345791.66445  22033274.8204   22033274.5084
   5045867.83647   3966705.24244  22072716.8834                   22072714.9414
 -21794740.97747 -16944117.28944  22897079.8594                   22897077.4494
 -25245326.87547 -19631791.27046  21190378.0084   21190375.0554   14930031.45347
  11688300.00444                  22833718.6334                   22833716.4924
  -5154014.64847  -3966069.57846  21117095.3524                   21117092.7034
  24068480.62946  19334193.98443  24527493.9224                   24527492.7734
 -42166561.84847 -32743341.29745  22358644.6564                   22358639.8324
 11  8 16  3 21  0.0000000  0  9G18G25G26G12G05G15G29G21G02
  30428849.031 5                  24513225.531
 -10783619.04748  -8366144.92245  22028304.4694   22028304.4304
   4895675.71547   3849672.44145  22044136.0474                   22044134.4224
 -21781012.35247 -16933419.68744  22899692.5164                   22899689.9694
 -25256682.62948 -19640639.91046  21188217.1414   21188214.2074   14759069.55947
  11555083.00044                  22801186.4384                   22801183.9574
  -5294932.13347  -4075875.38746  21090279.0704                   21090277.0554
  23933639.07046  19229122.69943  24501835.5084                   24501832.9224
 -42196155.24647 -32766401.10545  22353012.6334                   22353008.3204
 11  8 16  3 21 30.0000000  0  9G18G25G26G12G05G15G29G21G02
  30262368.180 6                  24481545.336
 -10809317.57847  -8386169.74245  22023413.9774   22023414.0704
   4745896.85547   3732961.67645  22015633.6884                   22015632.3364
 -21767138.87547 -16922609.20344  22902332.3134                   22902329.9024
 -25267726.49647 -19649245.52746  21186115.8524   21186112.7734   14588254.42647
  11421980.33244                  22768680.6484                   22768678.5984
  -5435552.36747  -4185449.57446  21063520.4534                   21063517.9654
  23798783.19946  19124040.28143  24476173.0394                   24476170.4304
 -42225645.14847 -32789380.26244  22347401.6414                   22347396.7504
 11  8 16  3 22  0.0000000  0  9G18G25G26G12G05G15G29G21G02
  30096062.645 6                  24449898.773
 -10834593.28547  -8405865.10245  22018604.4694   22018604.7664
   4596538.82047   3616578.82045  21987211.5944                   21987209.9734
 -21753119.50447 -16911685.04744  22905000.2194                   22904997.9344
 -25278457.09448 -19657607.03546  21184073.6884   21184071.0664   14417593.36347
  11288997.73444                  22736204.6484                   22736202.5314
  -5575868.65248  -4294786.92246  21036818.8594                   21036816.6024
  23663916.80946  19018949.69543  24450507.5314                   24450506.9064
 -42255027.33647 -32812275.48845  22341810.2114                   22341805.2544
 11  8 16  3 22 30.0000000  0  9G18G25G26G12G05G15G29G21G02
  29929930.64146  23996684.77052  24418285.0704                   24418282.4414
 -10859451.44947  -8425235.10945  22013874.4304   22013874.2114
   4447602.14547   3500524.30144  21958870.7584                   21958868.4384
 -21738960.15647 -16900651.82444  22907694.6174                   22907692.7384
 -25288879.59047 -19665728.46546  21182090.4144   21182087.7584   14247087.03547
  11156135.71544                  22703758.4304                   22703756.6684
  -5715881.76248  -4403888.03146  21010175.2274                   21010172.9964
  23529036.51246  18913848.22743  24424841.7734                   24424839.2344
 -42284304.19147 -32835088.63344  22336239.0394                   22336234.2934
 11  8 16  3 23  0.0000000  0  9G18G25G26G12G05G15G29G21G02
  29763975.69546  23867369.40243  24386704.0784                   24386702.5044
 -10883893.00847  -8444280.49645  22009223.0004   22009223.0204
   4299092.20747   3384802.28945  21930609.5164                   21930607.8164
 -21724662.19547 -16889510.57844  22910415.3204                   22910413.4344
 -25298994.68748 -19673610.35946  21180165.3914   21180162.6564   14076740.18847
  11023397.94544                  22671342.0944                   22671340.6564
  -5855587.76247  -4512749.82846  20983590.1644                   20983587.5554
  23394143.31646  18808736.71143  24399172.2504                   24399170.4614
 -42313473.68447 -32857818.10545  22330688.2274                   22330683.3204
 11  8 16  3 23 30.0000000  0  9G18G25G26G12G05G15G29G21G02
  29598202.98446  23738196.00843  24355157.8054                   24355157.2464
 -10907916.29347  -8462999.93445  22004651.2114   22004651.5354
   4151016.55547   3269418.69544  21902431.6414                   21902429.7504
 -21710224.36347 -16878260.33644  22913162.4144                   22913161.1804
 -25308800.60248 -19681251.32846  21178299.4694   21178296.6214   13906559.93847
  10890790.00444                  22638958.1564                   22638956.2854
  -5994979.64847  -4621366.86746  20957064.5784                   20957062.1214
  23259241.11346  18703618.22743  24373501.0784                   24373498.9734
 -42342530.88747 -32880460.09845  22325158.8364                   22325154.3794
 11  8 16  3 24  0.0000000  0  9G18G25G26G12G05G15G29G21G02
  31008037.44146  24836768.45343  24623441.0004                   24623439.6644
  -9356105.10247  -7253796.41445  22299950.9534   22299951.0474
   5578801.62947   4381978.52745  22174130.5474                   22174127.9454
 -20120232.39547 -15639305.58644  23215728.3364                   23215726.3634
 -23742881.52348 -18461054.65246  21476283.9304   21476280.9924   15311973.15647
  11985917.23444                  22906399.6954                   22906397.5984
  -4558632.59447  -3502135.38746  21230392.7114                   21230390.0864
  24699752.28546  19826094.53943  24647620.7664                   24647618.8634
 -40796056.73447 -31675415.31644  22619443.0084                   22619438.4064
 11  8 16  3 24 30.0000000  0  9G18G25G26G12G05G15G29G21G02
  30842630.94546  24707880.41443  24591964.7424                   24591963.8874
  -9379301.90647  -7271871.85545  22295537.0554   22295537.2854
   5431602.86747   4267278.21945  22146119.1884                   22146117.0944
 -20105526.37147 -15627846.38344  23218526.9774                   23218524.6764
 -23752078.73048 -18468221.30546  21474533.7894   21474531.0084   15142133.64547
  11853574.80544                  22874080.4064                   22874078.2304
  -4697391.70747  -3610259.34446  21203987.3524                   21203985.2544
  24564829.01646  19720959.57443  24621946.7424                   24621943.6724
 -40824891.17247 -31697883.70344  22613956.1094                   22613951.2074
 11  8 16  3 25  0.0000000  0  9G18G25G26G12G05G15G29G21G02
  30677405.31346  24579133.30543  24560523.5474                   24560522.0744
  -9402093.66048  -7289631.66045  22291200.0554   22291200.3404
   5284843.51247   4152920.30144  22118191.7974                   22118189.5634
 -20090694.96547 -15616289.47344  23221349.4224                   23221347.9614
 -23760979.50448 -18475156.96546  21472839.8834   21472837.1454   14972464.75446
  11721365.31644                  22841792.9614                   22841791.3554
  -4835834.83248  -3718137.09046  21177642.3204                   21177640.1024
  24429890.18046  19615812.53543  24596268.4614                   24596265.8914
 -40853617.83247 -31720268.12544  22608489.7344                   22608484.4064
 11  8 16  3 25 30.0000000  0  9G18G25G26G12G05G15G29G21G02
  30512364.56646  24450530.26643  24529117.3204                   24529115.9734
  -9424480.04747  -7307075.60545  22286939.8594   22286940.5864
   5138529.97747   4038909.79344  22090349.1254                   22090347.3244
 -20075737.99247 -15604634.73844  23224195.5784                   23224193.6564
 -23769583.23848 -18481861.17645  21471203.1414   21471200.1564   14802972.82447
  11589293.71144                  22809540.1724                   22809538.0984
  -4973956.75447  -3825764.54746  21151358.8914                   21151356.4064
  24294938.47346  19510655.44143  24570587.5864                   24570585.0084
 -40882233.04747 -31742565.69944  22603044.0554                   22603039.2664
 11  8 16  3 26  0.0000000  0  9G18G25G26G12G05G15G29G21G02
  30347507.55546  24322070.43843  24497746.0164                   24497744.3754
  -9446466.10247  -7324207.61345  22282756.3054   22282756.3484
   4992663.14547   3925247.35544  22062591.7274                   22062589.5124
 -20060661.25047 -15592886.64844  23227064.7114                   23227062.3054
 -23777894.45348 -18488337.44546  21469621.3284   21469618.2544   14633658.64847
  11457360.60945                  22777320.6174                   22777318.5744
  -5111757.55548  -3933141.78546  21125136.1174                   21125133.6844
  24159971.34846  19405486.35543  24544904.2734                   24544901.9264
 -40910739.16447 -31764778.27344  22597619.7424                   22597615.1334
 11  8 16  3 26 30.0000000  0  9G18G25G26G12G05G15G29G21G02
  30182830.90646  24193751.07843  24466409.0864                   24466407.4184
  -9468059.31247  -7341033.48445  22278647.3204   22278647.4694
   4847241.80147   3811932.04745  22034919.2274                   22034917.1374
 -20045472.31647 -15581051.14844  23229955.0474                   23229952.5394
 -23785920.69147 -18494591.64845  21468094.2274   21468091.1604   14464520.50447
  11325564.70344                  22745134.5474                   22745132.4494
  -5249239.78147  -4040270.77346  21098973.9144                   21098971.7704
  24024983.18046  19300300.84043  24519216.4774                   24519214.3754
 -40939140.33247 -31786909.05944  22592215.2504                   22592210.4414
 11  8 16  3 27  0.0000000  0  9G18G25G26G12G05G15G29G21G02
  30018345.31346  24065580.60942  24435108.3674                   24435106.9184
  -9489252.72347  -7357547.83245  22274614.5784   22274614.3984
   4702278.83247   3698973.90645  22007333.5314                   22007331.8554
 -20030164.71147 -15569123.18444  23232867.5084                   23232865.3164
 -23793654.79348 -18500618.22746  21466621.3984   21466619.2544   14295571.14147
  11193915.87144                  22712985.2274                   22712982.2774
  -5386391.20347  -4147141.99646  21072874.8984                   21072872.8524
  23889983.14846  19195106.11343  24493526.8204                   24493523.8834
 -40967426.44947 -31808950.20344  22586831.9774                   22586827.8634
 11  8 16  3 27 30.0000000  0  9G18G25G26G12G05G15G29G21G02
  29854047.18845  23937556.22342  24403843.1884                   24403842.3164
  -9510053.72347  -7373756.39545  22270656.0004   22270656.0744
   4557772.94547   3586371.94945  21979834.9774                   21979833.4064
 -20014746.19147 -15557108.77344  23235802.1174                   23235799.5044
 -23801103.99248 -18506422.79746  21465204.5704   21465202.0314   14126808.96547
  11062412.92244                  22680870.8524                   22680868.2114
  -5523214.30548  -4253757.39546  21046838.3054                   21046835.9104
  23754966.52746  19089898.42643  24467833.7274                   24467831.1054
 -40995602.29747 -31830905.43444  22581470.5474                   22581466.4454
 11  8 16  3 28  0.0000000  0  9G18G25G26G12G05G15G29G21G02
  29689935.35245  23809677.00842  24372613.6174                   24372612.3164
  -9530467.62147  -7389663.34045  22266771.6024   22266771.6914
   4413725.19947   3474126.98445  21952423.7424                   21952421.4804
 -19999222.12147 -15545012.13344  23238755.8834                   23238753.7894
 -23808273.39148 -18512009.34446  21463840.3674   21463837.4574   13958234.75847
  10931056.44545                  22648791.4844                   22648789.5474
  -5659709.36748  -4360117.16046  21020864.6724                   21020861.9384
  23619930.23446  18984675.41043  24442137.9924                   24442134.6844
 -41023669.66047 -31852776.12544  22576129.6884                   22576125.3094
 11  8 16  3 28 30.0000000  0  9G18G25G26G12G05G15G29G21G02
  29526015.27745  23681947.23442  24341420.6954                   24341420.1844
  -9550492.71147  -7405267.30945  22262960.8524   22262960.5314
   4270143.01247   3362244.79345  21925100.9224                   21925098.8554
 -19983591.41846 -15532832.39844  23241730.1414                   23241728.2344
 -23815160.28548 -18517375.75446  21462529.5004   21462526.6724   13789856.07447
  10799852.32445                  22616749.8914                   22616748.0944
  -5795869.33648  -4466215.82846  20994954.1884                   20994951.8954
  23484878.38346  18879440.29343  24416438.1094                   24416434.9024
 -41051623.79347 -31874558.58645  22570809.8914                   22570805.9734
 11  8 16  3 29  0.0000000  0  9G18G25G26G12G05G15G29G21G02
  29362288.35545  23554367.93042  24310263.5634                   24310263.3984
  -9570131.72347  -7420570.43045  22259223.6094   22259223.9224
   4127029.83247   3250728.04345  21897867.1724                   21897865.1334
 -19967856.91047 -15520571.78544  23244724.6484                   23244722.5864
 -23821767.62148 -18522524.33245  21461272.4844   21461269.4694   13621675.88747
  10668802.85545                  22584746.4614                   22584744.4304
  -5931692.08648  -4572051.72346  20969107.9144                   20969105.1524
  23349810.22746  18774192.46943  24390734.8284                   24390732.5554
 -41079464.25447 -31896252.46944  22565512.5704                   22565507.9414
 11  8 16  3 29 30.0000000  0  9G18G25G26G12G05G15G29G21G02
  29198752.469 6                  24279144.789
  -9589390.74647  -7435577.46945  22255558.8984   22255559.0474
   3984385.74247   3139576.83245  21870723.4304                   21870721.1884
 -19952024.87946 -15508235.16844  23247737.0394                   23247735.3134
 -23828101.35547 -18527459.71546  21460066.6254   21460064.1054   13453694.11347
  10537908.02744                  22552780.6954                   22552778.5004
  -6067178.47747  -4677625.52046  20943325.7194                   20943323.0314
  23214722.26646  18668929.19543  24365029.2734                   24365026.2074
 -41107193.99247 -31917860.06644  22560235.8984                   22560231.0664
 11  8 16  3 30  0.0000000  0  9G18G25G26G12G05G15G29G21G02
  29035413.80946  23475375.62953  24248061.8914                   24248059.8674
  -9608267.17247  -7450286.37145  22251966.8674   22251966.6334
   3842219.37947   3028797.87545  21843669.8054                   21843667.9804
 -19936092.83247 -15495820.62944  23250768.8524                   23250767.2304
 -23834158.35248 -18532179.45346  21458914.5634   21458911.8874   13285919.09447
  10407174.29744                  22520853.5474                   22520851.7074
  -6202320.87947  -4782931.27746  20917608.9924                   20917606.7934
  23079619.61746  18563654.49243  24339319.7424                   24339317.1254
 -41134807.28547 -31939376.93744  22554980.6884                   22554976.1914
 11  8 16  3 30 30.0000000  0  9G18G25G26G12G05G15G29G21G02
  28872272.52846  23348252.67442  24217017.3524                   24217015.7584
  -9626764.99647  -7464700.26645  22248446.2424   22248446.6414
   3700532.92647   2918392.86345  21816707.5004                   21816705.6174
 -19920065.40246 -15483331.74644  23253819.3594                   23253816.9494
 -23839942.09047 -18536686.25046  21457814.2034   21457811.0824   13118353.02347
  10276603.38745                  22488967.1954                   22488964.5314
  -6337117.99247  -4887967.97746  20891957.9384                   20891955.2384
  22944500.47746  18458366.91843  24313606.6564                   24313604.8984
 -41162305.06647 -31960803.81244  22549748.4614                   22549743.9844
 11  8 16  3 31  0.0000000  0  9G18G25G26G12G05G15G29G21G02
  28709329.38746  23221284.09842  24186010.1724                   24186008.5554
  -9644887.55147  -7478821.76245  22244997.7584   22244998.1214
   3559328.89147   2808363.77045  21789836.9224                   21789835.7154
 -19903946.01247 -15470771.23444  23256886.5004                   23256884.6214
 -23845455.78548 -18540982.64146  21456764.9774   21456762.1414   12950998.30547
  10146197.15244                  22457120.4144                   22457117.6604
  -6471568.21548  -4992734.36746  20866372.8054                   20866370.4264
  22809364.07046  18353065.91443  24287891.6804                   24287888.8954
 -41189687.37547 -31982140.69544  22544538.2194                   22544533.5864
 11  8 16  3 31 30.0000000  0  9G18G25G26G12G05G15G29G21G02
  28546579.64846  23094466.17643  24155039.6804                   24155038.4924
  -9662643.30947  -7492657.41845  22241618.9614   22241619.3204
   3418605.27047   2698709.02045  21763058.6174                   21763056.1804
 -19887743.35547 -15458145.81244  23259969.6954                   23259968.4414
 -23850707.71947 -18545075.04745  21455765.4064   21455762.4574   12783852.24647
  10015953.52345                  22425313.5314                   22425311.7934
  -6605674.68748  -5097232.90646  20840853.1174                   20840850.3324
  22674204.30946  18247746.68443  24262171.3204                   24262168.9184
 -41216959.29347 -32003391.56244  22539347.9064                   22539343.6604
 11  8 16  3 32  0.0000000  0  9G18G25G26G12G05G15G29G21G02
  28384029.96146  22967804.15242  24124107.4454                   24124105.6414
  -9680029.55547  -7506205.15645  22238310.9064   22238310.6374
   3278370.34847   2589435.07445  21736372.7344                   21736370.7384
 -19871454.59447 -15445453.28944  23263070.2974                   23263067.5164
 -23855694.16848 -18548960.59446  21454816.3834   21454813.4534   12616923.88347
   9885879.52045                  22393548.5394                   22393546.4104
  -6739429.60948  -5201457.50446  20815400.7664                   20815397.6684
  22539026.21146  18142413.16443  24236447.7034                   24236445.2624
 -41244114.89147 -32024551.75844  22534180.2274                   22534175.7974
 11  8 16  3 32 30.0000000  0  9G18G25G26G12G05G15G29G21G02
  28221679.14846  22841297.11343  24093212.9924                   24093211.4804
  -9697051.59047  -7519469.08245  22235071.2194   22235071.5394
   3138625.04747   2480542.65645  21709780.2894                   21709778.0824
 -19855085.34847 -15432698.06244  23266184.8364                   23266182.4844
 -23860420.42247 -18552643.38746  21453916.5234   21453913.7774   12450213.72747
   9755975.53945                  22361824.5084                   22361822.1484
  -6872833.19948  -5305408.33646  20790014.6954                   20790011.7624
  22403826.92246  18037063.14543  24210720.5004                   24210717.1564
 -41271156.61347 -32045623.24644  22529034.5554                   22529029.6564
 11  8 16  3 33  0.0000000  0  9G18G25G26G12G05G15G29G21G02
  28059531.48046  22714948.37943  24062357.3594                   24062355.6524
  -9713708.77347  -7532448.71945  22231901.8054   22231902.0084
   2999376.10547   2372037.01245  21683282.3914                   21683280.1054
 -19838635.00047 -15419879.60944  23269314.9144                   23269312.1764
 -23864885.43748 -18556122.62546  21453067.3444   21453064.7154   12283728.18047
   9626246.59845                  22330143.2814                   22330141.1724
  -7005879.59448  -5409080.82846  20764696.6024                   20764694.2544
  22268609.64546  17931699.12143  24184989.2974                   24184986.5744
 -41298080.02747 -32066602.52744  22523911.4454                   22523906.4104
 11  8 16  3 33 30.0000000  0  9G18G25G26G12G05G15G29G21G02
  27897587.41046  22588758.27743  24031540.8674                   24031538.5514
  -9730004.84847  -7545146.97345  22228800.7344   22228800.8404
   2860625.83647   2263919.94545  21656878.7734                   21656876.4694
 -19822107.75047 -15407001.26644  23272460.2894                   23272457.6374
 -23869092.40248 -18559400.77745  21452266.8204   21452264.1724   12117469.74647
   9496694.62145                  22298505.0394                   22298502.8874
  -7138567.34848  -5512473.85546  20739446.8054                   20739444.3054
  22133373.30946  17826320.21943  24159254.6564                   24159252.0314
 -41324885.93047 -32087490.23844  22518810.1884                   22518805.8524
 11  8 16  3 34  0.0000000  0  9G18G25G26G12G05G15G29G21G02
  29311272.51246  23690331.18843  24300555.4454                   24300553.7074
  -8170523.08647  -6329966.39145  22525560.3674   22525560.4414
   4297800.93847   3383796.67245  21930363.8674                   21930361.6214
 -18230087.99646 -14166466.41444  23575411.8444                   23575409.2304
 -22297624.84447 -17334880.60246  21751307.1174   21751304.5634   13526866.01247
  10594925.52344                  22566704.2664                   22566702.0044
  -5695470.80148  -4387983.03146  21014059.0784                   21014056.9104
  23573540.98446  18948528.87543  24433308.4774                   24433306.3794
 -39776153.70747 -30880685.91844  22813524.2034                   22813519.7194
 11  8 16  3 34 30.0000000  0  9G18G25G26G12G05G15G29G21G02
  29149735.17646  23564458.05143  24269815.5084                   24269814.3284
  -8186109.14847  -6342111.37945  22522594.2504   22522594.4144
   4160053.83647   3276461.28945  21904151.4614                   21904149.6604
 -18213419.50046 -14153477.99244  23578582.5084                   23578580.8364
 -22301326.91448 -17337765.32846  21750602.7274   21750599.7504   13361067.12947
  10465731.62145                  22535154.5474                   22535151.4144
  -5827437.61348  -4490814.29346  20988946.7584                   20988944.2114
  23438262.00446  18843116.75443  24407566.2274                   24407563.5514
 -39802727.00447 -30901392.39544  22808467.1724                   22808462.5164
 11  8 16  3 35  0.0000000  0  9G18G25G26G12G05G15G29G21G02
  28988404.99246  23438746.30943  24239115.1174                   24239114.0434
  -8201342.34847  -6353981.41445  22519695.6724   22519695.8054
   4022815.17247   3169522.09845  21878035.3134                   21878033.3094
 -18196682.47346 -14140436.19144  23581768.3524                   23581766.6054
 -22304778.04748 -17340454.51645  21749945.6564   21749942.8524   13195504.81347
  10336722.05945                  22503648.5864                   22503645.9654
  -5959038.90648  -4593360.73446  20963903.8754                   20963901.2114
  23302962.85246  18737688.94143  24381819.6884                   24381817.3244
 -39829181.01247 -30922005.90644  22803433.2734                   22803428.8444
 11  8 16  3 35 30.0000000  0  9G18G25G26G12G05G15G29G21G02
  28827282.50846  23313196.37143  24208454.7194                   24208453.1414
  -8216226.01247  -6365579.08245  22516862.8834   22516863.3554
   3886087.71947   3062981.24645  21852017.0004                   21852014.9804
 -18179880.58646 -14127343.84044  23584965.8914                   23584963.1884
 -22307981.02048 -17342950.34045  21749336.2034   21749333.0904   13030182.29747
  10207899.36345                  22472189.0394                   22472186.2384
  -6090272.41848  -4695620.59046  20938930.7344                   20938927.9774
  23167642.95146  18632244.91043  24356069.5784                   24356066.4494
 -39855516.03947 -30942526.73444  22798421.7894                   22798417.4694
 11  8 16  3 36  0.0000000  0  9G18G25G26G12G05G15G29G21G02
  28666369.14846  23187809.43443  24177834.1644                   24177832.4534
  -8230762.85247  -6376906.50045  22514096.9774   22514097.1094
   3749874.66847   2956841.22345  21826096.6174                   21826094.4064
 -18163016.29346 -14114202.86344  23588174.8914                   23588172.6024
 -22310937.88747 -17345254.38746  21748773.6884   21748771.0164   12865102.62547
  10079265.89544                  22440774.7734                   22440772.1954
  -6221135.87148  -4797592.10246  20914028.1954                   20914025.5474
  23032302.14146  18526784.57043  24330314.5164                   24330311.8834
 -39881731.30147 -30962954.21544  22793433.1024                   22793428.8794
 11  8 16  3 36 30.0000000  0  9G18G25G26G12G05G15G29G21G02
  28505665.67646  23062586.03143  24147253.2584                   24147251.1914
  -8244955.98047  -6387966.07045  22511395.7424   22511396.3984
   3614178.94147   2851104.31645  21800274.9844                   21800272.9534
 -18146093.03946 -14101015.94144  23591395.0394                   23591392.9694
 -22313651.59848 -17347368.96146  21748257.6954   21748254.2734   12700268.46147
   9950823.72745                  22409408.0084                   22409405.3054
  -6351626.98448  -4899273.46946  20889196.7034                   20889194.0904
  22896940.08246  18421307.70743  24304555.9224                   24304553.1484
 -39907826.57847 -30983288.21544  22788468.1094                   22788463.2584
 11  8 16  3 37  0.0000000  0  9G18G25G26G12G05G15G29G21G02
  28345168.98046  22937523.76243  24116711.7894                   24116709.8674
  -8258812.22347  -6398763.13745  22508759.0474   22508759.7304
   3478999.79747   2745769.94945  21774550.8364                   21774548.9104
 -18129117.83646 -14087788.52344  23594625.5864                   23594623.3444
 -22316128.28948 -17349298.84846  21747786.0864   21747782.6764   12535679.10947
   9822572.31645                  22378087.4844                   22378085.0784
  -6481747.38348  -5000665.96946  20864435.4144                   20864433.2424
  22761552.37946  18315810.82843  24278792.8364                   24278789.7344
 -39933805.40647 -31003531.48444  22783524.1334                   22783519.4264
 11  8 16  3 37 30.0000000  0  9G18G25G26G12G05G15G29G21G02
  28184881.57046  22812624.57043  24086210.2584                   24086207.7194
  -8272333.12947  -6409298.90645  22506186.2194   22506186.5704
   3344341.53147   2640841.45345  21748926.6484                   21748924.4964
 -18112091.94546 -14074521.64144  23597865.7194                   23597863.5474
 -22318369.11748 -17351044.94145  21747359.7584   21747356.5664   12371339.10547
   9694515.22345                  22346814.9844                   22346812.3954
  -6611493.39548  -5101766.74646  20839745.7114                   20839743.4224
  22626140.14546  18210294.87943  24253024.1334                   24253021.4574
 -39959665.78947 -31023682.43444  22778603.3524                   22778598.9454
 11  8 16  3 38  0.0000000  0  9G18G25G26G12G05G15G29G21G02
  28024802.98446  22687888.09043  24055748.8914                   24055745.8984
  -8285523.13747  -6419576.84445  22503676.6094   22503676.0164
   3210205.78947   2536320.12545  21723401.4774                   21723399.1174
 -18095020.00846 -14061218.84844  23601114.1804                   23601112.0904
 -22320377.84847 -17352610.18045  21746977.2274   21746974.5434   12207249.66847
   9566653.35945                  22315589.8674                   22315587.2774
  -6740864.42248  -5202575.32446  20815127.4924                   20815124.6994
  22490701.77346  18104758.52043  24227252.1564                   24227248.4104
 -39985409.60247 -31043742.56244  22773704.1174                   22773699.4694
 11  8 16  3 38 30.0000000  0  9G18G25G26G12G05G15G29G21G02
  27864935.57446  22563316.15243  24025325.8834                   24025324.0274
  -8298383.86747  -6429598.18445  22501229.6884   22501228.7934
   3076596.79347   2432209.23845  21697976.2424                   21697973.6764
 -18077903.54746 -14047881.37544  23604371.0944                   23604369.3794
 -22322155.62948 -17353995.46145  21746639.0314   21746635.9884   12043415.66447
   9438990.55145                  22284412.8284                   22284410.5204
  -6869856.63348  -5303088.73046  20790580.8134                   20790578.5594
  22355237.63746  17999202.13343  24201474.0944                   24201470.4964
 -40011034.12547 -31063709.73444  22768827.7894                   22768823.2154
 11  8 16  3 39  0.0000000  0  9G18G25G26G12G05G15G29G21G02
  27705280.10246  22438909.33643  23994944.6564                   23994943.1254
  -8310918.42647  -6439365.37545  22498843.8524   22498843.8054
   2943517.56347   2328511.15645  21672651.4454                   21672649.6914
 -18060745.71946 -14034511.65244  23607636.4534                   23607634.0634
 -22323705.02747 -17355202.78145  21746344.0554   21746341.2894   11879840.09047
   9311529.09845                  22253285.6174                   22253283.0234
  -6998468.07848  -5403305.42646  20766106.7344                   20766104.1844
  22219747.89846  17893625.77043  24175689.9384                   24175688.2304
 -40036539.31247 -31083583.92244  22763974.3054                   22763969.9104
 11  8 16  3 39 30.0000000  0  9G18G25G26G12G05G15G29G21G02
  27545839.41046  22314669.91443  23964604.3834                   23964602.0554
  -8323128.23047  -6448879.51245  22496520.5554   22496520.5514
   2810972.52347   2225229.33645  21647429.4534                   21647427.2584
 -18043548.00447 -14021110.84844  23610909.1024                   23610907.5314
 -22325026.74247 -17356232.68745  21746092.7034   21746089.5704   11716527.41047
   9184272.48445                  22222207.8524                   22222205.7894
  -7126694.84848  -5503222.37146  20741706.0314                   20741704.1174
  22084233.19946  17788030.00043  24149902.6094                   24149900.2424
 -40061923.56647 -31103363.87144  22759144.0234                   22759139.6724
 11  8 16  3 40  0.0000000  0  9G18G25G26G12G05G15G29G21G02
  27386612.78546  22190597.30943  23934304.3834                   23934302.8674
  -8335017.50847  -6458143.87945  22494257.9614   22494258.3054
   2678963.40247   2122365.11745  21622308.8054                   21622306.3244
 -18026314.51246 -14007682.18744  23614189.1954                   23614186.8794
 -22326124.69148 -17357088.22745  21745884.0314   21745880.7894   11553479.73447
   9057222.38345                  22191181.2584                   22191178.5234
  -7254535.90648  -5602838.77346  20717378.6484                   20717376.2074
  21948692.23846  17682413.71143  24124110.0784                   24124107.3524
 -40087187.62147 -31123050.15244  22754337.1174                   22754331.9104
 11  8 16  3 40 30.0000000  0  9G18G25G26G12G05G15G29G21G02
  27227603.89146  22066694.31343  23904046.3444                   23904043.6954
  -8346586.80147  -6467158.92645  22492056.8134   22492056.5164
   2547495.55947   2019922.64545  21597291.4534                   21597288.7544
 -18009045.90246 -13994226.14144  23617474.7974                   23617472.9774
 -22326998.58647 -17357769.17645  21745717.2734   21745714.4964   11390702.02047
   8930382.64545                  22160205.7274                   22160203.0394
  -7381986.83648  -5702151.17646  20693125.6334                   20693123.4184
  21813127.37146  17576778.84443  24098312.6564                   24098310.1254
 -40112328.23047 -31142640.25444  22749552.7424                   22749547.9804
 11  8 16  3 41  0.0000000  0  9G18G25G26G12G05G15G29G21G02
  27068809.11746  21942958.15643  23873828.1884                   23873825.5864
  -8357843.37947  -6475930.29745  22489914.1174   22489914.3594
   2416567.58247   1917900.87945  21572376.6024                   21572374.3244
 -17991749.09446 -13980748.14144  23620766.2194                   23620764.2774
 -22327655.29747 -17358280.88345  21745592.6724   21745589.3524   11228193.35547
   8803752.55145                  22129281.1884                   22129278.6644
  -7509049.70748  -5801161.20346  20668946.3834                   20668943.6524
  21677533.81346  17471121.58243  24072510.6564                   24072507.8164
 -40137349.65247 -31162137.47744  22744790.9144                   22744786.3134
